[[{"header":{"parameterUnit":"m.s-1","parameterCategory":1,"la1":31.0,"la2":29.5877,"lo1":-88.7671,"lo2":-86.6584,"dy":0.0162,"dx":0.0185,"nx":115,"ny":88,"refTime":"2023-08-29T06:00:00:Z","depth":0,"parameterNumber":2,"parameterNumberName":"U-component_of_WINDS"},"data":[0.0,0.0,0.0,0.0,0.0,0.0,0.0,0.0,0.0,0.0,0.0,0.0,0.0,0.0,0.0,0.0,0.0,0.0,0.0,0.0,0.0,0.0,0.0,0.0,0.0,0.0,0.0,0.0,0.0,0.0,0.0,0.0,0.0,0.0,0.0,0.0,0.0,0.0,0.0,0.0,0.0,0.0,0.0,0.0,0.0,0.0,0.0,0.0,0.0,0.0,0.0,0.0,0.0,0.0,0.0,0.0,0.0,0.0,0.0,0.0,0.0,0.0,0.0,0.0,0.0,0.0,0.0,0.0,0.0,0.0,0.0,0.0,0.0,0.0,0.0,0.0,0.0,0.0,0.0,0.0,0.0,0.0,0.0,0.0,0.0,0.0,0.0,0.0,0.0,0.0,0.0,0.0,0.0,0.0,0.0,0.0,0.0,0.0,0.0,0.0,0.0,0.0,0.0,0.0,0.0,0.0,0.0,0.0,0.0,0.0,0.0,0.0,0.0,0.0,0.0,0.0,0.0,0.0,0.0,0.0,0.0,0.0,0.0,0.0,0.0,0.0,0.0,0.0,0.0,0.0,0.0,0.0,0.0,0.0,0.0,0.0,0.0,0.0,0.0,0.0,0.0,0.0,0.0,0.0,0.0,0.0,0.0,0.0,0.0,0.0,0.0,0.0,0.0,0.0,0.0,0.0,0.0,0.0,0.0,0.0,0.0,0.0,0.0,0.0,0.0,0.0,0.0,0.0,0.0,0.0,0.0,0.0,0.0,0.0,0.0,0.0,0.0,0.0,0.0,0.0,0.0,0.0,0.0,0.0,0.0,0.0,0.0,0.0,0.0,0.0,0.0,0.0,0.0,0.0,0.0,0.0,0.0,0.0,0.0,0.0,0.0,0.0,0.0,0.0,0.0,0.0,0.0,0.0,0.0,0.0,0.0,0.0,0.0,0.0,0.0,0.0,0.0,0.0,0.0,0.0,0.0,0.0,0.0,0.0,0.0,0.0,0.0,0.0,0.0,0.0,0.0,0.0,0.0,0.0,0.0,0.0,0.0,0.0,0.0,0.0,0.0,0.0,0.0,0.0,0.0,0.0,0.0,0.0,0.0,0.0,0.0,0.0,0.0,0.0,0.0,0.0,0.0,0.0,0.0,0.0,0.0,0.0,0.0,0.0,0.0,0.0,0.0,0.0,0.0,0.0,0.0,0.0,0.0,0.0,0.0,0.0,0.0,0.0,0.0,0.0,0.0,0.0,0.0,0.0,0.0,0.0,0.0,0.0,0.0,0.0,0.0,0.0,0.0,0.0,0.0,0.0,0.0,0.0,0.0,0.0,0.0,0.0,0.0,0.0,0.0,0.0,0.0,0.0,0.0,0.0,0.0,0.0,0.0,0.0,0.0,0.0,0.0,0.0,0.0,0.0,0.0,0.0,0.0,0.0,0.0,0.0,0.0,0.0,0.0,0.0,0.0,0.0,0.0,0.0,0.0,0.0,0.0,0.0,0.0,0.0,0.0,0.0,0.0,0.0,0.0,0.0,0.0,0.0,0.0,0.0,0.0,0.0,0.0,0.0,0.0,0.0,0.0,0.0,0.0,0.0,0.0,0.0,0.0,0.0,0.0,0.0,0.0,0.0,0.0,0.0,0.0,0.0,0.0,0.0,0.0,0.0,0.0,0.0,0.0,0.0,0.0,0.0,0.0,0.0,0.0,0.0,0.0,0.0,0.0,0.0,0.0,0.0,0.0,0.0,0.0,0.0,0.0,0.0,0.0,0.0,0.0,0.0,0.0,0.0,0.0,0.0,0.0,0.0,0.0,0.0,0.0,0.0,0.0,0.0,0.0,0.0,0.0,0.0,0.0,0.0,0.0,0.0,0.0,0.0,0.0,0.0,0.0,0.0,0.0,0.0,0.0,0.0,0.0,0.0,0.0,0.0,0.0,0.0,0.0,0.0,0.0,0.0,0.0,0.0,0.0,0.0,0.0,0.0,0.0,0.0,0.0,0.0,0.0,0.0,0.0,0.0,0.0,0.0,0.0,0.0,0.0,0.0,0.0,0.0,0.0,0.0,0.0,0.0,0.0,0.0,0.0,0.0,0.0,0.0,0.0,0.0,0.0,0.0,0.0,0.0,0.0,0.0,0.0,0.0,0.0,0.0,0.0,0.0,0.0,0.0,0.0,0.0,0.0,0.0,0.0,0.0,0.0,0.0,0.0,0.0,0.0,0.0,0.0,0.0,0.0,0.0,0.0,0.0,0.0,0.0,0.0,0.0,0.0,0.0,0.0,0.0,0.0,0.0,0.0,0.0,0.0,0.0,0.0,0.0,0.0,0.0,0.0,0.0,0.0,0.0,0.0,0.0,0.0,0.0,0.0,0.0,0.0,0.0,0.0,0.0,0.0,0.0,0.0,0.0,0.0,0.0,0.0,0.0,0.0,0.0,0.0,0.0,0.0,0.0,0.0,0.0,0.0,0.0,0.0,0.0,0.0,0.0,0.0,0.0,0.0,0.0,0.0,0.0,0.0,0.0,0.0,0.0,0.0,0.0,0.0,0.0,0.0,0.0,0.0,0.0,0.0,0.0,0.0,0.0,0.0,0.0,0.0,0.0,0.0,0.0,0.0,0.0,0.0,0.0,0.0,0.0,0.0,0.0,0.0,0.0,0.0,0.0,0.0,0.0,0.0,0.0,0.0,0.0,0.0,0.0,0.0,0.0,0.0,0.0,0.0,0.0,0.0,0.0,0.0,0.0,0.0,0.0,0.0,0.0,0.0,0.0,0.0,0.0,0.0,0.0,0.0,0.0,0.0,0.0,0.0,0.0,0.0,0.0,0.0,0.0,0.0,0.0,0.0,0.0,0.0,0.0,0.0,0.0,0.0,0.0,0.0,0.0,0.0,0.0,0.0,0.0,0.0,0.0,0.0,0.0,0.0,0.0,0.0,0.0,0.0,0.0,0.0,0.0,0.0,0.0,0.0,0.0,0.0,0.0,0.0,0.0,0.0,0.0,0.0,0.0,0.0,0.0,0.0,0.0,0.0,0.0,0.0,0.0,0.0,0.0,0.0,0.0,0.0,0.0,0.0,0.0,0.0,0.0,0.0,0.0,0.0,0.0,0.0,0.0,0.0,0.0,0.0,0.0,0.0,0.0,0.0,0.0,0.0,0.0,0.0,0.0,0.0,0.0,0.0,0.0,0.0,0.0,0.0,0.0,0.0,0.0,0.0,0.0,0.0,0.0,0.0,0.0,0.0,0.0,0.0,0.0,0.0,0.0,0.0,0.0,0.0,0.0,0.0,0.0,0.0,0.0,0.0,0.0,0.0,0.0,0.0,0.0,0.0,0.0,0.0,0.0,0.0,0.0,0.0,0.0,0.0,0.0,0.0,0.0,0.0,0.0,0.0,0.0,0.0,0.0,0.0,0.0,0.0,0.0,0.0,0.0,0.0,0.0,0.0,0.0,0.0,0.0,0.0,0.0,0.0,0.0,0.0,0.0,0.0,0.0,0.0,0.0,0.0,0.0,0.0,0.0,0.0,0.0,0.0,0.0,0.0,0.0,0.0,0.0,0.0,0.0,0.0,0.0,0.0,0.0,0.0,0.0,0.0,0.0,0.0,0.0,0.0,0.0,0.0,0.0,0.0,0.0,0.0,0.0,0.0,0.0,0.0,0.0,0.0,0.0,0.0,0.0,0.0,0.0,0.0,0.0,0.0,0.0,0.0,0.0,0.0,0.0,0.0,0.0,0.0,0.0,0.0,0.0,0.0,0.0,0.0,0.0,0.0,0.0,0.0,0.0,0.0,0.0,0.0,0.0,0.0,0.0,0.0,0.0,0.0,0.0,0.0,0.0,0.0,0.0,0.0,0.0,0.0,0.0,0.0,0.0,0.0,0.0,0.0,0.0,0.0,0.0,0.0,0.0,0.0,0.0,0.0,0.0,0.0,0.0,0.0,0.0,0.0,0.0,0.0,0.0,0.0,0.0,0.0,0.0,0.0,0.0,0.0,0.0,0.0,0.0,0.0,0.0,0.0,0.0,0.0,0.0,0.0,0.0,0.0,0.0,0.0,0.0,0.0,0.0,0.0,0.0,0.0,0.0,0.0,0.0,0.0,0.0,0.0,0.0,0.0,0.0,0.0,0.0,0.0,0.0,0.0,0.0,0.0,0.0,0.0,0.0,0.0,0.0,0.0,0.0,0.0,0.0,0.0,0.0,0.0,0.0,0.0,0.0,0.0,0.0,0.0,0.0,0.0,0.0,0.0,0.0,0.1555,0.0,0.0,0.0,0.0275,0.0,0.0,0.0,0.0,0.0,0.0,0.0,0.0,0.0,0.0,0.0,0.0,0.0,0.0,0.0,0.0,0.0,0.0,0.0,0.0,0.0,0.0,0.0,0.0,0.0,0.0,0.0,0.0,0.0,0.0,0.0,0.0,0.0,0.0,0.0,0.0,0.0,0.0,0.0,0.0,0.0,0.0,0.0,0.0,0.0,0.0,0.0,0.0,0.0,0.0,0.0,0.0,0.0,0.0,0.0,0.0,0.0,0.0,0.0,0.0,0.0,0.0,0.0,0.0,0.0,0.0,0.0,0.0,0.0,0.0,0.0,0.0,0.0,0.0,0.0,0.0,0.0,0.0,0.0,0.0,0.0,0.0,0.0,0.0,0.0,0.0,0.0,0.0,0.0,0.0,0.0,0.0,0.0,0.0,0.0,0.0,0.0,0.0,0.0,0.0,0.0,0.0,0.0,0.0,0.0,0.0,0.0,0.0,0.0,0.0,0.1392,0.1337,0.107,0.0715,0.0285,0.0,0.0,0.0,0.0,0.0,0.0,0.0,0.0,0.0,0.0,0.0,0.0,0.0,0.0,0.0,0.0,0.0,0.0,0.0,0.0,0.0,0.0,0.0,0.0,0.0,0.0,0.0,0.0,0.0,0.0,0.0,0.0,0.0,0.0,0.0,0.0,0.0,0.0,0.0,0.0,0.0,0.0,0.0,0.0,0.0,0.0,0.0,0.0,0.0,0.0,0.0,0.0,0.0,0.0,0.0,0.0,0.0,0.0,0.0,0.0,0.0,0.0,0.0,0.0,0.0,0.0,0.0,0.0,0.0,0.0,0.0,0.0,0.0,0.0,0.0,0.0,0.0,0.0,0.0,0.0,0.0,0.0,0.0,0.0,0.0,0.0,0.0,0.0,0.0,0.0,0.0,0.0,0.0,0.0,0.0,0.0,0.0,0.0,0.0,0.0,0.0,0.0,0.0,0.0,0.0,0.0,0.0,0.0,0.0,0.0,0.0,0.0,0.1178,0.0798,0.0263,0.0,0.0,0.0,0.0,0.0,0.0,0.0,0.0,0.0,0.0,0.0,0.0,0.0,0.0,0.0,0.0,0.0,0.0,0.0,0.0,0.0,0.0,0.0,0.0,0.0,0.0,0.0,0.0,0.0,0.0,0.0,0.0,0.0,0.0,0.0,0.0,0.0,0.0,0.0,0.0,0.0,0.0,0.0,0.0,0.0,0.0,0.0,0.0,0.0,0.0,0.0,0.0,0.0,0.0,0.0,0.0,0.0,0.0,0.0,0.0,0.0,0.0,0.0,0.0,0.0,0.0,0.0,0.0,0.0,0.0,0.0,0.0,0.0,0.0,0.0,0.0,0.0,0.0,0.0,0.0,0.0,0.0,0.0,0.0,0.0,0.0,0.0,0.0,0.0,0.0,0.0,0.0,0.0,0.0,0.0,0.0,0.0,0.0,0.0,0.0,0.0,0.0,0.0,0.0,0.0,0.0,0.0,0.0,0.0,0.0,0.1007,0.0364,0.0308,0.0,-0.0458,0.0,0.0,0.0,0.0,0.0,0.0,0.0,0.0,0.0,0.0,0.0,0.0,0.0,0.0,0.0,0.0,0.0,0.0,0.0,0.0,0.0,0.0,0.0,0.0,0.0,0.0,0.0,0.0,0.0,0.0,0.0,0.0,0.0,0.0,0.0,0.0,0.0,0.0,0.0,0.0,0.0,0.0,0.0,0.0,0.0,0.0,0.0,0.0,0.0,0.0,0.0,0.0,0.0,0.0,0.0,0.0,0.0,0.0,0.0,0.0,0.0,0.0,0.0,0.0,0.0,0.0,0.0,0.0,0.0,0.0,0.0,0.0,0.0,0.0,0.0,0.0,0.0,0.0,0.0,0.0,0.0,0.0,0.0,0.0,0.0,0.0,0.0,0.0,0.0,0.0,0.0,0.0,0.0,0.0,0.0,0.0,0.0,0.0,0.0,0.0,0.0,0.0,0.0,0.0,0.0,0.0,0.0,0.0,0.0,0.0,-0.0307,-0.067,-0.0726,-0.0735,0.0,0.0,0.0,0.0,0.0,0.0,0.0,0.0,0.0,0.0,0.0,0.0,0.0,0.0,0.0,0.0,0.0,0.0,0.0,0.0,0.0,0.0,0.0,0.0,0.0,0.0,0.0,0.0,0.0,0.0,0.0,0.0,0.0,0.0,0.0,0.0,0.0,0.0,0.0,0.0,0.0,0.0,0.0,0.0,0.0,0.0,0.0,0.0,0.0,0.0,0.0,0.0,0.0,0.0,0.0,0.0,0.0,0.0,0.0,0.0,0.0,0.0,0.0,0.0,0.0,0.0,0.0,0.0,0.0,0.0,0.0,0.0,0.0,0.0,0.0,0.0,0.0,0.0,0.0,0.0,0.0,0.0,0.0,0.0,0.0,0.0,0.0,0.0,0.0,0.0,0.0,0.0,0.0,0.0,0.0,0.0,0.0,0.0,0.0,0.0,0.0,0.0,0.0,0.0,0.0,0.0,0.0,0.0,0.0,0.0,-0.1228,-0.1422,-0.1446,-0.156,-0.1349,-0.0851,0.0,0.0,0.0,0.0,0.0,0.0,0.0,0.0,0.0,0.0,0.0,0.0,0.0,0.0,0.0,0.0,0.0,0.0,0.0,0.0,0.0,0.0,0.0,0.0,0.0,0.0,0.0,0.0,0.0,0.0,0.0,0.0,0.0,0.0,0.0,0.0,0.0,0.0,0.0,0.0,0.0,0.0,0.0,0.0,0.0,0.0,0.0,0.0,0.0,0.0,0.0,0.0,0.0,0.0,0.0,0.0,0.0,0.0,0.0,0.0,0.0,0.0,0.0,0.0,0.0,0.0,0.0,0.0,0.0,0.0,0.0,0.0,0.0,0.0,0.0,0.0,0.0,0.0,0.0,0.0,0.0,0.0,0.0,0.0,0.0,0.0,0.0,0.0,0.0,0.0,0.0,0.0,0.0,0.0,0.0,0.0,0.0,0.0,0.0,0.0,0.0,0.0,0.0,0.0,0.0,0.0,0.0,0.0,-0.1538,-0.1977,-0.2057,-0.184,-0.1954,-0.1704,0.0,0.0,0.0,0.0,0.0,0.0,0.0,0.0,0.0,0.0,0.0,0.0,0.0,0.0,0.0,0.0,0.0,0.0,0.0,0.0,0.0,0.0,0.0,0.0,0.0,0.0,0.0,0.0,0.0,0.0,0.0,0.0,0.0,0.0,0.0,0.0,0.0,0.0,0.0,0.0,0.0,0.0,0.0,0.0,0.0,0.0,0.0,0.0,0.0,0.0,0.0,0.0,0.0,0.0,0.0,0.0,0.0,0.0,0.0,0.0,0.0,0.0,0.0,0.0,0.0,0.0,0.0,0.0,0.0,0.0,0.0,0.0,0.0,0.0,0.0,0.0,0.0,0.0,0.0,0.0,0.0,0.0,0.0,0.0,0.0,0.0,0.0,0.0,0.0,0.0,0.0,0.0,0.0,0.0,0.0,0.0,0.0,0.0,0.0,0.0,0.0,0.0,0.0,0.0,0.0,0.0,0.0,0.0,0.0,-0.2493,-0.3441,-0.3766,-0.3413,-0.3294,-0.2939,0.0,0.0,0.0,0.0,0.0,0.0,0.0,0.0,0.0,0.0,0.0,0.0,0.0,0.0,0.0,0.0,0.0,0.0,0.0,0.0,0.0,0.0,0.0,0.0,0.0,0.0,0.0,0.0,0.0,0.0,0.0,0.0,0.0,0.0,0.0,0.0,0.0,0.0,0.0,0.0,0.0,0.0,0.0,0.0,0.0,0.0,0.0,0.0,0.0,0.0,0.0,0.0,0.0,0.0,0.0,0.0,0.0,0.0,0.0,0.0,0.0,0.0,0.0,0.0,0.0,0.0,0.0,0.0,0.0,0.0,0.0,0.0,0.0,0.0,0.0,0.0,0.0,0.0,0.0,0.0,0.0,0.0,0.0,0.0,0.0,0.0,0.0,0.0,0.0,0.0,0.0,0.0,0.0,0.0,0.0,0.0,0.0,0.0,0.0,0.0,0.0,0.0,0.0,0.0,0.0,0.0,0.0,0.0,0.0,-0.3948,0.0,-0.5425,-0.4926,-0.458,-0.4012,0.0,0.0,0.0,0.0,0.0,0.0,0.0,0.0,0.0,0.0,0.0,0.0,0.0,0.0,0.0,0.0,0.0,0.0,0.0,0.0,0.0,0.0,0.0,0.0,0.0,0.0,0.0,0.0,0.0,0.0,0.0,0.0,0.0,0.0,0.0,0.0,0.0,0.0,0.0,0.0,0.0,0.0,0.0,0.0,0.0,0.0,0.0,0.0,0.0,0.0,0.0,0.0,0.0,0.0,0.0,0.0,0.0,0.0,0.0,0.0,0.0,0.0,0.0,0.0,0.0,0.0,0.0,0.0,0.0,0.0,0.0,0.0,0.0,0.0,0.0,0.0,0.0,0.0,0.0,0.0,0.0,0.0,0.0,0.0,0.0,0.0,0.0,0.0,0.0,0.0,0.0,0.0,0.0,0.0,0.0,0.0,0.0,0.0,0.0,0.0,0.0,0.0,0.0,0.0,0.0,0.0,0.0,0.0,-0.3447,-0.5854,-0.6734,-0.6827,-0.6224,-0.5661,-0.4764,0.0,0.0,0.0,0.0,0.0,0.0,0.0,0.0,0.0,0.0,0.0,0.0,0.0,0.0,0.0,0.0,0.0,0.0,0.0,0.0,0.0,0.0,0.0,0.0,0.0,0.0,0.0,0.0,0.0,0.0,0.0,0.0,0.0,0.0,0.0,0.0,0.0,0.0,0.0,0.0,0.0,0.0,0.0,0.0,0.0,0.0,0.0,0.0,0.0,0.0,0.0,0.0,0.0,0.0,0.0,0.0,0.0,0.0,0.0,0.0,0.0,0.0,0.0,0.0,0.0,0.0,0.0,0.0,0.0,0.0,0.0,0.0,0.0,0.0,0.0,0.0,0.0,0.0,0.0,0.0,0.0,0.0,0.0,0.0,0.0,0.0,0.0,0.0,0.0,0.0,0.0,0.0,0.0,0.0,0.0,0.0,0.0,0.0,0.0,0.0,0.0,0.0,0.0,0.0,0.0,0.0,0.0,0.0,0.0,-0.5903,-0.6659,-0.7276,-0.7647,-0.6577,-0.5776,0.0,0.0,0.0,0.0,0.0,0.0,0.0,0.0,0.0,0.0,0.0,0.0,0.0,0.0,0.0,0.0,0.0,0.0,0.0,0.0,0.0,0.0,0.0,0.0,0.0,0.0,0.0,0.0,0.0,0.0,0.0,0.0,0.0,0.0,0.0,0.0,0.0,0.0,0.0,0.0,0.0,0.0,0.0,0.0,0.0,0.0,0.0,0.0,0.0,0.0,0.0,0.0,0.0,0.0,0.0,0.0,0.0,0.0,0.0,0.0,0.0,0.0,0.0,0.0,0.0,0.0,0.0,0.0,0.0,0.0,0.0,0.0,0.0,0.0,0.0,0.0,0.0,0.0,0.0,0.0,0.0,0.0,0.0,0.0,0.0,0.0,0.0,0.0,0.0,0.0,0.0,0.0,0.0,0.0,0.0,0.0,0.0,0.0,0.0,0.0,0.0,0.0,0.0,0.0,0.0,0.0,0.0,0.0,0.0,-0.6495,-0.7226,-0.7873,-0.8395,-0.7332,-0.6497,-0.5908,0.0,0.0,0.0,0.0,0.0,0.0,0.0,0.0,0.0,0.0,0.0,0.0,0.0,0.0,0.0,0.0,0.0,0.0,0.0,0.0,0.0,0.0,0.0,0.0,0.0,0.0,0.0,0.0,0.0,0.0,0.0,0.0,0.0,0.0,0.0,0.0,0.0,0.0,0.0,0.0,0.0,0.0,0.0,0.0,0.0,0.0,0.0,0.0,0.0,0.0,0.0,0.0,0.0,0.0,0.0,0.0,0.0,0.0,0.0,0.0,0.0,0.0,0.0,0.0,0.0,0.0,0.0,0.0,0.0,0.0,0.0,0.0,0.0,0.0,0.0,0.0,0.0,0.0,0.0,0.0,0.0,0.0,0.0,0.0,0.0,0.0,0.0,0.0,0.0,0.0,0.0,0.0,0.0,0.0,0.0,0.0,0.0,0.0,0.0,0.0,0.0,0.0,0.0,0.0,0.0,0.0,0.0,0.0,-0.7472,-0.8254,-0.8586,-0.848,-0.7941,-0.6941,0.0,0.0,0.0,0.0,0.0,0.0,0.0,0.0,0.0,0.0,0.0,0.0,0.0,0.0,0.0,0.0,0.0,0.0,0.0,0.0,0.0,0.0,0.0,0.0,0.0,0.0,0.0,0.0,0.0,0.0,0.0,0.0,0.0,0.0,0.0,0.0,0.0,0.0,0.0,0.0,0.0,0.0,0.0,0.0,0.0,0.0,0.0,0.0,0.0,0.0,0.0,0.0,0.0,0.0,0.0,0.0,0.0,0.0,0.0,0.0,0.0,0.0,0.0,0.0,0.0,0.0,0.0,0.0,0.0,0.0,0.0,0.0,0.0,0.0,0.0,0.0,0.0,0.0,0.0,0.0,0.0,0.0,0.0,0.0,0.0,0.0,0.0,0.0,0.0,0.0,0.0,0.0,0.0,0.0,0.0,0.0,0.0,0.0,0.0,0.0,0.0,0.0,0.0,0.0,0.0,0.0,0.0,0.0,0.0,-0.724,-0.7889,-0.8499,-0.915,-0.814,-0.7329,0.0,0.0,0.0,0.0,0.0,0.0,0.0,0.0,0.0,0.0,0.0,0.0,0.0,0.0,0.0,0.0,0.0,0.0,0.0,0.0,0.0,0.0,0.0,0.0,0.0,0.0,0.0,0.0,0.0,0.0,0.0,0.0,0.0,0.0,0.0,0.0,0.0,0.0,0.0,0.0,0.0,0.0,0.0,0.0,0.0,0.0,0.0,0.0,0.0,0.0,0.0,0.0,0.0,0.0,0.0,0.0,0.0,0.0,0.0,0.0,0.0,0.0,0.0,0.0,0.0,0.0,0.0,0.0,0.0,0.0,0.0,0.0,0.0,0.0,0.0,0.0,0.0,0.0,0.0,0.0,0.0,0.0,0.0,0.0,0.0,0.0,0.0,0.0,0.0,0.0,0.0,0.0,0.0,0.0,0.0,0.0,0.0,0.0,0.0,0.0,0.0,0.0,0.0,0.0,0.0,0.0,0.0,0.0,-0.6267,-0.738,-0.7511,-0.7996,-0.893,-0.8138,-0.7417,0.0,0.0,0.0,0.0,0.0,0.0,0.0,0.0,0.0,0.0,0.0,0.0,0.0,0.0,0.0,0.0,0.0,0.0,0.0,0.0,0.0,0.0,0.0,0.0,0.0,0.0,0.0,0.0,0.0,0.0,0.0,0.0,0.0,0.0,0.0,0.0,0.0,0.0,0.0,0.0,0.0,0.0,0.0,0.0,0.0,0.0,0.0,0.0,0.0,0.0,0.0,0.0,0.0,0.0,0.0,0.0,0.0,0.0,0.0,0.0,0.0,0.0,0.0,0.0,0.0,0.0,0.0,0.0,0.0,0.0,0.0,0.0,0.0,0.0,0.0,0.0,0.0,0.0,0.0,0.0,0.0,0.0,0.0,0.0,0.0,0.0,0.0,0.0,0.0,0.0,0.0,0.0,0.0,0.0,0.0,0.0,0.0,0.0,0.0,0.0,0.0,0.0,0.0,0.0,0.0,0.0,0.0,0.0,-0.6186,-0.754,-0.7163,-0.7294,-0.8059,-0.7917,-0.73,0.0,0.0,0.0,0.0,0.0,0.0,0.0,0.0,0.0,0.0,0.0,0.0,0.0,0.0,0.0,0.0,0.0,0.0,0.0,0.0,0.0,0.0,0.0,0.0,0.0,0.0,0.0,0.0,0.0,0.0,0.0,0.0,0.0,0.0,0.0,0.0,0.0,0.0,0.0,0.0,0.0,0.0,0.0,0.0,0.0,0.0,0.0,0.0,0.0,0.0,0.0,0.0,0.0,0.0,0.0,0.0,0.0,0.0,0.0,0.0,0.0,0.0,0.0,0.0,0.0,0.0,0.0,0.0,0.0,0.0,0.0,0.0,0.0,0.0,0.0,0.0,0.0,0.0,0.0,0.0,0.0,0.0,0.0,0.0,0.0,0.0,0.0,0.0,0.0,0.0,0.0,0.0,0.0,0.0,0.0,0.0,0.0,0.0,0.0,0.0,0.0,0.0,0.0,0.0,0.0,0.0,0.0,0.0,-0.6351,-0.6737,-0.7017,-0.7219,-0.7428,-0.7386,-0.7076,0.0,0.0,0.0,0.0,0.0,0.0,0.0,0.0,0.0,0.0,0.0,0.0,0.0,0.0,0.0,0.0,0.0,0.0,0.0,0.0,0.0,0.0,0.0,0.0,0.0,0.0,0.0,0.0,0.0,0.0,0.0,0.0,0.0,0.0,0.0,0.0,0.0,0.0,0.0,0.0,0.0,0.0,0.0,0.0,0.0,0.0,0.0,0.0,-1.8177,0.0,0.0,0.0,0.0,0.0,0.0,0.0,0.0,0.0,0.0,0.0,0.0,0.0,0.0,0.0,0.0,0.0,0.0,0.0,0.0,0.0,0.0,0.0,0.0,0.0,0.0,0.0,0.0,0.0,0.0,0.0,0.0,0.0,0.0,0.0,0.0,0.0,0.0,0.0,0.0,0.0,0.0,0.0,0.0,0.0,0.0,0.0,0.0,0.0,0.0,0.0,0.0,0.0,0.0,0.0,0.0,0.0,0.0,0.0,-0.6347,-0.6692,-0.6791,-0.6902,-0.7044,-0.6898,-0.6726,0.0,0.0,0.0,0.0,0.0,0.0,0.0,0.0,0.0,0.0,0.0,0.0,0.0,0.0,0.0,0.0,0.0,0.0,0.0,0.0,0.0,0.0,0.0,0.0,0.0,0.0,0.0,0.0,0.0,0.0,0.0,0.0,0.0,0.0,0.0,0.0,0.0,0.0,0.0,0.0,0.0,0.0,0.0,0.0,0.0,0.0,0.0,0.0,0.0,0.0,0.0,0.0,0.0,0.0,0.0,0.0,0.0,0.0,0.0,0.0,0.0,0.0,0.0,0.0,0.0,0.0,0.0,0.0,0.0,0.0,0.0,0.0,0.0,0.0,0.0,0.0,0.0,0.0,0.0,0.0,0.0,0.0,0.0,0.0,0.0,0.0,0.0,0.0,0.0,0.0,0.0,0.0,0.0,0.0,0.0,0.0,0.0,0.0,0.0,0.0,0.0,0.0,0.0,0.0,0.0,0.0,0.0,-0.5895,-0.627,-0.6773,-0.6552,-0.6542,-0.6808,-0.6573,-0.6424,-0.6412,0.0,0.0,0.0,0.0,0.0,0.0,0.0,0.0,0.0,0.0,0.0,0.0,0.0,0.0,0.0,0.0,0.0,0.0,0.0,0.0,0.0,0.0,0.0,0.0,0.0,0.0,0.0,0.0,0.0,0.0,0.0,0.0,0.0,0.0,0.0,0.0,0.0,0.0,-1.7273,-1.9786,0.0,0.0,0.0,0.0,0.0,0.0,0.0,0.0,-2.3081,0.0,0.0,0.0,0.0,0.0,0.0,0.0,0.0,0.0,0.0,0.0,0.0,0.0,0.0,0.0,0.0,0.0,0.0,0.0,0.0,0.0,0.0,0.0,0.0,0.0,0.0,0.0,0.0,0.0,0.0,0.0,0.0,0.0,0.0,0.0,0.0,0.0,0.0,0.0,0.0,0.0,0.0,0.0,0.0,0.0,0.0,0.0,0.0,0.0,0.0,0.0,0.0,0.0,0.0,0.0,0.0,-0.523,-0.5971,-0.6392,-0.6482,-0.6416,-0.6437,-0.6469,-0.6542,-0.6514,-0.6396,0.0,0.0,0.0,0.0,0.0,0.0,0.0,0.0,0.0,0.0,0.0,0.0,0.0,0.0,0.0,0.0,0.0,0.0,0.0,0.0,0.0,0.0,0.0,0.0,0.0,0.0,0.0,0.0,0.0,0.0,0.0,0.0,0.0,0.0,0.0,0.0,0.0,0.0,0.0,-2.2099,-2.368,0.0,0.0,0.0,0.0,0.0,0.0,0.0,0.0,-2.4299,0.0,0.0,0.0,0.0,0.0,0.0,0.0,0.0,0.0,0.0,0.0,0.0,0.0,0.0,0.0,0.0,0.0,0.0,0.0,0.0,0.0,0.0,0.0,0.0,0.0,0.0,0.0,0.0,0.0,0.0,0.0,0.0,0.0,0.0,0.0,0.0,0.0,0.0,0.0,0.0,0.0,0.0,0.0,0.0,0.0,0.0,0.0,0.0,0.0,0.0,0.0,0.0,0.0,0.0,0.0,-0.5383,-0.6044,-0.642,-0.642,-0.642,-0.6441,-0.6503,-0.66,-0.6696,0.0,0.0,0.0,0.0,0.0,0.0,0.0,0.0,0.0,0.0,0.0,0.0,0.0,0.0,0.0,0.0,0.0,0.0,0.0,0.0,0.0,0.0,0.0,0.0,0.0,0.0,0.0,0.0,0.0,0.0,0.0,0.0,0.0,0.0,0.0,0.0,0.0,0.0,0.0,0.0,-2.2823,-2.4252,-2.5541,0.0,0.0,0.0,0.0,0.0,0.0,-2.6501,-2.6076,0.0,0.0,0.0,0.0,0.0,0.0,0.0,0.0,0.0,0.0,0.0,0.0,0.0,0.0,0.0,0.0,0.0,0.0,0.0,0.0,0.0,0.0,0.0,0.0,0.0,0.0,0.0,0.0,0.0,0.0,0.0,0.0,0.0,0.0,0.0,0.0,0.0,0.0,0.0,0.0,0.0,0.0,0.0,0.0,0.0,0.0,0.0,0.0,0.0,0.0,0.0,0.0,0.0,0.0,0.0,-0.5517,-0.6053,-0.6354,-0.6387,-0.6416,-0.6531,-0.6679,-0.6822,-0.6994,0.0,0.0,0.0,0.0,0.0,0.0,0.0,0.0,0.0,0.0,0.0,0.0,0.0,0.0,0.0,0.0,0.0,0.0,0.0,0.0,0.0,0.0,0.0,0.0,0.0,0.0,0.0,0.0,0.0,0.0,0.0,0.0,0.0,0.0,0.0,0.0,0.0,0.0,0.0,0.0,0.0,-2.4723,-2.6346,-2.678,0.0,0.0,0.0,0.0,-2.8061,-2.7819,0.0,0.0,0.0,0.0,0.0,0.0,0.0,0.0,0.0,0.0,0.0,0.0,0.0,0.0,0.0,0.0,0.0,0.0,0.0,0.0,0.0,0.0,0.0,0.0,0.0,0.0,0.0,0.0,0.0,0.0,0.0,0.0,0.0,0.0,0.0,0.0,0.0,0.0,0.0,0.0,0.0,0.0,0.0,0.0,0.0,0.0,0.0,0.0,0.0,0.0,0.0,0.0,0.0,0.0,0.0,0.0,-0.5156,-0.569,-0.6086,-0.6383,-0.6581,-0.678,-0.6958,-0.726,-0.7434,0.0,0.0,0.0,0.0,0.0,0.0,0.0,0.0,0.0,0.0,0.0,0.0,0.0,0.0,0.0,0.0,0.0,0.0,0.0,0.0,0.0,0.0,0.0,0.0,0.0,0.0,0.0,0.0,0.0,0.0,0.0,0.0,0.0,0.0,0.0,0.0,0.0,0.0,0.0,0.0,0.0,-2.5824,-2.6498,-2.6769,-2.7117,0.0,0.0,-2.788,-2.8296,-2.8525,0.0,0.0,0.0,0.0,0.0,0.0,0.0,0.0,0.0,0.0,0.0,0.0,0.0,0.0,0.0,0.0,0.0,0.0,0.0,0.0,0.0,0.0,0.0,0.0,0.0,0.0,0.0,0.0,0.0,0.0,0.0,0.0,0.0,0.0,0.0,0.0,0.0,0.0,0.0,0.0,0.0,0.0,0.0,0.0,0.0,0.0,0.0,0.0,0.0,0.0,0.0,0.0,0.0,0.0,0.0,-0.4592,-0.4827,-0.5743,-0.6216,-0.6255,-0.6882,-0.7228,-0.7275,-0.7653,-0.7813,0.0,0.0,0.0,0.0,0.0,0.0,0.0,0.0,0.0,0.0,0.0,0.0,0.0,0.0,0.0,0.0,0.0,0.0,0.0,0.0,0.0,0.0,0.0,0.0,0.0,0.0,0.0,0.0,0.0,0.0,0.0,0.0,0.0,0.0,0.0,0.0,0.0,0.0,0.0,0.0,0.0,0.0,-2.5533,-2.6387,0.0,0.0,0.0,-2.8315,-2.7975,0.0,0.0,0.0,0.0,0.0,0.0,0.0,0.0,0.0,0.0,0.0,0.0,0.0,0.0,0.0,0.0,0.0,0.0,0.0,0.0,0.0,0.0,0.0,0.0,0.0,0.0,0.0,0.0,0.0,0.0,0.0,0.0,0.0,0.0,0.0,0.0,0.0,0.0,0.0,0.0,0.0,0.0,0.0,0.0,0.0,0.0,0.0,0.0,0.0,0.0,0.0,0.0,0.0,0.0,0.0,0.0,0.0,-0.4728,-0.5743,-0.6245,-0.6289,-0.7068,-0.7553,-0.7669,-0.8049,0.0,0.0,0.0,0.0,0.0,0.0,0.0,0.0,0.0,0.0,0.0,0.0,0.0,0.0,0.0,0.0,0.0,0.0,0.0,0.0,0.0,0.0,0.0,0.0,0.0,0.0,0.0,-1.1245,0.0,0.0,0.0,0.0,0.0,0.0,0.0,0.0,0.0,0.0,0.0,0.0,0.0,0.0,-2.3579,-2.506,-2.6154,-2.6871,0.0,0.0,-2.8156,-2.7458,-2.7919,-2.8131,0.0,0.0,0.0,0.0,0.0,0.0,0.0,0.0,0.0,0.0,0.0,0.0,0.0,0.0,0.0,0.0,0.0,0.0,0.0,0.0,0.0,0.0,0.0,0.0,0.0,0.0,0.0,0.0,0.0,0.0,0.0,0.0,0.0,0.0,0.0,0.0,0.0,0.0,0.0,0.0,0.0,0.0,0.0,0.0,0.0,0.0,0.0,0.0,0.0,0.0,0.0,0.0,0.0,0.0,-0.4054,-0.5027,-0.5474,-0.5993,-0.663,-0.7018,-0.7489,-0.8029,-0.8441,-0.8561,0.0,0.0,0.0,0.0,0.0,0.0,0.0,0.0,0.0,0.0,0.0,0.0,0.0,0.0,0.0,0.0,0.0,0.0,0.0,0.0,0.0,0.0,0.0,0.0,0.0,0.0,0.0,0.0,0.0,0.0,0.0,0.0,0.0,0.0,0.0,0.0,0.0,0.0,0.0,0.0,0.0,-2.4184,-2.5722,-2.6408,-2.6834,0.0,-2.7043,-2.6824,-2.6794,-2.6709,-2.6774,-2.7136,0.0,0.0,0.0,0.0,0.0,0.0,0.0,0.0,0.0,0.0,0.0,0.0,0.0,0.0,0.0,0.0,0.0,0.0,0.0,0.0,0.0,0.0,0.0,0.0,0.0,0.0,0.0,0.0,0.0,0.0,0.0,0.0,0.0,0.0,0.0,0.0,0.0,0.0,0.0,0.0,0.0,0.0,0.0,0.0,0.0,0.0,0.0,0.0,0.0,0.0,0.0,0.0,0.0,-0.4056,-0.4794,-0.5558,-0.6025,-0.618,-0.7215,-0.7851,-0.8098,-0.8743,-0.897,0.0,0.0,0.0,0.0,0.0,0.0,0.0,0.0,0.0,0.0,0.0,0.0,0.0,0.0,0.0,0.0,0.0,0.0,0.0,0.0,0.0,0.0,0.0,0.0,0.0,0.0,0.0,0.0,-1.3516,-1.4026,-1.4366,0.0,0.0,0.0,0.0,0.0,0.0,0.0,0.0,0.0,0.0,-2.2815,-2.3838,-2.4875,0.0,0.0,-2.6702,-2.7106,-2.6765,-2.6774,-2.6666,-2.6315,-2.5839,0.0,0.0,0.0,0.0,0.0,0.0,0.0,0.0,0.0,0.0,0.0,0.0,0.0,0.0,0.0,0.0,0.0,0.0,0.0,0.0,0.0,0.0,0.0,0.0,0.0,0.0,0.0,0.0,0.0,0.0,0.0,0.0,0.0,0.0,0.0,0.0,0.0,0.0,0.0,0.0,0.0,0.0,0.0,0.0,0.0,0.0,0.0,0.0,0.0,0.0,0.0,0.0,-0.4159,-0.4878,-0.5703,-0.6126,-0.6136,-0.7177,-0.788,-0.8193,-0.8817,-0.9094,0.0,0.0,0.0,0.0,0.0,0.0,0.0,0.0,0.0,0.0,0.0,0.0,0.0,0.0,0.0,0.0,0.0,0.0,0.0,0.0,0.0,0.0,0.0,0.0,0.0,0.0,0.0,0.0,-1.3765,-1.4257,-1.486,0.0,0.0,0.0,0.0,0.0,0.0,0.0,0.0,0.0,0.0,-2.1993,-2.2757,-2.3811,-2.4642,-2.511,-2.6138,-2.6755,-2.6563,-2.6644,-2.6484,-2.5894,0.0,0.0,0.0,0.0,0.0,0.0,0.0,0.0,0.0,0.0,0.0,0.0,0.0,0.0,0.0,0.0,0.0,0.0,0.0,0.0,0.0,0.0,0.0,0.0,0.0,0.0,0.0,-0.0805,0.0,0.0,-0.1515,0.0,0.0,0.0,0.0,0.0,0.0,0.0,0.0,0.0,0.0,0.0,0.0,0.0,0.0,0.0,0.0,0.0,0.0,0.0,0.0,0.0,0.0,-0.4354,-0.544,-0.5838,-0.628,-0.6831,-0.6896,-0.7403,-0.8318,-0.8589,-0.8899,-0.9289,0.0,0.0,0.0,0.0,0.0,0.0,0.0,0.0,0.0,0.0,0.0,0.0,0.0,0.0,0.0,0.0,0.0,0.0,0.0,0.0,0.0,0.0,0.0,0.0,0.0,0.0,-1.4088,-1.3806,-1.385,0.0,0.0,0.0,0.0,0.0,0.0,0.0,0.0,0.0,-2.1294,-2.1703,-2.2215,-2.3122,-2.3498,-2.406,-2.5023,-2.5188,-2.5389,-2.594,-2.6046,-2.6014,0.0,0.0,0.0,0.0,0.0,0.0,0.0,0.0,0.0,0.0,0.0,0.0,0.0,0.0,0.0,0.0,0.0,0.0,0.0,0.0,0.0,0.0,0.0,0.0,0.0,0.0,0.0,-0.199,-0.1887,0.0,0.0,0.0,0.0,0.0,0.0,0.0,0.0,0.0,0.0,0.0,-0.4821,-0.5292,0.0,0.0,0.0,0.0,0.0,0.0,0.0,0.0,0.0,0.0,0.0,0.0,-0.4805,-0.526,-0.5966,-0.6379,-0.649,-0.6859,-0.7215,-0.7607,-0.8063,-0.8544,-0.9072,0.0,0.0,0.0,0.0,0.0,0.0,0.0,0.0,0.0,0.0,0.0,0.0,0.0,0.0,0.0,0.0,0.0,0.0,0.0,0.0,0.0,0.0,0.0,0.0,0.0,-1.3983,0.0,0.0,0.0,0.0,0.0,0.0,0.0,0.0,0.0,0.0,-1.9577,-2.0548,-2.0368,-2.1146,-2.1717,-2.1887,-2.2655,-2.3431,0.0,0.0,0.0,0.0,0.0,0.0,0.0,0.0,0.0,0.0,0.0,0.0,0.0,-2.7439,-2.7414,-2.6946,-2.7371,-2.7829,-2.8006,0.0,0.0,0.0,0.0,0.0,0.0,0.0,0.0,0.0,0.0,0.0,0.0,0.0,0.0,-0.2886,-0.2619,-0.2488,0.0,0.0,0.0,0.0,0.0,0.0,0.0,0.0,-0.4165,-0.456,-0.4715,-0.5147,-0.5135,-0.4706,-0.4558,-0.4145,0.0,0.0,0.0,0.0,0.0,0.0,0.0,0.0,-0.4973,-0.541,-0.6043,-0.6374,-0.6457,-0.6756,-0.7019,-0.7188,-0.7932,-0.8565,-0.9084,-0.9119,-0.91,0.0,0.0,0.0,0.0,0.0,0.0,0.0,0.0,0.0,0.0,0.0,0.0,0.0,0.0,0.0,0.0,0.0,0.0,0.0,0.0,0.0,0.0,0.0,-1.4104,0.0,0.0,0.0,0.0,0.0,0.0,0.0,0.0,0.0,-1.7935,-1.9412,-2.0397,-2.0153,-2.081,-2.135,-2.1517,0.0,0.0,0.0,0.0,0.0,0.0,0.0,-2.5657,-2.5141,-2.5758,-2.6414,-2.6679,-2.7474,-2.8115,-2.8288,0.0,0.0,-2.7346,-2.7666,-2.8078,-2.7966,-2.8369,-2.8523,-2.8061,-2.8164,-2.8104,0.0,0.0,0.0,0.0,-0.3788,0.0,0.0,0.0,-0.3981,-0.376,0.0,-0.2409,0.0,0.0,0.0,0.0,-0.2102,-0.3224,0.0,0.0,-0.3604,-0.4028,-0.4293,-0.434,-0.4474,-0.4694,-0.4688,-0.4289,-0.3614,-0.2947,0.0,0.0,0.0,0.0,0.0,0.0,-0.4873,-0.5907,-0.6044,-0.6285,-0.6609,-0.6589,-0.6782,-0.7169,-0.8095,-0.8795,-0.9159,-0.9572,-0.9569,-0.9061,-0.9376,0.0,0.0,0.0,0.0,0.0,0.0,0.0,0.0,0.0,0.0,0.0,0.0,0.0,0.0,0.0,0.0,0.0,0.0,0.0,0.0,-1.3814,0.0,0.0,0.0,0.0,0.0,0.0,0.0,0.0,0.0,-1.7913,-1.8731,-1.9178,-1.9658,-2.0522,0.0,0.0,0.0,0.0,-2.2588,-2.3754,-2.4212,-2.4696,-2.5584,-2.6099,-2.6193,-2.5811,0.0,0.0,-2.7498,-2.7833,-2.8154,-2.8869,-2.9148,-2.9232,-2.8369,-2.8203,-2.8291,-2.8315,-2.8286,-2.8281,-2.8335,-2.8469,-2.8433,-0.3475,0.0,0.0,0.0,0.0,-0.4666,-0.4572,-0.456,-0.4205,-0.3841,-0.3468,-0.2747,0.0,0.0,0.0,0.0,0.0,0.0,-0.3221,-0.3295,-0.372,-0.3939,-0.4028,-0.4429,-0.4605,-0.4694,-0.4295,-0.4028,-0.3805,-0.3396,-0.3111,-0.2956,0.0,0.0,0.0,0.0,-0.5231,-0.5251,-0.5631,-0.5803,-0.5837,-0.581,-0.6099,-0.6735,-0.7219,-0.7814,-0.8539,-0.903,-0.9327,-0.9456,-0.9692,0.0,0.0,0.0,0.0,0.0,0.0,0.0,0.0,0.0,0.0,0.0,0.0,0.0,0.0,0.0,0.0,0.0,0.0,0.0,-1.3809,-1.3814,-1.4007,0.0,0.0,0.0,0.0,0.0,0.0,0.0,0.0,0.0,-1.84,-1.9312,-1.9794,0.0,0.0,-2.1597,-2.1438,-2.2228,-2.2917,-2.3299,-2.3853,0.0,-2.4849,-2.5182,-2.5318,-2.5001,-2.5258,-2.5719,-2.625,-2.6406,-2.6575,-2.6979,-2.7073,-2.7129,-2.7267,-2.8037,-2.8534,-2.8379,-2.8301,-2.8301,-2.8301,-2.8344,-2.8368,-0.2601,-0.3264,-0.3714,-0.403,-0.4197,-0.394,-0.3806,-0.3739,-0.3208,-0.3005,-0.2981,-0.2203,-0.1842,-0.1892,-0.1929,0.0,0.0,0.0,-0.281,-0.2772,-0.3087,-0.327,-0.3405,-0.376,-0.3985,-0.3985,-0.3674,-0.36,-0.3673,-0.3584,-0.3531,-0.3562,0.0,-0.4253,-0.4074,-0.4761,-0.5131,-0.5164,-0.5357,-0.5529,-0.5677,-0.5587,-0.5848,-0.6576,-0.6954,-0.7447,-0.8217,-0.8992,-0.9498,-0.9831,-1.0125,-1.037,0.0,0.0,0.0,0.0,0.0,0.0,0.0,0.0,0.0,0.0,0.0,-1.2842,-1.307,0.0,0.0,0.0,-1.4011,-1.4337,-1.4582,-1.4325,0.0,0.0,0.0,0.0,0.0,0.0,0.0,-1.7508,-1.7682,-1.793,-1.8269,-1.9027,-1.9611,-1.9554,-2.0598,-2.1462,-2.1796,0.0,-2.2993,-2.3242,-2.3715,-2.4233,-2.4523,-2.4823,-2.4967,-2.4814,-2.4799,-2.5084,-2.5724,-2.5783,-2.5843,-2.628,-2.6344,-2.6317,-2.65,-2.7178,-2.7682,-2.7623,-2.7595,-2.7666,-2.7901,-2.8014,-2.8121,-0.1234,-0.1949,-0.2601,-0.2721,-0.2491,-0.241,-0.2147,-0.1865,-0.1585,-0.1638,-0.1919,-0.1111,-0.0964,-0.1343,-0.1806,0.0,-0.1345,-0.2085,-0.2211,-0.1827,-0.2088,-0.2289,-0.2515,-0.2784,-0.292,-0.292,-0.2879,-0.309,-0.3421,-0.362,-0.3892,-0.4199,-0.4254,-0.4342,-0.4559,-0.4481,-0.4765,-0.5402,-0.5201,-0.5313,-0.5789,-0.5673,-0.5918,-0.6549,-0.7068,-0.7617,-0.822,-0.9316,-1.0027,-1.0236,-1.0664,-1.0915,-1.0891,0.0,0.0,0.0,0.0,0.0,0.0,0.0,0.0,0.0,0.0,0.0,0.0,0.0,0.0,-1.3736,-1.4445,0.0,-1.555,-1.4966,0.0,0.0,0.0,-1.5176,-1.5471,-1.6734,-1.7621,-1.7851,0.0,0.0,-1.8354,-1.8565,-1.9181,-2.0517,-2.048,-2.0934,-2.2592,-2.279,-2.2959,-2.3465,-2.3864,-2.4273,-2.4591,-2.4822,-2.4958,-2.4905,-2.473,-2.4811,-2.556,-2.5537,-2.5692,-2.6394,-2.6342,-2.6056,-2.6065,-2.5854,-2.5754,-2.6343,-2.652,-2.6727,-2.7236,-2.7574,-2.7824,-0.0557,-0.1096,-0.1421,-0.162,-0.1764,-0.1905,-0.1791,-0.1542,-0.1666,-0.1761,-0.1823,-0.1252,-0.092,-0.0799,-0.1068,-0.1221,-0.1305,-0.1508,-0.1627,-0.174,-0.2044,-0.2289,-0.2515,-0.2785,-0.292,-0.2877,-0.2964,-0.3129,-0.3427,-0.3718,-0.4021,-0.4285,-0.4542,-0.4572,-0.4477,-0.4652,-0.4735,-0.4666,-0.4806,-0.4917,-0.5096,-0.5304,-0.5701,-0.6213,-0.7045,-0.7771,-0.8429,-0.9518,-1.023,-1.0437,-1.0869,-1.1052,-1.0905,-1.099,0.0,0.0,0.0,0.0,0.0,0.0,0.0,0.0,0.0,-1.3177,-1.3073,0.0,-1.3244,0.0,-1.3538,-1.3844,-1.3849,-1.3804,0.0,0.0,-1.4866,-1.5411,-1.655,-1.7235,-1.7832,-1.839,-1.8764,-1.8891,-1.8891,-1.8939,-1.9333,-2.0142,-2.1078,-2.1607,-2.1572,-2.3087,-2.398,-2.3581,-2.3996,-2.4476,-2.4479,-2.4412,-2.4325,-2.436,-2.4023,-2.3938,-2.4488,-2.4246,-2.4151,-2.4603,-2.4457,-2.4293,-2.4597,-2.4721,-2.4795,-2.4996,-2.5616,-2.6318,-2.6727,-2.7152,-2.7444,0.0158,-0.016,-0.0164,-0.0208,-0.0295,-0.0809,-0.0823,-0.0486,-0.0611,-0.0748,-0.0805,-0.0879,-0.0775,-0.0631,-0.0946,-0.1146,-0.1324,-0.1353,-0.1555,-0.194,-0.2142,-0.2379,-0.2694,-0.283,-0.2887,-0.2958,-0.3082,-0.3312,-0.361,-0.3928,-0.4232,-0.4514,-0.471,-0.4792,-0.4707,-0.4795,-0.4726,-0.4635,-0.4869,-0.5011,-0.5055,-0.5368,-0.5702,-0.6116,-0.6797,-0.7419,-0.7869,-0.9151,-0.9768,-0.9636,-1.04,-1.0645,-1.0284,-1.0474,-1.0581,0.0,0.0,0.0,0.0,0.0,0.0,0.0,0.0,0.0,0.0,0.0,-1.3154,-1.3269,-1.3634,-1.3905,-1.4042,-1.384,-1.4026,-1.472,-1.4848,-1.5378,-1.6706,-1.7382,-1.8088,-1.8792,-1.8988,-1.9136,-1.9136,-1.9136,-1.92,-1.9635,-2.0652,-2.1367,-2.1189,-2.2207,-2.2812,-2.2482,-2.2781,-2.3135,-2.3307,-2.3215,-2.3211,-2.3543,-2.3352,-2.3189,-2.3411,-2.3357,-2.3257,-2.3242,-2.3263,-2.3363,-2.3604,-2.3883,-2.4097,-2.4267,-2.4773,-2.5467,-2.6054,-2.6445,-2.6553,0.0942,0.0828,0.0988,0.1159,0.1259,0.0457,0.0341,0.0783,0.074,0.0571,0.0267,-0.0343,-0.059,-0.0673,-0.1111,-0.1322,-0.1312,-0.1422,-0.1714,-0.2198,-0.2244,-0.247,-0.2875,-0.2882,-0.2956,-0.3003,-0.33,-0.3553,-0.3905,-0.4172,-0.4459,-0.4768,-0.478,-0.4889,-0.5099,-0.4865,-0.4776,-0.4871,-0.5111,-0.5251,-0.5301,-0.5616,-0.5894,-0.6086,-0.6558,-0.6938,-0.7193,-0.8571,-0.9107,-0.8687,-0.9686,-1.0062,-0.9552,-0.9713,-0.9899,0.0,-1.0523,0.0,0.0,0.0,0.0,0.0,0.0,0.0,0.0,-1.2658,-1.3195,-1.3651,-1.3957,-1.4304,-1.4709,-1.4244,-1.4134,-1.4628,-1.4847,-1.5368,-1.6408,-1.7383,-1.8296,-1.9014,-1.9136,-1.9136,-1.9136,-1.9136,-1.9136,-1.92,-1.989,-2.0491,-2.0748,-2.1067,-2.1334,-2.1055,-2.1271,-2.1883,-2.197,-2.1937,-2.2207,-2.2878,-2.2716,-2.2496,-2.2564,-2.2709,-2.264,-2.2257,-2.2469,-2.2755,-2.2901,-2.3207,-2.3545,-2.3954,-2.4329,-2.4757,-2.5412,-2.5734,-2.5719,0.1767,0.1849,0.1417,0.1375,0.1509,0.12,0.1108,0.126,0.087,0.0393,-0.0175,-0.0469,-0.0716,-0.0967,-0.1193,-0.1332,-0.1382,-0.1561,-0.1846,-0.22,-0.2379,-0.2604,-0.2877,-0.2967,-0.2993,-0.3011,-0.3346,-0.3625,-0.3837,-0.4203,-0.4489,-0.4736,-0.475,-0.4889,-0.5101,0.0,0.0,0.0,-0.4774,-0.4918,-0.516,-0.5706,-0.6039,-0.6133,-0.6744,0.0,-0.7424,-0.8346,-0.8939,-0.9226,-0.9548,0.0,0.0,0.0,0.0,0.0,0.0,0.0,0.0,0.0,0.0,0.0,-1.0961,-1.1212,-1.1343,-1.1666,-1.2075,-1.2582,-1.2896,-1.3099,-1.3088,-1.3353,-1.3521,-1.3687,-1.466,-1.5634,-1.6408,-1.7389,-1.8296,-1.9008,-1.9072,-1.9072,-1.9136,-1.9136,-1.9136,-1.9136,-1.9264,-1.9367,-1.9509,-2.081,-2.17,-2.1567,-2.176,-2.2181,-2.2151,-2.1992,-2.204,-2.2562,-2.2268,-2.2031,-2.2179,-2.206,-2.1976,-2.178,-2.1645,-2.1809,-2.2441,-2.2877,-2.3392,-2.4136,-2.4543,-2.4765,-2.4932,-2.5366,-2.5627,0.2141,0.2167,0.1733,0.1558,0.0,0.1438,0.1459,0.16,0.0992,0.0348,-0.0305,-0.043,-0.0638,-0.1011,-0.1095,-0.1235,-0.1391,-0.1625,-0.1909,-0.2199,-0.2424,-0.2663,-0.2961,-0.299,-0.3036,-0.3049,-0.3497,-0.3777,-0.3927,-0.4346,-0.4514,-0.4377,-0.4366,-0.4362,-0.4375,-0.4262,-0.4512,-0.5118,-0.4866,-0.5014,-0.5511,-0.6054,-0.635,-0.635,-0.6752,0.0,0.0,0.0,0.0,0.0,0.0,0.0,0.0,-0.8926,0.0,-0.953,-1.01,-1.0292,-1.0014,-1.0051,-0.9807,-0.934,-0.991,-1.0692,-1.1455,-1.2291,-1.2913,-1.3285,-1.396,-1.4092,-1.3553,-1.3887,-1.401,-1.3752,-1.4403,-1.5248,-1.6089,-1.6678,-1.7459,-1.8361,-1.8553,-1.8682,-1.9072,-1.9136,-1.9136,-1.9136,-1.9136,-1.9072,-1.92,-1.996,-2.0446,-2.011,-2.0502,-2.0839,-2.0639,-2.0813,-2.1229,-2.1697,-2.1632,-2.1446,-2.1432,-2.159,-2.1555,-2.1177,-2.1176,-2.1588,-2.1987,-2.2659,-2.34,-2.3865,-2.4432,-2.4765,-2.4821,-2.5043,-2.5133,0.2296,0.2277,0.2035,0.1887,0.179,0.1769,0.1856,0.1967,0.1277,0.0,0.0,0.0,-0.0343,-0.0848,-0.0863,-0.1046,-0.1399,-0.1736,-0.193,-0.2019,-0.2252,-0.2458,-0.2681,-0.2654,-0.271,-0.2843,-0.3296,-0.3567,-0.3662,-0.4175,-0.4225,-0.3815,-0.3825,-0.3781,-0.3578,-0.3337,-0.3997,-0.5461,-0.5058,-0.517,-0.5951,-0.6395,-0.6654,-0.6651,-0.6749,-0.6748,-0.6643,-0.7557,-0.7725,-0.709,-0.7696,-0.7867,-0.7385,-0.7709,-0.805,-0.853,-0.9565,-0.9831,-0.9207,-0.941,-0.9182,-0.8328,-0.9349,-1.0513,-1.1778,-1.3114,-1.4071,-1.453,-1.5564,-1.5819,-1.4917,-1.5047,-1.4912,-1.4268,-1.4464,-1.5057,-1.5909,-1.6099,-1.6678,-1.7582,-1.784,-1.8033,-1.8553,-1.8688,-1.8746,-1.8688,-1.8623,-1.8816,-1.888,-1.9072,-1.9169,-1.8896,-1.9337,-1.948,-1.9306,-1.9757,-2.0247,-2.0949,-2.0994,-2.0849,-2.0767,-2.1038,-2.1028,-2.051,-2.0931,-2.1319,-2.1611,-2.2498,-2.336,-2.3528,-2.4209,-2.4821,-2.4821,-2.4821,-2.4727,0.2462,0.2631,0.2661,0.2578,0.2518,0.2946,0.2875,0.2467,0.2148,0.1774,0.1394,0.1182,0.0639,-0.0173,-0.0304,-0.079,-0.1429,-0.1927,-0.184,-0.1302,-0.1645,-0.1661,-0.139,-0.139,-0.1513,-0.172,-0.2094,-0.2244,-0.227,-0.2802,-0.3003,-0.2917,-0.3153,-0.338,-0.3583,-0.3379,-0.397,-0.5357,-0.4895,-0.5091,-0.5963,-0.6506,-0.6777,-0.6777,-0.6796,-0.6537,-0.6061,-0.6524,-0.6624,-0.63,-0.672,-0.7006,-0.7238,-0.7313,-0.7377,-0.761,-0.8055,-0.8166,-0.7913,-0.833,-0.8632,-0.8715,-0.9815,-1.0799,-1.1221,-1.2853,-1.4259,-1.5163,-1.6263,-1.6786,-1.6656,-1.6403,-1.5954,-1.5308,-1.5513,-1.5839,-1.5974,-1.6423,-1.6807,-1.7066,-1.713,-1.7195,-1.7394,-1.7389,-1.7389,-1.7324,-1.7523,-1.7523,-1.8103,-1.8682,-1.9073,-1.9174,-1.9613,-1.9947,-1.997,-2.0321,-2.0615,-2.0731,-2.0598,-2.0449,-2.0369,-2.0469,-2.0467,-2.0305,-2.0465,-2.0835,-2.1412,-2.2135,-2.2877,-2.3576,-2.4256,-2.4765,-2.4765,-2.4821,-2.4795,0.3409,0.3165,0.3439,0.3422,0.317,0.3319,0.3292,0.3092,0.3134,0.2576,0.1725,0.1575,0.1161,0.0565,0.0088,-0.0222,-0.0448,-0.1256,-0.1264,-0.073,-0.1013,-0.117,-0.1099,-0.112,-0.1233,-0.1545,-0.1858,-0.2058,-0.2194,-0.2613,-0.2712,-0.2542,-0.2412,-0.2484,-0.2764,-0.2839,-0.3452,-0.4579,-0.4646,-0.5219,-0.6378,-0.676,-0.6738,-0.6419,-0.647,-0.6342,-0.5852,-0.6222,-0.6413,-0.6411,-0.646,-0.6543,-0.671,-0.6768,-0.6938,-0.7163,-0.7745,-0.7869,-0.7391,-0.7316,-0.7595,-0.8453,-0.9549,-1.0606,-1.134,-1.3626,-1.5554,-1.6711,-1.7941,-1.8466,-1.7882,-1.7501,-1.6791,-1.5504,-1.5443,-1.5388,-1.5388,-1.5649,-1.5969,-1.6353,-1.6488,-1.6618,-1.6936,-1.7001,-1.7001,-1.7001,-1.7001,-1.713,-1.7459,-1.791,-1.8471,-1.913,-1.9852,-2.0269,-2.025,-2.0634,-2.0895,-2.0909,-2.0802,-2.0648,-2.0528,-2.0474,-2.0402,-2.031,-2.0385,-2.0665,-2.1118,-2.1744,-2.249,-2.3239,-2.3913,-2.4368,-2.4654,-2.4821,-2.4821,0.4407,0.3763,0.4284,0.4327,0.3963,0.3748,0.3711,0.3732,0.3857,0.3301,0.2329,0.2156,0.1828,0.1358,0.0712,0.0404,0.0269,-0.0496,-0.0547,-0.0092,-0.0327,-0.0525,-0.0637,-0.069,-0.0896,-0.1209,-0.1463,-0.1716,-0.1968,-0.2221,-0.2321,-0.2171,-0.1826,-0.1792,-0.2074,-0.2405,-0.3033,-0.3926,-0.4435,-0.527,-0.6455,-0.6596,-0.6424,-0.5989,-0.6111,-0.5986,-0.5654,-0.5984,-0.6212,-0.6267,-0.6154,-0.6098,-0.6102,-0.6174,-0.6398,-0.6657,-0.7269,-0.7428,-0.6951,-0.6545,-0.6954,-0.8323,-0.934,-1.0496,-1.1839,-1.4141,-1.6203,-1.7555,-1.8978,-1.9565,-1.8856,-1.8273,-1.7367,-1.5959,-1.5253,-1.4931,-1.4936,-1.487,-1.5062,-1.5649,-1.5779,-1.5969,-1.6359,-1.6553,-1.6488,-1.6418,-1.6553,-1.6618,-1.6812,-1.7141,-1.782,-1.8879,-1.9834,-2.0397,-2.0384,-2.076,-2.1069,-2.1102,-2.1082,-2.0969,-2.0808,-2.079,-2.0726,-2.0626,-2.0663,-2.0854,-2.0867,-2.1539,-2.2222,-2.2788,-2.3408,-2.4136,-2.4646,-2.4821,-2.4821,0.4973,0.4665,0.5092,0.528,0.5139,0.4651,0.4411,0.4342,0.4061,0.3958,0.3847,0.3516,0.2941,0.2363,0.1836,0.1166,0.0449,0.0046,0.0185,0.0604,0.048,0.0489,0.0541,0.06,0.0353,0.0,0.0,-0.0454,-0.0707,-0.0959,-0.1263,-0.162,-0.1695,-0.1814,-0.2135,-0.241,-0.3051,-0.399,-0.4319,-0.4849,-0.5458,-0.5522,-0.5528,-0.547,-0.5704,-0.5599,-0.5041,-0.5543,-0.5599,-0.5154,-0.538,-0.5493,-0.5495,-0.5504,-0.5541,-0.5675,-0.5758,-0.5921,-0.6404,-0.6383,-0.7096,-0.8585,-0.9487,-1.0657,-1.2237,-1.3696,-1.5113,-1.6522,-1.8402,-1.9514,-1.945,-1.8594,-1.7695,-1.6807,-1.5644,-1.487,-1.488,-1.487,-1.4931,-1.5001,-1.5076,-1.5062,-1.5192,-1.5257,-1.5197,-1.5352,-1.5427,-1.5688,-1.6405,-1.6785,-1.7411,-1.8402,-1.9258,-2.0011,-2.067,-2.1019,-2.1102,-2.1102,-2.1102,-2.1069,-2.0989,-2.0995,-2.1033,-2.0986,-2.1078,-2.1117,-2.1212,-2.166,-2.2059,-2.2392,-2.307,-2.4024,-2.4599,-2.4765,-2.4765,0.5697,0.5188,0.5636,0.5586,0.5249,0.4782,0.4498,0.4344,0.4062,0.4053,0.4128,0.3741,0.3425,0.3093,0.2198,0.166,0.1438,0.0916,0.0838,0.118,0.1018,0.0889,0.0799,0.0604,0.0353,0.0,0.0,-0.0202,-0.0657,-0.1061,-0.1422,-0.1643,-0.1657,-0.1941,-0.2354,-0.2498,-0.2967,-0.3717,-0.391,-0.4089,-0.4367,-0.5037,-0.5204,-0.4925,-0.515,-0.5094,-0.476,-0.5094,-0.521,-0.5212,-0.5326,-0.5406,-0.5453,-0.5455,-0.5494,-0.5582,-0.5641,-0.5883,-0.6412,-0.6623,-0.7324,-0.8761,-0.9282,-1.0171,-1.1388,-1.232,-1.3144,-1.3979,-1.6904,-1.9054,-1.9112,-1.853,-1.7759,-1.7001,-1.5709,-1.4913,-1.5096,-1.4941,-1.4903,-1.5007,-1.4941,-1.487,-1.487,-1.487,-1.4922,-1.5068,-1.5111,-1.5361,-1.6034,-1.6374,-1.6961,-1.7751,-1.8355,-1.9124,-2.0272,-2.0912,-2.1039,-2.1102,-2.1102,-2.1102,-2.1132,-2.1112,-2.1115,-2.119,-2.1194,-2.1248,-2.1212,-2.139,-2.166,-2.2051,-2.2675,-2.3576,-2.4144,-2.4256,-2.4368,0.634,0.5764,0.5908,0.5701,0.519,0.4853,0.4587,0.4359,0.4132,0.4096,0.4204,0.373,0.356,0.3454,0.2557,0.216,0.2132,0.1665,0.1463,0.1492,0.1324,0.1047,0.0808,0.0505,0.0252,0.005,0.0,-0.0404,-0.091,-0.1372,-0.1641,-0.1713,-0.1783,-0.2082,-0.2565,-0.2691,-0.3046,-0.3527,-0.3587,-0.3587,-0.3755,-0.4536,-0.4815,-0.4426,-0.465,-0.465,-0.437,-0.465,-0.4828,-0.4908,-0.491,-0.5002,-0.5251,-0.5259,-0.5412,-0.5617,-0.5827,-0.6178,-0.6567,-0.6907,-0.7614,-0.8822,-0.9202,-0.9728,-1.0587,-1.1178,-1.1501,-1.189,-1.4623,-1.6635,-1.7753,-1.7361,-1.6807,-1.6296,-1.5274,-1.4634,-1.4736,-1.4874,-1.5073,-1.5191,-1.4983,-1.4894,-1.4936,-1.4965,-1.5092,-1.5276,-1.5338,-1.55,-1.5894,-1.6186,-1.6671,-1.7287,-1.7762,-1.8688,-1.9845,-2.0462,-2.0786,-2.1046,-2.1102,-2.1102,-2.1215,-2.1223,-2.1327,-2.1512,-2.1377,-2.132,-2.1394,-2.1407,-2.1375,-2.1938,-2.2449,-2.2958,-2.3528,-2.3632,-2.3913,0.6779,0.6296,0.5908,0.5535,0.5165,0.5029,0.4812,0.4561,0.4186,0.4135,0.4278,0.3644,0.3427,0.3554,0.3019,0.2589,0.222,0.2124,0.1876,0.1568,0.1299,0.106,0.0758,0.0505,0.0252,0.0,-0.0252,-0.0657,-0.1165,-0.1542,-0.1712,-0.1719,-0.1984,-0.2291,-0.2579,-0.2888,-0.3246,-0.3586,-0.3587,-0.3587,-0.3587,-0.3868,-0.4038,-0.3986,-0.4314,-0.437,-0.4095,-0.4314,-0.4289,-0.373,-0.3789,-0.4048,-0.4633,-0.4764,-0.5036,-0.565,-0.6102,-0.6464,-0.6803,-0.7249,-0.8048,-0.9003,-0.9315,-0.9764,-1.0296,-1.0449,-1.0651,-1.1104,-1.1354,-1.2586,-1.4543,-1.4744,-1.4678,-1.4716,-1.4219,-1.3903,-1.3921,-1.4706,-1.5095,-1.5139,-1.5007,-1.5049,-1.5191,-1.5219,-1.5319,-1.5509,-1.5716,-1.5867,-1.6195,-1.6434,-1.6718,-1.7103,-1.7831,-1.8764,-1.9838,-2.0208,-2.0502,-2.0654,-2.0751,-2.1059,-2.1386,-2.1638,-2.1726,-2.1814,-2.1589,-2.1494,-2.1591,-2.1597,-2.1563,-2.1774,-2.1938,-2.2392,-2.2901,-2.3014,-2.3296,0.639,0.5949,0.5641,0.5476,0.5417,0.4985,0.4818,0.4789,0.4256,0.4094,0.4139,0.3629,0.338,0.3452,0.2939,0.2511,0.2229,0.206,0.1854,0.1575,0.1152,0.0859,0.0758,0.0353,0.0101,-0.005,-0.0303,-0.0711,-0.1234,-0.1554,-0.1735,-0.1823,-0.2065,-0.2363,-0.2666,-0.2962,-0.325,-0.3587,-0.3587,-0.3421,-0.3085,-0.3307,-0.3379,-0.3185,-0.3831,-0.3944,-0.3531,-0.3757,-0.3845,-0.3675,-0.3677,-0.382,-0.4054,-0.4161,-0.4313,-0.4647,-0.5393,-0.6062,-0.6445,-0.7219,-0.7962,-0.8596,-0.8779,-0.873,-0.8687,-0.8653,-0.8542,-0.8319,-0.84,-0.9212,-1.0496,-1.1885,-1.2826,-1.2982,-1.345,-1.376,-1.3981,-1.4616,-1.5167,-1.5153,-1.5163,-1.521,-1.538,-1.5446,-1.5526,-1.5756,-1.5919,-1.6146,-1.6453,-1.6779,-1.7007,-1.7253,-1.7631,-1.8222,-1.9016,-1.9639,-1.9995,-1.9906,-2.0019,-2.0112,-2.0329,-2.0608,-2.0679,-2.1046,-2.115,-2.1275,-2.1213,-2.1329,-2.1313,-2.1484,-2.1648,-2.1881,-2.2335,-2.2392,-2.2732,0.6637,0.6493,0.6186,0.5972,0.5756,0.5314,0.503,0.4843,0.4245,0.4106,0.4085,0.3559,0.3309,0.3296,0.278,0.2437,0.2225,0.199,0.1774,0.1588,0.1055,0.0808,0.0707,0.0252,0.0,0.0,-0.0353,-0.0816,-0.1401,-0.162,-0.1754,-0.1965,-0.2198,-0.2496,-0.2855,-0.3083,-0.3362,-0.3531,-0.3421,-0.3139,-0.2862,-0.293,-0.2838,-0.2694,-0.3255,-0.3435,-0.3067,-0.3242,-0.3268,-0.3136,-0.3087,-0.3228,-0.3517,-0.3817,-0.3973,-0.4166,-0.4911,-0.5711,-0.6227,-0.6876,-0.748,-0.795,-0.7865,-0.7595,-0.7215,-0.7161,-0.6872,-0.6375,-0.6092,-0.6451,-0.7176,-0.8756,-1.0257,-1.1179,-1.2528,-1.3368,-1.3429,-1.4565,-1.5283,-1.5366,-1.5347,-1.5437,-1.5675,-1.5718,-1.5896,-1.6142,-1.6274,-1.6494,-1.6816,-1.7151,-1.7421,-1.7478,-1.7696,-1.8012,-1.8519,-1.8947,-1.9608,-1.9652,-1.9782,-1.9713,-1.9628,-1.977,-1.9971,-2.0325,-2.0555,-2.0746,-2.0928,-2.0985,-2.1075,-2.1249,-2.1319,-2.1489,-2.1717,-2.1774,-2.2165,0.7763,0.7993,0.7693,0.6979,0.6334,0.6024,0.548,0.4854,0.4237,0.4118,0.417,0.3483,0.326,0.3223,0.2679,0.2302,0.2253,0.2017,0.1739,0.1511,0.1011,0.081,0.076,0.0254,0.0,0.0,-0.0557,-0.1074,-0.1618,-0.1694,-0.1884,-0.2189,-0.2502,-0.2742,-0.3081,-0.3362,-0.3531,-0.3477,-0.3029,-0.2806,-0.3032,-0.2731,-0.2528,-0.2368,-0.2627,-0.2823,-0.277,-0.2768,-0.2551,-0.2108,-0.1992,-0.2249,-0.2959,-0.3502,-0.4036,-0.4297,-0.4795,-0.5599,-0.6387,-0.6463,-0.6712,-0.713,-0.6799,-0.661,-0.6545,-0.6421,-0.6111,-0.5426,-0.4813,-0.4493,-0.4827,-0.5898,-0.7312,-0.9326,-1.1456,-1.274,-1.299,-1.4527,-1.5855,-1.5699,-1.5597,-1.5722,-1.58,-1.5895,-1.612,-1.6477,-1.6758,-1.7034,-1.7327,-1.7544,-1.7693,-1.7771,-1.7927,-1.8152,-1.8249,-1.8309,-1.8942,-1.9505,-1.9716,-1.9772,-1.975,-1.9757,-1.9934,-2.0207,-2.023,-2.0441,-2.0813,-2.0897,-2.1026,-2.1168,-2.1177,-2.1197,-2.1325,-2.1489,-2.1603,0.8487,0.8176,0.7976,0.7699,0.7253,0.6533,0.6076,0.5735,0.4576,0.4019,0.3952,0.345,0.3191,0.313,0.2644,0.2349,0.235,0.1903,0.1558,0.1316,0.0972,0.0669,0.0464,0.0156,-0.0105,-0.0315,-0.0682,-0.1058,-0.1396,-0.1677,-0.1915,-0.2223,-0.2519,-0.2805,-0.3139,-0.3418,-0.3419,-0.2974,-0.2806,-0.2481,-0.1994,-0.2006,-0.1975,-0.178,-0.2031,-0.2165,-0.2248,-0.2229,-0.2113,-0.196,-0.1962,-0.2099,-0.2317,-0.2541,-0.2881,-0.3207,-0.4087,-0.477,-0.5368,-0.6024,-0.6406,-0.6614,-0.6506,-0.6225,-0.581,-0.5308,-0.4722,-0.411,-0.3406,-0.3273,-0.4541,-0.6056,-0.7222,-0.7798,-1.0822,-1.2922,-1.3057,-1.4731,-1.5845,-1.6013,-1.5994,-1.6023,-1.6084,-1.616,-1.6368,-1.6659,-1.7027,-1.7312,-1.7489,-1.776,-1.7981,-1.7997,-1.8196,-1.8358,-1.8455,-1.846,-1.8727,-1.9146,-1.9449,-1.9622,-1.9609,-1.9768,-1.9893,-1.9908,-1.994,-2.0191,-2.0576,-2.08,-2.0874,-2.1081,-2.1108,-2.1169,-2.1212,-2.1204,-2.1234,0.9456,0.9191,0.8965,0.8652,0.8193,0.7141,0.6522,0.6079,0.4636,0.3984,0.3883,0.343,0.318,0.3079,0.2624,0.2422,0.2371,0.1818,0.1471,0.1226,0.0929,0.0677,0.0419,0.0106,-0.0213,-0.0533,-0.08,-0.113,-0.1475,-0.1696,-0.1986,-0.2351,-0.2595,-0.2944,-0.3284,-0.3302,-0.3084,-0.2741,-0.2229,-0.178,-0.1449,-0.1343,-0.1301,-0.1324,-0.1456,-0.159,-0.1604,-0.159,-0.1712,-0.1973,-0.2223,-0.2306,-0.2095,-0.231,-0.2586,-0.2866,-0.3487,-0.4244,-0.4914,-0.5415,-0.5781,-0.5921,-0.5676,-0.5235,-0.4659,-0.4094,-0.3449,-0.2648,-0.2448,-0.2805,-0.4197,-0.6226,-0.7484,-0.8129,-1.1497,-1.3688,-1.4295,-1.5399,-1.6221,-1.6282,-1.6287,-1.6264,-1.6245,-1.6344,-1.6601,-1.6869,-1.7233,-1.7561,-1.78,-1.8085,-1.8143,-1.8229,-1.8315,-1.8492,-1.8697,-1.8665,-1.8552,-1.8827,-1.91,-1.9215,-1.9244,-1.9567,-1.9794,-1.9552,-1.9441,-1.9802,-2.022,-2.0259,-2.0347,-2.0643,-2.0903,-2.0733,-2.0628,-2.0652,-2.0708,1.0576,1.0844,1.0407,0.9725,0.8892,0.7862,0.6926,0.5979,0.4585,0.3984,0.3883,0.343,0.318,0.3079,0.2624,0.2422,0.2321,0.1819,0.1483,0.1242,0.0939,0.0631,0.0321,0.0108,-0.0269,-0.0753,-0.0859,-0.1189,-0.1647,-0.1757,-0.2043,-0.2468,-0.2503,-0.2928,-0.3046,-0.2916,-0.2579,-0.2284,-0.1468,-0.1058,-0.118,-0.0777,-0.0724,-0.0968,-0.1163,-0.1233,-0.1111,-0.111,-0.1358,-0.1917,-0.2481,-0.2516,-0.2311,-0.2649,-0.2872,-0.3168,-0.3273,-0.4158,-0.4906,-0.4973,-0.4911,-0.5384,-0.4687,-0.3709,-0.3709,-0.3242,-0.2639,-0.1962,-0.219,-0.2917,-0.4212,-0.6473,-0.8542,-1.0389,-1.3043,-1.5018,-1.6466,-1.6555,-1.6505,-1.6467,-1.6467,-1.6405,-1.623,-1.6377,-1.6749,-1.7136,-1.749,-1.7801,-1.8114,-1.8304,-1.8347,-1.8428,-1.8347,-1.8616,-1.881,-1.8616,-1.8546,-1.8866,-1.9089,-1.9151,-1.9174,-1.9419,-1.9549,-1.9265,-1.9182,-1.9495,-1.9757,-1.9857,-2.0015,-2.0303,-2.0306,-2.0166,-2.0174,-2.0254,-2.0294,1.1315,1.0922,1.0924,1.0495,0.9621,0.8405,0.7493,0.6637,0.4784,0.4034,0.3882,0.343,0.3281,0.318,0.2674,0.2422,0.2322,0.187,0.1492,0.1265,0.0953,0.0539,0.0165,0.0055,-0.0166,-0.0553,-0.0772,-0.1054,-0.1448,-0.1614,-0.1731,-0.1627,-0.1711,-0.1668,-0.1613,-0.1519,-0.1235,-0.106,-0.0766,-0.0593,-0.0659,-0.0602,-0.0668,-0.0982,-0.1662,-0.1666,-0.1112,-0.0988,-0.118,-0.1568,-0.2093,-0.225,-0.2157,-0.2379,-0.2859,-0.3475,-0.3889,-0.4502,-0.5377,-0.5381,-0.5247,-0.5314,-0.4741,-0.4147,-0.405,-0.3005,-0.2615,-0.2647,-0.3095,-0.4097,-0.6264,-0.8844,-1.1462,-1.4194,-1.463,-1.5289,-1.6578,-1.6849,-1.6665,-1.6519,-1.6486,-1.6386,-1.6316,-1.6529,-1.6841,-1.7267,-1.7576,-1.7934,-1.8285,-1.8433,-1.8433,-1.8433,-1.8476,-1.8637,-1.8728,-1.8519,-1.8589,-1.8952,-1.9222,-1.9357,-1.9362,-1.9444,-1.9382,-1.9215,-1.9148,-1.938,-1.9507,-1.9669,-1.9814,-1.9938,-2.0103,-2.0103,-2.0077,-2.0127,-2.0099,1.1631,1.1038,1.1143,1.0835,1.0069,0.8632,0.768,0.6836,0.4983,0.4234,0.4284,0.393,0.3882,0.4081,0.3428,0.3025,0.2826,0.2137,0.1712,0.1436,0.1028,0.0551,0.0,0.0,-0.0224,-0.0504,-0.0449,-0.056,-0.0841,-0.0897,-0.0785,-0.0789,-0.0919,-0.0929,-0.0989,-0.0594,-0.042,-0.024,-0.012,-0.006,-0.0061,-0.0487,-0.0795,-0.1171,-0.1912,-0.2097,-0.1357,-0.1358,-0.1491,-0.1637,-0.1973,-0.2257,-0.2171,-0.2722,-0.3276,-0.383,-0.4371,-0.5108,-0.5711,-0.5848,-0.5867,-0.5833,-0.5313,-0.4805,-0.429,-0.3383,-0.3274,-0.3075,-0.3656,-0.5302,-0.775,-1.0491,-1.2763,-1.4338,-1.4579,-1.4937,-1.6707,-1.6864,-1.6708,-1.6556,-1.6471,-1.6405,-1.6221,-1.6556,-1.6894,-1.724,-1.7621,-1.7975,-1.8345,-1.8352,-1.8379,-1.8325,-1.8319,-1.8515,-1.8638,-1.8494,-1.8659,-1.9072,-1.9315,-1.9461,-1.9595,-1.9572,-1.94,-1.9253,-1.9151,-1.9136,-1.9328,-1.9386,-1.9458,-1.9606,-1.9865,-1.992,-1.9816,-1.9791,-1.9804,1.1683,1.1243,1.1194,1.09,1.0203,0.8768,0.7928,0.7036,0.5301,0.4806,0.5164,0.4808,0.4936,0.5564,0.4538,0.396,0.3558,0.2738,0.2048,0.1612,0.1099,0.0616,0.0,0.0,-0.0169,-0.0338,0.0112,0.0169,0.0,0.0283,0.0339,0.0285,0.0,-0.0236,-0.0059,0.0182,0.0184,0.0307,0.043,0.0368,0.0062,-0.0554,-0.1048,-0.1356,-0.1975,-0.222,-0.1849,-0.179,-0.1801,-0.1575,-0.2147,-0.2249,-0.2299,-0.3428,-0.4053,-0.4293,-0.5111,-0.5914,-0.6246,-0.6784,-0.6879,-0.7014,-0.6692,-0.586,-0.5019,-0.4626,-0.4301,-0.3937,-0.4325,-0.6264,-0.8718,-1.1311,-1.2691,-1.3528,-1.3397,-1.4372,-1.5894,-1.659,-1.6588,-1.649,-1.6448,-1.6353,-1.6353,-1.6553,-1.6957,-1.7194,-1.7574,-1.8001,-1.8193,-1.8165,-1.8199,-1.8183,-1.8196,-1.824,-1.8386,-1.8484,-1.8792,-1.9155,-1.9368,-1.9583,-1.9879,-1.9814,-1.9603,-1.9374,-1.9205,-1.9108,-1.9136,-1.9194,-1.9188,-1.924,-1.9478,-1.9324,-1.9203,-1.9322,-1.9405,1.1829,1.1492,1.1292,1.09,1.031,0.9365,0.8623,0.7992,0.6681,0.6101,0.6231,0.5938,0.5867,0.6026,0.5543,0.4827,0.3982,0.3379,0.2618,0.1361,0.1054,0.0672,0.0336,0.0168,0.0226,0.0398,0.0457,0.0748,0.1043,0.1102,0.1164,0.1516,0.1418,0.1498,0.1623,0.1585,0.1665,0.1235,0.0988,0.0432,-0.0247,-0.0803,-0.1422,-0.1855,-0.2349,-0.2469,-0.222,-0.1849,-0.1739,-0.189,-0.1977,-0.2262,-0.2693,-0.3259,-0.4084,-0.5168,-0.6311,-0.7314,-0.7917,-0.8451,-0.8926,-0.8778,-0.8397,-0.7898,-0.7018,-0.6484,-0.6272,-0.6089,-0.6411,-0.7589,-0.9873,-1.1715,-1.2589,-1.2933,-1.3115,-1.3499,-1.4437,-1.5108,-1.5668,-1.6064,-1.6264,-1.6235,-1.6212,-1.6552,-1.6923,-1.7144,-1.7544,-1.7944,-1.8058,-1.7974,-1.7943,-1.7917,-1.7652,-1.7634,-1.7817,-1.8015,-1.8496,-1.888,-1.9171,-1.9733,-2.0025,-2.0002,-1.9748,-1.9483,-1.9223,-1.9151,-1.9102,-1.9136,-1.913,-1.9136,-1.9136,-1.9136,-1.9136,-1.9136,-1.9136,1.1834,1.1585,1.1292,1.09,1.031,0.9562,0.8874,0.8261,0.7217,0.6916,0.7101,0.6846,0.6846,0.7162,0.6685,0.5941,0.5057,0.4241,0.3208,0.2153,0.1676,0.1121,0.0561,0.0561,0.0791,0.1088,0.1608,0.1971,0.2109,0.2178,0.2291,0.2534,0.2512,0.2286,0.2416,0.2447,0.2158,0.1605,0.0926,0.0247,-0.0247,-0.1429,-0.2445,-0.3144,-0.3526,-0.365,-0.3278,-0.3148,-0.2909,-0.2738,-0.2888,-0.3114,-0.3617,-0.4399,-0.5366,-0.6178,-0.7846,-0.8778,-0.938,-0.9788,-1.0079,-1.0203,-0.9937,-0.9356,-0.8748,-0.8144,-0.7868,-0.7739,-0.7704,-0.8299,-1.0011,-1.124,-1.1907,-1.1753,-1.1928,-1.242,-1.3546,-1.4445,-1.5101,-1.5607,-1.5975,-1.6122,-1.6311,-1.6561,-1.686,-1.7106,-1.7504,-1.7958,-1.8006,-1.7949,-1.774,-1.7565,-1.7097,-1.6954,-1.7166,-1.7473,-1.7969,-1.8401,-1.8867,-1.9569,-2.0221,-2.0145,-2.0002,-1.9664,-1.9386,-1.9199,-1.9145,-1.9114,-1.9114,-1.909,-1.909,-1.9078,-1.9148,-1.916,-1.9154,1.1913,1.1639,1.1345,1.0904,1.0364,0.9715,0.9195,0.8596,0.7556,0.7653,0.7943,0.775,0.7905,0.8246,0.7827,0.7174,0.6185,0.5054,0.3813,0.3069,0.2684,0.2073,0.1513,0.1683,0.1926,0.1667,0.2539,0.309,0.3254,0.3322,0.328,0.3335,0.3185,0.291,0.2613,0.2509,0.2221,0.1543,0.0617,-0.0247,-0.0741,-0.2188,-0.3359,-0.41,-0.4558,-0.4427,-0.4105,-0.4106,-0.418,-0.3671,-0.4313,-0.4732,-0.5308,-0.6103,-0.7298,-0.7367,-0.9238,-1.0107,-1.0376,-1.0787,-1.1168,-1.1167,-1.1198,-1.0776,-0.998,-0.9504,-0.916,-0.8732,-0.8562,-0.8564,-0.9302,-1.0164,-1.0507,-1.049,-1.0438,-1.1385,-1.3028,-1.4264,-1.4768,-1.539,-1.5891,-1.6183,-1.6287,-1.6471,-1.675,-1.7044,-1.7448,-1.7799,-1.7794,-1.7661,-1.7276,-1.6936,-1.6392,-1.6428,-1.6626,-1.6652,-1.717,-1.8017,-1.8485,-1.9248,-2.015,-2.0323,-2.0183,-1.9851,-1.9657,-1.9434,-1.935,-1.9386,-1.9338,-1.9205,-1.9229,-1.9344,-1.9283,-1.9221,-1.9185,1.2103,1.1878,1.1394,1.0998,1.0708,1.0364,1.0062,0.9922,0.9102,0.899,0.9108,0.8784,0.8674,0.8736,0.8749,0.7917,0.6681,0.5603,0.4736,0.4198,0.3807,0.3246,0.2967,0.325,0.3642,0.3724,0.3865,0.4033,0.4307,0.4345,0.3956,0.3792,0.3739,0.3438,0.3007,0.2835,0.2221,0.1172,0.0247,-0.0616,-0.167,-0.2696,-0.3503,-0.4194,-0.4595,-0.4466,-0.407,-0.4194,-0.4574,-0.5214,-0.5404,-0.619,-0.6946,-0.7478,-0.8078,-0.8938,-0.9965,-1.0704,-1.0836,-1.1707,-1.225,-1.2507,-1.2342,-1.1882,-1.1103,-1.0684,-1.0028,-0.9399,-0.908,-0.9152,-0.9302,-0.9663,-0.9957,-1.0194,-1.057,-1.1122,-1.2575,-1.3583,-1.455,-1.5328,-1.5829,-1.6051,-1.5931,-1.5912,-1.6117,-1.635,-1.6672,-1.703,-1.7123,-1.6818,-1.6276,-1.594,-1.5543,-1.5844,-1.6146,-1.5993,-1.6255,-1.7529,-1.8185,-1.8779,-1.9622,-2.0306,-2.0374,-2.014,-1.9917,-1.9772,-1.9718,-1.967,-1.9639,-1.9561,-1.9603,-1.9652,-1.9464,-1.9348,-1.9199,1.2159,1.1895,1.1442,1.1047,1.082,1.0626,1.0469,1.0242,0.9863,0.9595,0.9485,0.9246,0.9051,0.894,0.8937,0.8266,0.7374,0.6707,0.5873,0.5316,0.4869,0.4252,0.3861,0.4255,0.4344,0.4432,0.4534,0.4782,0.5102,0.4619,0.4316,0.4132,0.4011,0.3579,0.3146,0.2959,0.2345,0.1233,0.0123,-0.0863,-0.1855,-0.2834,-0.3787,-0.4095,-0.4462,-0.4546,-0.448,-0.4807,-0.5268,-0.5786,-0.6276,-0.7061,-0.7732,-0.8266,-0.8555,-0.9213,-0.994,-1.0376,-1.0373,-1.0906,-1.1108,-1.139,-1.1654,-1.1607,-1.1217,-1.0811,-1.0318,-0.9615,-0.9237,-0.9457,-1.0086,-0.9663,-0.9951,-1.0684,-1.0652,-1.1023,-1.2079,-1.2839,-1.3834,-1.4941,-1.5199,-1.5208,-1.4932,-1.5003,-1.5327,-1.5665,-1.597,-1.6188,-1.6417,-1.6152,-1.5718,-1.5535,-1.5316,-1.5378,-1.5625,-1.5483,-1.5663,-1.6786,-1.7893,-1.8496,-1.9341,-2.0186,-2.0533,-2.0478,-2.0291,-2.0061,-1.9911,-1.9808,-1.9857,-1.9905,-1.9869,-1.979,-1.9579,-1.9422,-1.9332,1.2249,1.1853,1.1434,1.1161,1.0942,1.0737,1.0662,1.0467,1.0139,0.9793,0.958,0.9424,0.9217,0.8995,0.8826,0.8546,0.7992,0.766,0.699,0.6209,0.5873,0.52,0.4643,0.4552,0.4898,0.4978,0.5117,0.5499,0.5269,0.4807,0.4501,0.4316,0.4071,0.3579,0.3085,0.296,0.253,0.1419,0.0308,-0.074,-0.1682,-0.2859,-0.396,-0.4215,-0.4539,-0.4699,-0.4756,-0.5155,-0.5675,-0.6117,-0.6745,-0.7381,-0.7949,-0.8375,-0.8612,-0.8713,-0.9215,-0.9537,-0.9698,-0.9808,-1.0155,-1.0391,-1.0364,-1.0571,-1.0578,-1.0306,-0.9852,-0.9407,-0.96,-0.9855,-1.0581,-1.0167,-1.038,-1.0913,-1.0781,-1.0559,-1.1679,-1.2478,-1.2878,-1.3693,-1.4256,-1.4428,-1.4223,-1.4336,-1.4715,-1.4939,-1.5246,-1.5509,-1.5643,-1.5699,-1.5493,-1.543,-1.5252,-1.5089,-1.5145,-1.5042,-1.5409,-1.6191,-1.7398,-1.8309,-1.9249,-2.0227,-2.0467,-2.0834,-2.0521,-2.0272,-2.0077,-2.0038,-2.0165,-2.0201,-2.0092,-1.9935,-1.9748,-1.9591,-1.9483,1.2518,1.1872,1.1592,1.1427,1.1336,1.0918,1.0918,1.1036,1.035,0.9919,0.9709,0.9526,0.9213,0.8944,0.895,0.8556,0.8168,0.7955,0.7569,0.6959,0.6839,0.656,0.6219,0.6105,0.5847,0.5641,0.5598,0.5508,0.5386,0.5054,0.4687,0.4439,0.4071,0.3579,0.3146,0.3022,0.222,0.0986,0.0431,-0.0558,-0.2009,-0.2614,-0.3238,-0.381,-0.4197,-0.4363,-0.4561,-0.4897,-0.542,-0.6419,-0.6725,-0.7261,-0.7858,-0.7654,-0.7541,-0.7966,-0.8803,-0.9758,-0.957,-0.9419,-0.9362,-0.9455,-0.9883,-1.0083,-0.9789,-0.953,-0.9253,-0.9366,-0.9991,-1.0562,-1.0868,-1.0812,-1.11,-1.1014,-1.0666,-1.0795,-1.1524,-1.1925,-1.2311,-1.2554,-1.3195,-1.3546,-1.365,-1.383,-1.411,-1.4335,-1.4543,-1.4714,-1.5013,-1.5151,-1.526,-1.5269,-1.5196,-1.5101,-1.5033,-1.4842,-1.5374,-1.5986,-1.7072,-1.8202,-1.9311,-2.039,-2.1043,-2.1155,-2.0739,-2.0467,-2.038,-2.0359,-2.0551,-2.0422,-2.0239,-2.0097,-1.9929,-1.9784,-1.9621,1.2717,1.2011,1.1665,1.1586,1.1597,1.1248,1.1129,1.1123,1.0642,1.0183,0.9805,0.9706,0.9375,0.9006,0.9015,0.8838,0.8442,0.8217,0.7936,0.7539,0.7368,0.7091,0.6776,0.6595,0.6367,0.6151,0.5911,0.5728,0.5578,0.5362,0.4993,0.4687,0.4318,0.3887,0.3269,0.3085,0.2528,0.1665,0.0863,-0.0247,-0.131,-0.1768,-0.198,-0.2509,-0.309,-0.345,-0.3794,-0.4488,-0.4959,-0.5727,-0.5992,-0.6442,-0.6813,-0.6843,-0.6902,-0.6999,-0.7573,-0.7969,-0.7981,-0.8159,-0.8077,-0.7872,-0.8064,-0.8099,-0.826,-0.8422,-0.867,-0.9302,-0.9598,-1.0242,-1.0653,-1.038,-1.0668,-1.0649,-1.0486,-1.0449,-1.081,-1.1258,-1.1668,-1.1821,-1.2039,-1.2536,-1.2888,-1.2866,-1.2967,-1.3207,-1.3517,-1.3872,-1.4334,-1.4762,-1.494,-1.5101,-1.5028,-1.5041,-1.5037,-1.4984,-1.5779,-1.6441,-1.7348,-1.8487,-1.9659,-2.0587,-2.1245,-2.1378,-2.0888,-2.0651,-2.062,-2.0326,-2.0132,-2.0213,-2.0388,-2.0188,-2.0049,-1.9887,-1.9748,1.2744,1.2123,1.1827,1.1761,1.1803,1.1491,1.1318,1.1326,1.0849,1.0359,0.9871,0.9596,0.9268,0.9023,0.9072,0.8967,0.87,0.8454,0.8124,0.7838,0.7552,0.7271,0.7059,0.6841,0.6622,0.6379,0.6124,0.5945,0.5825,0.5609,0.5302,0.4935,0.4501,0.4071,0.3577,0.3146,0.2653,0.216,0.1419,0.0432,-0.0433,-0.0689,-0.0882,-0.1337,-0.1875,-0.2501,-0.2836,-0.367,-0.4368,-0.497,-0.5101,-0.5494,-0.5964,-0.6032,-0.6282,-0.6493,-0.6981,-0.6976,-0.7023,-0.6995,-0.6493,-0.6222,-0.6047,-0.6692,-0.7601,-0.7563,-0.7974,-0.923,-0.975,-1.0248,-1.0568,-1.0239,-1.0452,-1.0541,-1.0316,-1.0124,-1.0036,-1.0724,-1.1148,-1.1369,-1.1526,-1.1713,-1.1928,-1.1787,-1.1894,-1.2134,-1.25,-1.305,-1.3778,-1.4617,-1.504,-1.5316,-1.5619,-1.5636,-1.57,-1.5835,-1.6441,-1.6941,-1.7852,-1.8901,-1.9999,-2.0915,-2.1654,-2.1468,-2.1007,-2.0662,-2.0449,-2.0051,-1.968,-2.004,-2.0231,-2.0245,-2.0161,-1.997,-1.976,1.2557,1.2344,1.2181,1.2043,1.2067,1.1496,1.1393,1.152,1.0954,1.0363,0.9761,0.9268,0.8995,0.8988,0.9103,0.9071,0.8726,0.849,0.8247,0.7971,0.768,0.7508,0.7349,0.7141,0.6889,0.6616,0.6342,0.6088,0.5957,0.5855,0.5427,0.4935,0.4685,0.4132,0.3577,0.3208,0.2716,0.2284,0.179,0.1296,0.0619,0.025,-0.0063,-0.0824,-0.1423,-0.2042,-0.2633,-0.3064,-0.3629,-0.4367,-0.4235,-0.4705,-0.5376,-0.5309,-0.5617,-0.6347,-0.66,-0.6609,-0.6629,-0.6648,-0.6403,-0.589,-0.5473,-0.5586,-0.6761,-0.7419,-0.8143,-0.901,-0.9626,-1.0353,-1.0734,-1.0884,-1.0524,-1.0302,-1.0067,-0.9876,-0.9963,-1.0357,-1.0756,-1.0908,-1.1179,-1.1552,-1.175,-1.1769,-1.1799,-1.2097,-1.2792,-1.3271,-1.4131,-1.4918,-1.5438,-1.5816,-1.628,-1.6517,-1.6791,-1.6927,-1.6875,-1.7604,-1.8518,-1.9472,-2.0467,-2.1314,-2.2023,-2.1632,-2.1205,-2.0694,-2.0203,-1.9764,-1.9608,-1.9942,-2.0132,-2.0083,-2.0057,-1.9947,-1.9585,1.289,1.2708,1.241,1.2269,1.2269,1.1733,1.1557,1.1505,1.0966,1.0363,0.9761,0.9217,0.8988,0.9089,0.9228,0.9293,0.9195,0.8772,0.8567,0.8278,0.7985,0.7689,0.7528,0.7397,0.7105,0.6827,0.653,0.6172,0.591,0.5916,0.5607,0.5239,0.487,0.4501,0.4009,0.3331,0.2776,0.2406,0.2099,0.1729,0.1607,0.1425,0.1183,0.0874,-0.0063,-0.058,-0.1105,-0.1911,-0.2532,-0.3021,-0.3161,-0.39,-0.4771,-0.4705,-0.5394,-0.631,-0.6551,-0.644,-0.6126,-0.6076,-0.5613,-0.4496,-0.3923,-0.4078,-0.5677,-0.611,-0.7055,-0.814,-0.9374,-1.0095,-0.9951,-0.9951,-0.9815,-0.9856,-0.9801,-0.9642,-0.9855,-1.023,-1.0665,-1.0896,-1.1246,-1.1668,-1.1793,-1.1915,-1.1965,-1.2128,-1.2889,-1.3626,-1.4466,-1.5337,-1.5843,-1.6314,-1.6764,-1.7109,-1.7332,-1.7343,-1.7242,-1.8252,-1.9197,-1.9996,-2.0836,-2.1627,-2.2082,-2.1731,-2.1242,-2.0625,-1.9994,-1.9492,-1.9357,-1.9551,-1.9698,-1.9853,-1.9849,-1.9869,-1.9537,1.3092,1.2876,1.255,1.2382,1.2327,1.1841,1.1568,1.1459,1.0966,1.0363,0.9765,0.9255,0.9052,0.9241,0.9367,0.9486,0.94,0.9098,0.8881,0.8591,0.8233,0.7875,0.7719,0.757,0.7418,0.7021,0.6714,0.6407,0.6099,0.5978,0.5794,0.5546,0.5239,0.4807,0.4255,0.3639,0.296,0.2529,0.2283,0.21,0.2038,0.1977,0.1978,0.18,0.1009,0.0447,-0.0194,-0.0921,-0.1601,-0.2013,-0.2287,-0.2958,-0.3697,-0.4437,-0.5041,-0.5867,-0.6381,-0.6187,-0.5592,-0.4984,-0.4616,-0.378,-0.2913,-0.3351,-0.4367,-0.5383,-0.6545,-0.8143,-0.9013,-0.9304,-0.9304,-0.9446,-0.9446,-0.9549,-0.9643,-0.9549,-0.9741,-1.0022,-1.0521,-1.0887,-1.1258,-1.1536,-1.1992,-1.2047,-1.2115,-1.233,-1.3065,-1.3729,-1.4478,-1.5389,-1.637,-1.6819,-1.7247,-1.7531,-1.7768,-1.789,-1.8091,-1.9064,-1.9963,-2.0314,-2.1104,-2.1748,-2.2091,-2.1739,-2.114,-2.0479,-1.9904,-1.9476,-1.9189,-1.9038,-1.9356,-1.9825,-1.987,-1.9827,-1.9567,1.2963,1.2871,1.255,1.2382,1.2327,1.1841,1.1568,1.1514,1.0911,1.0363,0.978,0.9342,0.92,0.9289,0.9459,0.9591,0.9533,0.9325,0.9128,0.8818,0.8447,0.816,0.798,0.7805,0.7627,0.7385,0.6959,0.6653,0.6344,0.6037,0.5855,0.5732,0.5423,0.4991,0.4376,0.3824,0.3146,0.2652,0.253,0.235,0.2163,0.2107,0.2178,0.187,0.1712,0.1222,0.052,-0.0066,-0.0735,-0.1209,-0.1413,-0.222,-0.3498,-0.3631,-0.437,-0.5783,-0.6197,-0.5875,-0.5032,-0.4092,-0.3561,-0.3279,-0.2625,-0.3133,-0.4875,-0.5891,-0.6398,-0.7851,-0.8941,-0.923,-0.9304,-0.9304,-0.9304,-0.9329,-0.9419,-0.9522,-0.9711,-0.9804,-1.0305,-1.08,-1.1008,-1.127,-1.1828,-1.2179,-1.2254,-1.2561,-1.3195,-1.3927,-1.4708,-1.5887,-1.703,-1.7545,-1.7996,-1.8309,-1.8637,-1.8684,-1.9036,-1.9996,-2.0413,-2.0581,-2.0894,-2.1364,-2.1521,-2.155,-2.1078,-2.0301,-1.9935,-1.9487,-1.9349,-1.9214,-1.9587,-1.9911,-1.9943,-1.9814,-1.9573,1.319,1.3147,1.2599,1.2382,1.2332,1.1841,1.1568,1.1459,1.0802,1.0202,0.9794,0.9535,0.9389,0.9402,0.9503,0.9663,0.9687,0.9408,0.9156,0.8915,0.8552,0.8241,0.7994,0.7872,0.775,0.7385,0.7082,0.6778,0.6405,0.6099,0.5916,0.5794,0.5546,0.5053,0.4438,0.3824,0.3331,0.3153,0.2984,0.2747,0.2417,0.2512,0.253,0.2071,0.2109,0.1814,0.1175,0.0663,0.02,-0.0336,-0.0538,-0.1682,-0.2959,-0.3295,-0.4435,-0.5389,-0.5681,-0.4763,-0.3745,-0.2888,-0.2549,-0.2479,-0.2625,-0.2696,-0.3496,-0.5093,-0.6108,-0.727,-0.8721,-0.9085,-0.9304,-0.9304,-0.9304,-0.9304,-0.9378,-0.9489,-0.967,-0.9744,-0.9972,-1.0594,-1.0957,-1.1561,-1.2139,-1.2315,-1.2362,-1.2852,-1.3469,-1.4461,-1.5311,-1.6773,-1.8025,-1.8388,-1.8821,-1.9185,-1.9391,-1.9192,-1.9252,-1.9907,-2.0233,-2.0268,-2.0637,-2.1061,-2.1066,-2.1043,-2.0663,-2.02,-1.9818,-1.9547,-1.9482,-1.9484,-1.9794,-1.9998,-1.9987,-1.9845,-1.9639,1.332,1.3207,1.2659,1.2382,1.2332,1.1841,1.1509,1.1185,1.0586,1.0091,0.9861,0.9698,0.9566,0.9477,0.9591,0.9713,0.9758,0.9579,0.9217,0.8915,0.8732,0.8302,0.8055,0.7872,0.7811,0.7508,0.7202,0.6896,0.6591,0.6283,0.6037,0.5855,0.5548,0.526,0.4708,0.4277,0.3702,0.353,0.3244,0.3077,0.289,0.2852,0.2822,0.2561,0.2452,0.2351,0.1909,0.1524,0.1066,0.0537,-0.0202,-0.1211,-0.2354,-0.3294,-0.4234,-0.4654,-0.4179,-0.3413,-0.269,-0.2024,-0.1893,-0.2114,-0.2187,-0.2624,-0.3279,-0.5021,-0.6183,-0.7272,-0.8432,-0.8941,-0.9304,-0.9304,-0.9302,-0.9302,-0.9337,-0.9446,-0.9584,-0.9663,-0.991,-1.0457,-1.1023,-1.1724,-1.235,-1.241,-1.2467,-1.3098,-1.3729,-1.4762,-1.5714,-1.7119,-1.8348,-1.8791,-1.92,-1.9472,-1.9558,-1.9483,-1.9618,-1.9995,-2.0102,-2.0112,-2.0244,-2.0654,-2.0594,-2.0522,-2.0322,-2.0025,-1.974,-1.9517,-1.9564,-1.9619,-1.9795,-1.993,-1.9987,-1.9899,-1.9742,1.332,1.3212,1.2663,1.2382,1.2332,1.1841,1.1291,1.0747,1.0472,1.0154,0.9798,0.982,0.9671,0.9511,0.969,0.9805,0.9815,0.9758,0.9396,0.9095,0.8854,0.8424,0.8116,0.7933,0.7872,0.775,0.7505,0.7143,0.69,0.6407,0.6099,0.5916,0.5607,0.5451,0.5156,0.479,0.4211,0.3861,0.3569,0.34,0.3156,0.3203,0.3166,0.2982,0.2813,0.2638,0.2323,0.1869,0.1476,0.101,0.0538,-0.0606,-0.1615,-0.249,-0.3095,-0.3186,-0.2418,-0.2165,-0.1908,-0.1371,-0.1601,-0.1895,-0.226,-0.3351,-0.4369,-0.5239,-0.6255,-0.7489,-0.8724,-0.9013,-0.9304,-0.9302,-0.923,-0.923,-0.923,-0.9356,-0.9441,-0.9696,-0.994,-1.0434,-1.0993,-1.1569,-1.2269,-1.2501,-1.2579,-1.2888,-1.3571,-1.452,-1.5569,-1.6978,-1.8121,-1.8821,-1.9213,-1.9527,-1.9661,-1.9714,-1.9871,-2.014,-2.0152,-2.0186,-2.0308,-2.0275,-2.03,-2.0296,-2.007,-1.986,-1.9762,-1.9707,-1.9675,-1.9815,-1.9917,-2.004,-2.0119,-2.0068,-1.9887,1.332,1.3261,1.2654,1.2382,1.2332,1.1787,1.124,1.0692,1.0586,1.037,0.995,1.0093,0.9902,0.9561,0.9737,0.9805,0.9819,0.9761,0.9518,0.9278,0.8976,0.861,0.8305,0.8058,0.7933,0.7811,0.763,0.7385,0.6898,0.6467,0.6099,0.5855,0.5732,0.5631,0.547,0.5306,0.4814,0.4325,0.4031,0.3723,0.3563,0.3618,0.3515,0.3283,0.3115,0.2934,0.2612,0.208,0.1616,0.1414,0.0337,-0.0673,-0.0808,-0.1952,-0.2763,-0.2185,-0.1735,-0.1477,-0.1138,-0.1156,-0.1386,-0.1895,-0.2552,-0.3208,-0.4153,-0.5242,-0.64,-0.7636,-0.8726,-0.9088,-0.9157,-0.9157,-0.8938,-0.8794,-0.8801,-0.8808,-0.8951,-0.9358,-0.968,-1.0432,-1.0987,-1.1569,-1.2269,-1.2501,-1.2579,-1.2733,-1.3259,-1.4226,-1.5421,-1.6835,-1.7934,-1.8643,-1.9378,-1.9768,-1.9946,-2.0108,-2.0172,-2.0351,-2.0184,-1.9995,-1.9871,-1.9854,-1.9973,-1.9828,-1.9424,-1.9591,-1.9898,-1.9634,-1.9138,-1.9724,-1.992,-2.0028,-2.0173,-1.9909,-1.9625,1.332,1.3207,1.2659,1.2278,1.206,1.1732,1.1274,1.0896,1.0802,1.054,1.0088,1.0247,1.0108,0.9675,0.9747,0.9819,0.9819,0.9758,0.9579,0.9278,0.9098,0.8674,0.8366,0.818,0.8116,0.8055,0.8119,0.8058,0.7508,0.6893,0.6464,0.5919,0.5919,0.5818,0.5665,0.552,0.5286,0.4862,0.4433,0.4116,0.3961,0.4019,0.3871,0.3635,0.3539,0.3224,0.2895,0.2289,0.1953,0.1616,0.0471,-0.0135,-0.0404,-0.1481,-0.1953,-0.1432,-0.1041,-0.0772,-0.0567,-0.0794,-0.1309,-0.1968,-0.2842,-0.3645,-0.4517,-0.5606,-0.6551,-0.757,-0.8437,-0.9085,-0.9013,-0.8941,-0.8574,-0.821,-0.8164,-0.819,-0.8514,-0.8925,-0.9585,-1.0346,-1.1044,-1.1631,-1.2114,-1.2347,-1.2501,-1.2656,-1.2965,-1.3722,-1.5085,-1.6599,-1.773,-1.8587,-1.9354,-1.9941,-2.0113,-2.0154,-2.0099,-1.9923,-1.959,-1.9443,-1.9406,-1.9077,-1.885,-1.8734,-1.8683,-1.8833,-1.8883,-1.8602,-1.8308,-1.89,-1.9279,-1.9211,-1.9248,-1.929,-1.8964,1.332,1.3261,1.2659,1.2114,1.1623,1.1573,1.1343,1.1016,1.0976,1.0666,1.0235,1.0358,1.0199,0.9733,0.9774,0.9819,0.9819,0.9758,0.97,0.9396,0.9339,0.9098,0.879,0.836,0.8845,0.897,0.8912,0.8848,0.8662,0.7867,0.6707,0.5978,0.5919,0.5879,0.5868,0.5806,0.5569,0.5177,0.4836,0.4476,0.4139,0.4068,0.4209,0.4093,0.3861,0.3624,0.3227,0.2827,0.2425,0.1818,0.1212,0.0606,-0.0135,-0.0741,-0.0943,-0.0882,-0.0483,-0.0487,-0.0563,-0.0857,-0.159,-0.225,-0.291,-0.4073,-0.5235,-0.5894,-0.6696,-0.7643,-0.8512,-0.9016,-0.9085,-0.8435,-0.7926,-0.7706,-0.7575,-0.7597,-0.7723,-0.8446,-0.9677,-1.0429,-1.099,-1.165,-1.2114,-1.2347,-1.2501,-1.2501,-1.2733,-1.3347,-1.4499,-1.6105,-1.7402,-1.8314,-1.8967,-1.9603,-1.9753,-1.9755,-1.9769,-1.9542,-1.9029,-1.8694,-1.8557,-1.8087,-1.7478,-1.7734,-1.7979,-1.7645,-1.7488,-1.7403,-1.7492,-1.7686,-1.8005,-1.8078,-1.82,-1.8406,-1.8272,1.332,1.3266,1.2659,1.2114,1.1623,1.1568,1.1406,1.1037,1.111,1.0886,1.0493,1.0462,1.0204,0.9821,0.9795,0.9819,0.9819,0.9822,0.9761,0.9822,0.9761,0.9822,0.9879,0.9758,1.0058,1.0183,1.0001,0.9454,0.8723,0.7864,0.707,0.6344,0.6039,0.5879,0.5908,0.5922,0.5784,0.5428,0.5169,0.4731,0.4184,0.4065,0.4045,0.4048,0.3908,0.3737,0.3415,0.3029,0.2761,0.2357,0.1751,0.1077,0.0337,-0.0067,-0.0269,-0.0203,-0.0205,-0.0552,-0.0973,-0.1477,-0.2348,-0.3368,-0.4241,-0.506,-0.5729,-0.6177,-0.6839,-0.7786,-0.8442,-0.8801,-0.8871,-0.8145,-0.7494,-0.7274,-0.7061,-0.7007,-0.7029,-0.8369,-0.9691,-1.0426,-1.1002,-1.1495,-1.196,-1.2269,-1.2424,-1.2501,-1.2501,-1.2965,-1.3891,-1.5194,-1.6869,-1.7783,-1.8395,-1.8973,-1.9234,-1.913,-1.8956,-1.8623,-1.8159,-1.7899,-1.7635,-1.725,-1.6864,-1.7189,-1.735,-1.6828,-1.6624,-1.6971,-1.6994,-1.6695,-1.7058,-1.7389,-1.7473,-1.7581,-1.7442,1.3207,1.3039,1.2604,1.2055,1.1732,1.2005,1.2003,1.1811,1.1757,1.1662,1.1351,1.0901,1.035,0.9876,0.9819,0.9822,0.9822,0.9819,1.0065,1.0247,1.0304,1.0486,1.0668,1.091,1.097,1.1031,1.0789,1.0122,0.8845,0.7991,0.7319,0.6526,0.6101,0.5921,0.5939,0.6047,0.5978,0.5615,0.544,0.4984,0.4299,0.4177,0.4079,0.4024,0.4009,0.391,0.3615,0.3231,0.2895,0.2559,0.1953,0.1212,0.0606,0.0269,0.0135,-0.0135,-0.0477,-0.0961,-0.1652,-0.2358,-0.3156,-0.4306,-0.4849,-0.5385,-0.6267,-0.6717,-0.7057,-0.7933,-0.8152,-0.8512,-0.8799,-0.829,-0.7856,-0.7636,-0.7221,-0.695,-0.7614,-0.8793,-0.9802,-1.0498,-1.1026,-1.1495,-1.196,-1.2347,-1.2424,-1.2501,-1.2501,-1.312,-1.3891,-1.4353,-1.5956,-1.7098,-1.7631,-1.8197,-1.85,-1.8363,-1.8019,-1.7629,-1.7266,-1.6834,-1.6487,-1.6339,-1.6326,-1.6424,-1.6304,-1.5799,-1.5759,-1.6016,-1.5708,-1.5246,-1.5926,-1.6729,-1.6813,-1.6879,-1.6816,1.3098,1.2827,1.2495,1.2164,1.1896,1.2555,1.2844,1.2842,1.2774,1.2763,1.2726,1.1736,1.0725,1.0061,1.0001,0.9883,0.9943,1.0183,1.0486,1.0547,1.0607,1.1088,1.1333,1.1454,1.1635,1.1454,1.1152,1.0243,0.9031,0.8297,0.7503,0.6587,0.616,0.5978,0.5943,0.594,0.5869,0.5778,0.5629,0.5317,0.4836,0.4293,0.4134,0.4119,0.4107,0.41,0.3871,0.3495,0.316,0.2692,0.2154,0.1212,0.0606,0.0202,-0.0202,-0.054,-0.1153,-0.1706,-0.2259,-0.2961,-0.4023,-0.4894,-0.5164,-0.5701,-0.6648,-0.706,-0.7402,-0.7715,-0.7935,-0.8297,-0.8512,-0.8509,-0.8145,-0.7856,-0.7372,-0.72,-0.8269,-0.9208,-0.9815,-1.0523,-1.0949,-1.1414,-1.1805,-1.2192,-1.2424,-1.2501,-1.2888,-1.3583,-1.4199,-1.4353,-1.5117,-1.6033,-1.6568,-1.7102,-1.7677,-1.7327,-1.6875,-1.6775,-1.6324,-1.5739,-1.5348,-1.5578,-1.5561,-1.5285,-1.5076,-1.4997,-1.4719,-1.4727,-1.4283,-1.4104,-1.5232,-1.6292,-1.6365,-1.6425,-1.6299,1.2989,1.2495,1.2441,1.2495,1.2659,1.2881,1.3231,1.37,1.3744,1.3746,1.3708,1.3306,1.2161,1.024,1.0785,1.0728,1.0186,1.0607,1.0725,1.0785,1.1329,1.1872,1.2234,1.2298,1.2363,1.1756,1.0849,0.9879,0.9031,0.8419,0.7811,0.6837,0.6464,0.6162,0.5933,0.5936,0.6007,0.5928,0.5847,0.561,0.5438,0.4876,0.436,0.4202,0.4048,0.4497,0.4554,0.4079,0.3962,0.3497,0.2422,0.1211,0.0404,-0.0202,-0.074,-0.1346,-0.1963,-0.2638,-0.3259,-0.3808,-0.4852,-0.5859,-0.6069,-0.6285,-0.6831,-0.6919,-0.7249,-0.7566,-0.7858,-0.8222,-0.844,-0.822,-0.7928,-0.7928,-0.7579,-0.8191,-0.9051,-0.9436,-0.9848,-1.0372,-1.0862,-1.1178,-1.1417,-1.196,-1.2501,-1.2501,-1.2501,-1.3197,-1.374,-1.4126,-1.4434,-1.5045,-1.5654,-1.6078,-1.6567,-1.6121,-1.5765,-1.5674,-1.5609,-1.5337,-1.5117,-1.5045,-1.502,-1.4996,-1.4724,-1.4555,-1.429,-1.4144,-1.389,-1.3997,-1.5044,-1.5845,-1.5847,-1.6019,-1.6011]},{"header":{"parameterUnit":"m.s-1","parameterCategory":1,"la1":31.0,"la2":29.5877,"lo1":-88.7671,"lo2":-86.6584,"dy":0.0162,"dx":0.0185,"nx":115,"ny":88,"refTime":"2023-08-29T06:00:00:Z","depth":0,"parameterNumber":3,"parameterNumberName":"V-component_of_WINDS"},"data":[0.0,0.0,0.0,0.0,0.0,0.0,0.0,0.0,0.0,0.0,0.0,0.0,0.0,0.0,0.0,0.0,0.0,0.0,0.0,0.0,0.0,0.0,0.0,0.0,0.0,0.0,0.0,0.0,0.0,0.0,0.0,0.0,0.0,0.0,0.0,0.0,0.0,0.0,0.0,0.0,0.0,0.0,0.0,0.0,0.0,0.0,0.0,0.0,0.0,0.0,0.0,0.0,0.0,0.0,0.0,0.0,0.0,0.0,0.0,0.0,0.0,0.0,0.0,0.0,0.0,0.0,0.0,0.0,0.0,0.0,0.0,0.0,0.0,0.0,0.0,0.0,0.0,0.0,0.0,0.0,0.0,0.0,0.0,0.0,0.0,0.0,0.0,0.0,0.0,0.0,0.0,0.0,0.0,0.0,0.0,0.0,0.0,0.0,0.0,0.0,0.0,0.0,0.0,0.0,0.0,0.0,0.0,0.0,0.0,0.0,0.0,0.0,0.0,0.0,0.0,0.0,0.0,0.0,0.0,0.0,0.0,0.0,0.0,0.0,0.0,0.0,0.0,0.0,0.0,0.0,0.0,0.0,0.0,0.0,0.0,0.0,0.0,0.0,0.0,0.0,0.0,0.0,0.0,0.0,0.0,0.0,0.0,0.0,0.0,0.0,0.0,0.0,0.0,0.0,0.0,0.0,0.0,0.0,0.0,0.0,0.0,0.0,0.0,0.0,0.0,0.0,0.0,0.0,0.0,0.0,0.0,0.0,0.0,0.0,0.0,0.0,0.0,0.0,0.0,0.0,0.0,0.0,0.0,0.0,0.0,0.0,0.0,0.0,0.0,0.0,0.0,0.0,0.0,0.0,0.0,0.0,0.0,0.0,0.0,0.0,0.0,0.0,0.0,0.0,0.0,0.0,0.0,0.0,0.0,0.0,0.0,0.0,0.0,0.0,0.0,0.0,0.0,0.0,0.0,0.0,0.0,0.0,0.0,0.0,0.0,0.0,0.0,0.0,0.0,0.0,0.0,0.0,0.0,0.0,0.0,0.0,0.0,0.0,0.0,0.0,0.0,0.0,0.0,0.0,0.0,0.0,0.0,0.0,0.0,0.0,0.0,0.0,0.0,0.0,0.0,0.0,0.0,0.0,0.0,0.0,0.0,0.0,0.0,0.0,0.0,0.0,0.0,0.0,0.0,0.0,0.0,0.0,0.0,0.0,0.0,0.0,0.0,0.0,0.0,0.0,0.0,0.0,0.0,0.0,0.0,0.0,0.0,0.0,0.0,0.0,0.0,0.0,0.0,0.0,0.0,0.0,0.0,0.0,0.0,0.0,0.0,0.0,0.0,0.0,0.0,0.0,0.0,0.0,0.0,0.0,0.0,0.0,0.0,0.0,0.0,0.0,0.0,0.0,0.0,0.0,0.0,0.0,0.0,0.0,0.0,0.0,0.0,0.0,0.0,0.0,0.0,0.0,0.0,0.0,0.0,0.0,0.0,0.0,0.0,0.0,0.0,0.0,0.0,0.0,0.0,0.0,0.0,0.0,0.0,0.0,0.0,0.0,0.0,0.0,0.0,0.0,0.0,0.0,0.0,0.0,0.0,0.0,0.0,0.0,0.0,0.0,0.0,0.0,0.0,0.0,0.0,0.0,0.0,0.0,0.0,0.0,0.0,0.0,0.0,0.0,0.0,0.0,0.0,0.0,0.0,0.0,0.0,0.0,0.0,0.0,0.0,0.0,0.0,0.0,0.0,0.0,0.0,0.0,0.0,0.0,0.0,0.0,0.0,0.0,0.0,0.0,0.0,0.0,0.0,0.0,0.0,0.0,0.0,0.0,0.0,0.0,0.0,0.0,0.0,0.0,0.0,0.0,0.0,0.0,0.0,0.0,0.0,0.0,0.0,0.0,0.0,0.0,0.0,0.0,0.0,0.0,0.0,0.0,0.0,0.0,0.0,0.0,0.0,0.0,0.0,0.0,0.0,0.0,0.0,0.0,0.0,0.0,0.0,0.0,0.0,0.0,0.0,0.0,0.0,0.0,0.0,0.0,0.0,0.0,0.0,0.0,0.0,0.0,0.0,0.0,0.0,0.0,0.0,0.0,0.0,0.0,0.0,0.0,0.0,0.0,0.0,0.0,0.0,0.0,0.0,0.0,0.0,0.0,0.0,0.0,0.0,0.0,0.0,0.0,0.0,0.0,0.0,0.0,0.0,0.0,0.0,0.0,0.0,0.0,0.0,0.0,0.0,0.0,0.0,0.0,0.0,0.0,0.0,0.0,0.0,0.0,0.0,0.0,0.0,0.0,0.0,0.0,0.0,0.0,0.0,0.0,0.0,0.0,0.0,0.0,0.0,0.0,0.0,0.0,0.0,0.0,0.0,0.0,0.0,0.0,0.0,0.0,0.0,0.0,0.0,0.0,0.0,0.0,0.0,0.0,0.0,0.0,0.0,0.0,0.0,0.0,0.0,0.0,0.0,0.0,0.0,0.0,0.0,0.0,0.0,0.0,0.0,0.0,0.0,0.0,0.0,0.0,0.0,0.0,0.0,0.0,0.0,0.0,0.0,0.0,0.0,0.0,0.0,0.0,0.0,0.0,0.0,0.0,0.0,0.0,0.0,0.0,0.0,0.0,0.0,0.0,0.0,0.0,0.0,0.0,0.0,0.0,0.0,0.0,0.0,0.0,0.0,0.0,0.0,0.0,0.0,0.0,0.0,0.0,0.0,0.0,0.0,0.0,0.0,0.0,0.0,0.0,0.0,0.0,0.0,0.0,0.0,0.0,0.0,0.0,0.0,0.0,0.0,0.0,0.0,0.0,0.0,0.0,0.0,0.0,0.0,0.0,0.0,0.0,0.0,0.0,0.0,0.0,0.0,0.0,0.0,0.0,0.0,0.0,0.0,0.0,0.0,0.0,0.0,0.0,0.0,0.0,0.0,0.0,0.0,0.0,0.0,0.0,0.0,0.0,0.0,0.0,0.0,0.0,0.0,0.0,0.0,0.0,0.0,0.0,0.0,0.0,0.0,0.0,0.0,0.0,0.0,0.0,0.0,0.0,0.0,0.0,0.0,0.0,0.0,0.0,0.0,0.0,0.0,0.0,0.0,0.0,0.0,0.0,0.0,0.0,0.0,0.0,0.0,0.0,0.0,0.0,0.0,0.0,0.0,0.0,0.0,0.0,0.0,0.0,0.0,0.0,0.0,0.0,0.0,0.0,0.0,0.0,0.0,0.0,0.0,0.0,0.0,0.0,0.0,0.0,0.0,0.0,0.0,0.0,0.0,0.0,0.0,0.0,0.0,0.0,0.0,0.0,0.0,0.0,0.0,0.0,0.0,0.0,0.0,0.0,0.0,0.0,0.0,0.0,0.0,0.0,0.0,0.0,0.0,0.0,0.0,0.0,0.0,0.0,0.0,0.0,0.0,0.0,0.0,0.0,0.0,0.0,0.0,0.0,0.0,0.0,0.0,0.0,0.0,0.0,0.0,0.0,0.0,0.0,0.0,0.0,0.0,0.0,0.0,0.0,0.0,0.0,0.0,0.0,0.0,0.0,0.0,0.0,0.0,0.0,0.0,0.0,0.0,0.0,0.0,0.0,0.0,0.0,0.0,0.0,0.0,0.0,0.0,0.0,0.0,0.0,0.0,0.0,0.0,0.0,0.0,0.0,0.0,0.0,0.0,0.0,0.0,0.0,0.0,0.0,0.0,0.0,0.0,0.0,0.0,0.0,0.0,0.0,0.0,0.0,0.0,0.0,0.0,0.0,0.0,0.0,0.0,0.0,0.0,0.0,0.0,0.0,0.0,0.0,0.0,0.0,0.0,0.0,0.0,0.0,0.0,0.0,0.0,0.0,0.0,0.0,0.0,0.0,0.0,0.0,0.0,0.0,0.0,0.0,0.0,0.0,0.0,0.0,0.0,0.0,0.0,0.0,0.0,0.0,0.0,0.0,0.0,0.0,0.0,0.0,0.0,0.0,0.0,0.0,0.0,0.0,0.0,0.0,0.0,0.0,0.0,0.0,0.0,0.0,0.0,0.0,0.0,0.0,0.0,0.0,0.0,0.0,0.0,0.0,0.0,0.0,0.0,0.0,0.0,0.0,0.0,0.0,0.0,0.0,0.0,0.0,0.0,0.0,0.0,0.0,0.0,0.0,0.0,0.0,0.0,0.0,0.0,0.0,0.0,0.0,0.0,0.0,0.0,0.0,0.0,0.0,0.0,0.0,0.0,0.0,0.0,0.0,0.0,0.0,0.0,0.0,2.2955,0.0,0.0,0.0,2.2928,0.0,0.0,0.0,0.0,0.0,0.0,0.0,0.0,0.0,0.0,0.0,0.0,0.0,0.0,0.0,0.0,0.0,0.0,0.0,0.0,0.0,0.0,0.0,0.0,0.0,0.0,0.0,0.0,0.0,0.0,0.0,0.0,0.0,0.0,0.0,0.0,0.0,0.0,0.0,0.0,0.0,0.0,0.0,0.0,0.0,0.0,0.0,0.0,0.0,0.0,0.0,0.0,0.0,0.0,0.0,0.0,0.0,0.0,0.0,0.0,0.0,0.0,0.0,0.0,0.0,0.0,0.0,0.0,0.0,0.0,0.0,0.0,0.0,0.0,0.0,0.0,0.0,0.0,0.0,0.0,0.0,0.0,0.0,0.0,0.0,0.0,0.0,0.0,0.0,0.0,0.0,0.0,0.0,0.0,0.0,0.0,0.0,0.0,0.0,0.0,0.0,0.0,0.0,0.0,0.0,0.0,0.0,0.0,0.0,0.0,2.4042,2.4495,2.4508,2.4286,2.3787,0.0,0.0,0.0,0.0,0.0,0.0,0.0,0.0,0.0,0.0,0.0,0.0,0.0,0.0,0.0,0.0,0.0,0.0,0.0,0.0,0.0,0.0,0.0,0.0,0.0,0.0,0.0,0.0,0.0,0.0,0.0,0.0,0.0,0.0,0.0,0.0,0.0,0.0,0.0,0.0,0.0,0.0,0.0,0.0,0.0,0.0,0.0,0.0,0.0,0.0,0.0,0.0,0.0,0.0,0.0,0.0,0.0,0.0,0.0,0.0,0.0,0.0,0.0,0.0,0.0,0.0,0.0,0.0,0.0,0.0,0.0,0.0,0.0,0.0,0.0,0.0,0.0,0.0,0.0,0.0,0.0,0.0,0.0,0.0,0.0,0.0,0.0,0.0,0.0,0.0,0.0,0.0,0.0,0.0,0.0,0.0,0.0,0.0,0.0,0.0,0.0,0.0,0.0,0.0,0.0,0.0,0.0,0.0,0.0,0.0,0.0,0.0,2.5696,2.5202,2.4139,0.0,0.0,0.0,0.0,0.0,0.0,0.0,0.0,0.0,0.0,0.0,0.0,0.0,0.0,0.0,0.0,0.0,0.0,0.0,0.0,0.0,0.0,0.0,0.0,0.0,0.0,0.0,0.0,0.0,0.0,0.0,0.0,0.0,0.0,0.0,0.0,0.0,0.0,0.0,0.0,0.0,0.0,0.0,0.0,0.0,0.0,0.0,0.0,0.0,0.0,0.0,0.0,0.0,0.0,0.0,0.0,0.0,0.0,0.0,0.0,0.0,0.0,0.0,0.0,0.0,0.0,0.0,0.0,0.0,0.0,0.0,0.0,0.0,0.0,0.0,0.0,0.0,0.0,0.0,0.0,0.0,0.0,0.0,0.0,0.0,0.0,0.0,0.0,0.0,0.0,0.0,0.0,0.0,0.0,0.0,0.0,0.0,0.0,0.0,0.0,0.0,0.0,0.0,0.0,0.0,0.0,0.0,0.0,0.0,0.0,2.5625,2.57,2.5682,0.0,2.3335,0.0,0.0,0.0,0.0,0.0,0.0,0.0,0.0,0.0,0.0,0.0,0.0,0.0,0.0,0.0,0.0,0.0,0.0,0.0,0.0,0.0,0.0,0.0,0.0,0.0,0.0,0.0,0.0,0.0,0.0,0.0,0.0,0.0,0.0,0.0,0.0,0.0,0.0,0.0,0.0,0.0,0.0,0.0,0.0,0.0,0.0,0.0,0.0,0.0,0.0,0.0,0.0,0.0,0.0,0.0,0.0,0.0,0.0,0.0,0.0,0.0,0.0,0.0,0.0,0.0,0.0,0.0,0.0,0.0,0.0,0.0,0.0,0.0,0.0,0.0,0.0,0.0,0.0,0.0,0.0,0.0,0.0,0.0,0.0,0.0,0.0,0.0,0.0,0.0,0.0,0.0,0.0,0.0,0.0,0.0,0.0,0.0,0.0,0.0,0.0,0.0,0.0,0.0,0.0,0.0,0.0,0.0,0.0,0.0,0.0,2.5623,2.5597,2.4657,2.4071,0.0,0.0,0.0,0.0,0.0,0.0,0.0,0.0,0.0,0.0,0.0,0.0,0.0,0.0,0.0,0.0,0.0,0.0,0.0,0.0,0.0,0.0,0.0,0.0,0.0,0.0,0.0,0.0,0.0,0.0,0.0,0.0,0.0,0.0,0.0,0.0,0.0,0.0,0.0,0.0,0.0,0.0,0.0,0.0,0.0,0.0,0.0,0.0,0.0,0.0,0.0,0.0,0.0,0.0,0.0,0.0,0.0,0.0,0.0,0.0,0.0,0.0,0.0,0.0,0.0,0.0,0.0,0.0,0.0,0.0,0.0,0.0,0.0,0.0,0.0,0.0,0.0,0.0,0.0,0.0,0.0,0.0,0.0,0.0,0.0,0.0,0.0,0.0,0.0,0.0,0.0,0.0,0.0,0.0,0.0,0.0,0.0,0.0,0.0,0.0,0.0,0.0,0.0,0.0,0.0,0.0,0.0,0.0,0.0,0.0,2.5556,2.5527,2.5467,2.4619,2.422,2.438,0.0,0.0,0.0,0.0,0.0,0.0,0.0,0.0,0.0,0.0,0.0,0.0,0.0,0.0,0.0,0.0,0.0,0.0,0.0,0.0,0.0,0.0,0.0,0.0,0.0,0.0,0.0,0.0,0.0,0.0,0.0,0.0,0.0,0.0,0.0,0.0,0.0,0.0,0.0,0.0,0.0,0.0,0.0,0.0,0.0,0.0,0.0,0.0,0.0,0.0,0.0,0.0,0.0,0.0,0.0,0.0,0.0,0.0,0.0,0.0,0.0,0.0,0.0,0.0,0.0,0.0,0.0,0.0,0.0,0.0,0.0,0.0,0.0,0.0,0.0,0.0,0.0,0.0,0.0,0.0,0.0,0.0,0.0,0.0,0.0,0.0,0.0,0.0,0.0,0.0,0.0,0.0,0.0,0.0,0.0,0.0,0.0,0.0,0.0,0.0,0.0,0.0,0.0,0.0,0.0,0.0,0.0,0.0,2.5598,2.547,2.5425,2.552,2.6295,2.5999,0.0,0.0,0.0,0.0,0.0,0.0,0.0,0.0,0.0,0.0,0.0,0.0,0.0,0.0,0.0,0.0,0.0,0.0,0.0,0.0,0.0,0.0,0.0,0.0,0.0,0.0,0.0,0.0,0.0,0.0,0.0,0.0,0.0,0.0,0.0,0.0,0.0,0.0,0.0,0.0,0.0,0.0,0.0,0.0,0.0,0.0,0.0,0.0,0.0,0.0,0.0,0.0,0.0,0.0,0.0,0.0,0.0,0.0,0.0,0.0,0.0,0.0,0.0,0.0,0.0,0.0,0.0,0.0,0.0,0.0,0.0,0.0,0.0,0.0,0.0,0.0,0.0,0.0,0.0,0.0,0.0,0.0,0.0,0.0,0.0,0.0,0.0,0.0,0.0,0.0,0.0,0.0,0.0,0.0,0.0,0.0,0.0,0.0,0.0,0.0,0.0,0.0,0.0,0.0,0.0,0.0,0.0,0.0,0.0,2.4758,2.5077,2.5584,2.6145,2.5452,2.5063,0.0,0.0,0.0,0.0,0.0,0.0,0.0,0.0,0.0,0.0,0.0,0.0,0.0,0.0,0.0,0.0,0.0,0.0,0.0,0.0,0.0,0.0,0.0,0.0,0.0,0.0,0.0,0.0,0.0,0.0,0.0,0.0,0.0,0.0,0.0,0.0,0.0,0.0,0.0,0.0,0.0,0.0,0.0,0.0,0.0,0.0,0.0,0.0,0.0,0.0,0.0,0.0,0.0,0.0,0.0,0.0,0.0,0.0,0.0,0.0,0.0,0.0,0.0,0.0,0.0,0.0,0.0,0.0,0.0,0.0,0.0,0.0,0.0,0.0,0.0,0.0,0.0,0.0,0.0,0.0,0.0,0.0,0.0,0.0,0.0,0.0,0.0,0.0,0.0,0.0,0.0,0.0,0.0,0.0,0.0,0.0,0.0,0.0,0.0,0.0,0.0,0.0,0.0,0.0,0.0,0.0,0.0,0.0,0.0,2.4924,0.0,2.6082,2.642,2.5649,2.5151,0.0,0.0,0.0,0.0,0.0,0.0,0.0,0.0,0.0,0.0,0.0,0.0,0.0,0.0,0.0,0.0,0.0,0.0,0.0,0.0,0.0,0.0,0.0,0.0,0.0,0.0,0.0,0.0,0.0,0.0,0.0,0.0,0.0,0.0,0.0,0.0,0.0,0.0,0.0,0.0,0.0,0.0,0.0,0.0,0.0,0.0,0.0,0.0,0.0,0.0,0.0,0.0,0.0,0.0,0.0,0.0,0.0,0.0,0.0,0.0,0.0,0.0,0.0,0.0,0.0,0.0,0.0,0.0,0.0,0.0,0.0,0.0,0.0,0.0,0.0,0.0,0.0,0.0,0.0,0.0,0.0,0.0,0.0,0.0,0.0,0.0,0.0,0.0,0.0,0.0,0.0,0.0,0.0,0.0,0.0,0.0,0.0,0.0,0.0,0.0,0.0,0.0,0.0,0.0,0.0,0.0,0.0,0.0,2.5747,2.627,2.6884,2.6881,2.6305,2.7071,2.6509,0.0,0.0,0.0,0.0,0.0,0.0,0.0,0.0,0.0,0.0,0.0,0.0,0.0,0.0,0.0,0.0,0.0,0.0,0.0,0.0,0.0,0.0,0.0,0.0,0.0,0.0,0.0,0.0,0.0,0.0,0.0,0.0,0.0,0.0,0.0,0.0,0.0,0.0,0.0,0.0,0.0,0.0,0.0,0.0,0.0,0.0,0.0,0.0,0.0,0.0,0.0,0.0,0.0,0.0,0.0,0.0,0.0,0.0,0.0,0.0,0.0,0.0,0.0,0.0,0.0,0.0,0.0,0.0,0.0,0.0,0.0,0.0,0.0,0.0,0.0,0.0,0.0,0.0,0.0,0.0,0.0,0.0,0.0,0.0,0.0,0.0,0.0,0.0,0.0,0.0,0.0,0.0,0.0,0.0,0.0,0.0,0.0,0.0,0.0,0.0,0.0,0.0,0.0,0.0,0.0,0.0,0.0,0.0,0.0,2.6219,2.6339,2.6803,2.7573,2.7004,2.6327,0.0,0.0,0.0,0.0,0.0,0.0,0.0,0.0,0.0,0.0,0.0,0.0,0.0,0.0,0.0,0.0,0.0,0.0,0.0,0.0,0.0,0.0,0.0,0.0,0.0,0.0,0.0,0.0,0.0,0.0,0.0,0.0,0.0,0.0,0.0,0.0,0.0,0.0,0.0,0.0,0.0,0.0,0.0,0.0,0.0,0.0,0.0,0.0,0.0,0.0,0.0,0.0,0.0,0.0,0.0,0.0,0.0,0.0,0.0,0.0,0.0,0.0,0.0,0.0,0.0,0.0,0.0,0.0,0.0,0.0,0.0,0.0,0.0,0.0,0.0,0.0,0.0,0.0,0.0,0.0,0.0,0.0,0.0,0.0,0.0,0.0,0.0,0.0,0.0,0.0,0.0,0.0,0.0,0.0,0.0,0.0,0.0,0.0,0.0,0.0,0.0,0.0,0.0,0.0,0.0,0.0,0.0,0.0,0.0,2.6541,2.6736,2.7122,2.7783,2.7011,2.6178,2.5336,0.0,0.0,0.0,0.0,0.0,0.0,0.0,0.0,0.0,0.0,0.0,0.0,0.0,0.0,0.0,0.0,0.0,0.0,0.0,0.0,0.0,0.0,0.0,0.0,0.0,0.0,0.0,0.0,0.0,0.0,0.0,0.0,0.0,0.0,0.0,0.0,0.0,0.0,0.0,0.0,0.0,0.0,0.0,0.0,0.0,0.0,0.0,0.0,0.0,0.0,0.0,0.0,0.0,0.0,0.0,0.0,0.0,0.0,0.0,0.0,0.0,0.0,0.0,0.0,0.0,0.0,0.0,0.0,0.0,0.0,0.0,0.0,0.0,0.0,0.0,0.0,0.0,0.0,0.0,0.0,0.0,0.0,0.0,0.0,0.0,0.0,0.0,0.0,0.0,0.0,0.0,0.0,0.0,0.0,0.0,0.0,0.0,0.0,0.0,0.0,0.0,0.0,0.0,0.0,0.0,0.0,0.0,0.0,2.7175,2.7866,2.7867,2.7205,2.7245,2.6246,0.0,0.0,0.0,0.0,0.0,0.0,0.0,0.0,0.0,0.0,0.0,0.0,0.0,0.0,0.0,0.0,0.0,0.0,0.0,0.0,0.0,0.0,0.0,0.0,0.0,0.0,0.0,0.0,0.0,0.0,0.0,0.0,0.0,0.0,0.0,0.0,0.0,0.0,0.0,0.0,0.0,0.0,0.0,0.0,0.0,0.0,0.0,0.0,0.0,0.0,0.0,0.0,0.0,0.0,0.0,0.0,0.0,0.0,0.0,0.0,0.0,0.0,0.0,0.0,0.0,0.0,0.0,0.0,0.0,0.0,0.0,0.0,0.0,0.0,0.0,0.0,0.0,0.0,0.0,0.0,0.0,0.0,0.0,0.0,0.0,0.0,0.0,0.0,0.0,0.0,0.0,0.0,0.0,0.0,0.0,0.0,0.0,0.0,0.0,0.0,0.0,0.0,0.0,0.0,0.0,0.0,0.0,0.0,0.0,2.7258,2.7971,2.8465,2.8693,2.8387,2.7962,0.0,0.0,0.0,0.0,0.0,0.0,0.0,0.0,0.0,0.0,0.0,0.0,0.0,0.0,0.0,0.0,0.0,0.0,0.0,0.0,0.0,0.0,0.0,0.0,0.0,0.0,0.0,0.0,0.0,0.0,0.0,0.0,0.0,0.0,0.0,0.0,0.0,0.0,0.0,0.0,0.0,0.0,0.0,0.0,0.0,0.0,0.0,0.0,0.0,0.0,0.0,0.0,0.0,0.0,0.0,0.0,0.0,0.0,0.0,0.0,0.0,0.0,0.0,0.0,0.0,0.0,0.0,0.0,0.0,0.0,0.0,0.0,0.0,0.0,0.0,0.0,0.0,0.0,0.0,0.0,0.0,0.0,0.0,0.0,0.0,0.0,0.0,0.0,0.0,0.0,0.0,0.0,0.0,0.0,0.0,0.0,0.0,0.0,0.0,0.0,0.0,0.0,0.0,0.0,0.0,0.0,0.0,0.0,2.6877,2.7786,2.8277,2.8834,2.9437,2.8855,2.8423,0.0,0.0,0.0,0.0,0.0,0.0,0.0,0.0,0.0,0.0,0.0,0.0,0.0,0.0,0.0,0.0,0.0,0.0,0.0,0.0,0.0,0.0,0.0,0.0,0.0,0.0,0.0,0.0,0.0,0.0,0.0,0.0,0.0,0.0,0.0,0.0,0.0,0.0,0.0,0.0,0.0,0.0,0.0,0.0,0.0,0.0,0.0,0.0,0.0,0.0,0.0,0.0,0.0,0.0,0.0,0.0,0.0,0.0,0.0,0.0,0.0,0.0,0.0,0.0,0.0,0.0,0.0,0.0,0.0,0.0,0.0,0.0,0.0,0.0,0.0,0.0,0.0,0.0,0.0,0.0,0.0,0.0,0.0,0.0,0.0,0.0,0.0,0.0,0.0,0.0,0.0,0.0,0.0,0.0,0.0,0.0,0.0,0.0,0.0,0.0,0.0,0.0,0.0,0.0,0.0,0.0,0.0,0.0,2.7336,2.8512,2.873,2.912,2.9687,2.9038,2.8353,0.0,0.0,0.0,0.0,0.0,0.0,0.0,0.0,0.0,0.0,0.0,0.0,0.0,0.0,0.0,0.0,0.0,0.0,0.0,0.0,0.0,0.0,0.0,0.0,0.0,0.0,0.0,0.0,0.0,0.0,0.0,0.0,0.0,0.0,0.0,0.0,0.0,0.0,0.0,0.0,0.0,0.0,0.0,0.0,0.0,0.0,0.0,0.0,0.0,0.0,0.0,0.0,0.0,0.0,0.0,0.0,0.0,0.0,0.0,0.0,0.0,0.0,0.0,0.0,0.0,0.0,0.0,0.0,0.0,0.0,0.0,0.0,0.0,0.0,0.0,0.0,0.0,0.0,0.0,0.0,0.0,0.0,0.0,0.0,0.0,0.0,0.0,0.0,0.0,0.0,0.0,0.0,0.0,0.0,0.0,0.0,0.0,0.0,0.0,0.0,0.0,0.0,0.0,0.0,0.0,0.0,0.0,0.0,2.85,2.8752,2.9369,2.9782,2.9932,2.9761,2.9334,0.0,0.0,0.0,0.0,0.0,0.0,0.0,0.0,0.0,0.0,0.0,0.0,0.0,0.0,0.0,0.0,0.0,0.0,0.0,0.0,0.0,0.0,0.0,0.0,0.0,0.0,0.0,0.0,0.0,0.0,0.0,0.0,0.0,0.0,0.0,0.0,0.0,0.0,0.0,0.0,0.0,0.0,0.0,0.0,0.0,0.0,0.0,0.0,3.7789,0.0,0.0,0.0,0.0,0.0,0.0,0.0,0.0,0.0,0.0,0.0,0.0,0.0,0.0,0.0,0.0,0.0,0.0,0.0,0.0,0.0,0.0,0.0,0.0,0.0,0.0,0.0,0.0,0.0,0.0,0.0,0.0,0.0,0.0,0.0,0.0,0.0,0.0,0.0,0.0,0.0,0.0,0.0,0.0,0.0,0.0,0.0,0.0,0.0,0.0,0.0,0.0,0.0,0.0,0.0,0.0,0.0,0.0,0.0,2.9081,2.9424,2.9862,2.9897,2.9483,2.9878,2.9877,0.0,0.0,0.0,0.0,0.0,0.0,0.0,0.0,0.0,0.0,0.0,0.0,0.0,0.0,0.0,0.0,0.0,0.0,0.0,0.0,0.0,0.0,0.0,0.0,0.0,0.0,0.0,0.0,0.0,0.0,0.0,0.0,0.0,0.0,0.0,0.0,0.0,0.0,0.0,0.0,0.0,0.0,0.0,0.0,0.0,0.0,0.0,0.0,0.0,0.0,0.0,0.0,0.0,0.0,0.0,0.0,0.0,0.0,0.0,0.0,0.0,0.0,0.0,0.0,0.0,0.0,0.0,0.0,0.0,0.0,0.0,0.0,0.0,0.0,0.0,0.0,0.0,0.0,0.0,0.0,0.0,0.0,0.0,0.0,0.0,0.0,0.0,0.0,0.0,0.0,0.0,0.0,0.0,0.0,0.0,0.0,0.0,0.0,0.0,0.0,0.0,0.0,0.0,0.0,0.0,0.0,0.0,2.9136,2.9497,3.0087,3.0176,2.9818,2.9057,2.9651,3.0063,3.0166,0.0,0.0,0.0,0.0,0.0,0.0,0.0,0.0,0.0,0.0,0.0,0.0,0.0,0.0,0.0,0.0,0.0,0.0,0.0,0.0,0.0,0.0,0.0,0.0,0.0,0.0,0.0,0.0,0.0,0.0,0.0,0.0,0.0,0.0,0.0,0.0,0.0,0.0,3.6316,3.6728,0.0,0.0,0.0,0.0,0.0,0.0,0.0,0.0,4.0079,0.0,0.0,0.0,0.0,0.0,0.0,0.0,0.0,0.0,0.0,0.0,0.0,0.0,0.0,0.0,0.0,0.0,0.0,0.0,0.0,0.0,0.0,0.0,0.0,0.0,0.0,0.0,0.0,0.0,0.0,0.0,0.0,0.0,0.0,0.0,0.0,0.0,0.0,0.0,0.0,0.0,0.0,0.0,0.0,0.0,0.0,0.0,0.0,0.0,0.0,0.0,0.0,0.0,0.0,0.0,0.0,2.9104,2.9679,3.007,3.0171,3.0185,3.0121,2.9954,2.9358,2.9384,3.0089,0.0,0.0,0.0,0.0,0.0,0.0,0.0,0.0,0.0,0.0,0.0,0.0,0.0,0.0,0.0,0.0,0.0,0.0,0.0,0.0,0.0,0.0,0.0,0.0,0.0,0.0,0.0,0.0,0.0,0.0,0.0,0.0,0.0,0.0,0.0,0.0,0.0,0.0,0.0,3.7894,3.8081,0.0,0.0,0.0,0.0,0.0,0.0,0.0,0.0,4.1562,0.0,0.0,0.0,0.0,0.0,0.0,0.0,0.0,0.0,0.0,0.0,0.0,0.0,0.0,0.0,0.0,0.0,0.0,0.0,0.0,0.0,0.0,0.0,0.0,0.0,0.0,0.0,0.0,0.0,0.0,0.0,0.0,0.0,0.0,0.0,0.0,0.0,0.0,0.0,0.0,0.0,0.0,0.0,0.0,0.0,0.0,0.0,0.0,0.0,0.0,0.0,0.0,0.0,0.0,0.0,2.9771,3.0043,3.0204,3.0204,3.0204,2.998,2.9487,2.9465,2.9443,0.0,0.0,0.0,0.0,0.0,0.0,0.0,0.0,0.0,0.0,0.0,0.0,0.0,0.0,0.0,0.0,0.0,0.0,0.0,0.0,0.0,0.0,0.0,0.0,0.0,0.0,0.0,0.0,0.0,0.0,0.0,0.0,0.0,0.0,0.0,0.0,0.0,0.0,0.0,0.0,3.8078,3.8438,3.9142,0.0,0.0,0.0,0.0,0.0,0.0,4.0614,4.1328,0.0,0.0,0.0,0.0,0.0,0.0,0.0,0.0,0.0,0.0,0.0,0.0,0.0,0.0,0.0,0.0,0.0,0.0,0.0,0.0,0.0,0.0,0.0,0.0,0.0,0.0,0.0,0.0,0.0,0.0,0.0,0.0,0.0,0.0,0.0,0.0,0.0,0.0,0.0,0.0,0.0,0.0,0.0,0.0,0.0,0.0,0.0,0.0,0.0,0.0,0.0,0.0,0.0,0.0,0.0,3.0322,3.026,3.0218,3.0211,3.0185,2.9921,2.9367,2.9996,2.9996,0.0,0.0,0.0,0.0,0.0,0.0,0.0,0.0,0.0,0.0,0.0,0.0,0.0,0.0,0.0,0.0,0.0,0.0,0.0,0.0,0.0,0.0,0.0,0.0,0.0,0.0,0.0,0.0,0.0,0.0,0.0,0.0,0.0,0.0,0.0,0.0,0.0,0.0,0.0,0.0,0.0,3.8995,3.943,4.0174,0.0,0.0,0.0,0.0,4.1407,4.1146,0.0,0.0,0.0,0.0,0.0,0.0,0.0,0.0,0.0,0.0,0.0,0.0,0.0,0.0,0.0,0.0,0.0,0.0,0.0,0.0,0.0,0.0,0.0,0.0,0.0,0.0,0.0,0.0,0.0,0.0,0.0,0.0,0.0,0.0,0.0,0.0,0.0,0.0,0.0,0.0,0.0,0.0,0.0,0.0,0.0,0.0,0.0,0.0,0.0,0.0,0.0,0.0,0.0,0.0,0.0,0.0,3.0406,3.033,3.0253,3.0192,3.015,3.0426,3.1066,3.1137,3.1116,0.0,0.0,0.0,0.0,0.0,0.0,0.0,0.0,0.0,0.0,0.0,0.0,0.0,0.0,0.0,0.0,0.0,0.0,0.0,0.0,0.0,0.0,0.0,0.0,0.0,0.0,0.0,0.0,0.0,0.0,0.0,0.0,0.0,0.0,0.0,0.0,0.0,0.0,0.0,0.0,0.0,4.0633,3.9563,4.0157,4.0583,0.0,0.0,4.1529,4.1365,4.1894,0.0,0.0,0.0,0.0,0.0,0.0,0.0,0.0,0.0,0.0,0.0,0.0,0.0,0.0,0.0,0.0,0.0,0.0,0.0,0.0,0.0,0.0,0.0,0.0,0.0,0.0,0.0,0.0,0.0,0.0,0.0,0.0,0.0,0.0,0.0,0.0,0.0,0.0,0.0,0.0,0.0,0.0,0.0,0.0,0.0,0.0,0.0,0.0,0.0,0.0,0.0,0.0,0.0,0.0,0.0,3.0496,3.0479,3.0797,3.0725,3.0239,3.1043,3.1466,3.1355,3.1727,3.1929,0.0,0.0,0.0,0.0,0.0,0.0,0.0,0.0,0.0,0.0,0.0,0.0,0.0,0.0,0.0,0.0,0.0,0.0,0.0,0.0,0.0,0.0,0.0,0.0,0.0,0.0,0.0,0.0,0.0,0.0,0.0,0.0,0.0,0.0,0.0,0.0,0.0,0.0,0.0,0.0,0.0,0.0,4.1666,4.2125,0.0,0.0,0.0,4.2881,4.2568,0.0,0.0,0.0,0.0,0.0,0.0,0.0,0.0,0.0,0.0,0.0,0.0,0.0,0.0,0.0,0.0,0.0,0.0,0.0,0.0,0.0,0.0,0.0,0.0,0.0,0.0,0.0,0.0,0.0,0.0,0.0,0.0,0.0,0.0,0.0,0.0,0.0,0.0,0.0,0.0,0.0,0.0,0.0,0.0,0.0,0.0,0.0,0.0,0.0,0.0,0.0,0.0,0.0,0.0,0.0,0.0,0.0,3.0495,3.1175,3.1217,3.0571,3.1882,3.2393,3.1944,3.2434,0.0,0.0,0.0,0.0,0.0,0.0,0.0,0.0,0.0,0.0,0.0,0.0,0.0,0.0,0.0,0.0,0.0,0.0,0.0,0.0,0.0,0.0,0.0,0.0,0.0,0.0,0.0,3.5938,0.0,0.0,0.0,0.0,0.0,0.0,0.0,0.0,0.0,0.0,0.0,0.0,0.0,0.0,4.2869,4.3515,4.3961,4.4282,0.0,0.0,4.4196,4.3943,4.393,4.384,0.0,0.0,0.0,0.0,0.0,0.0,0.0,0.0,0.0,0.0,0.0,0.0,0.0,0.0,0.0,0.0,0.0,0.0,0.0,0.0,0.0,0.0,0.0,0.0,0.0,0.0,0.0,0.0,0.0,0.0,0.0,0.0,0.0,0.0,0.0,0.0,0.0,0.0,0.0,0.0,0.0,0.0,0.0,0.0,0.0,0.0,0.0,0.0,0.0,0.0,0.0,0.0,0.0,0.0,3.0533,3.0447,3.1243,3.1565,3.1358,3.2153,3.2929,3.3605,3.3544,3.3554,0.0,0.0,0.0,0.0,0.0,0.0,0.0,0.0,0.0,0.0,0.0,0.0,0.0,0.0,0.0,0.0,0.0,0.0,0.0,0.0,0.0,0.0,0.0,0.0,0.0,0.0,0.0,0.0,0.0,0.0,0.0,0.0,0.0,0.0,0.0,0.0,0.0,0.0,0.0,0.0,0.0,4.5008,4.4328,4.4832,4.5555,0.0,4.5795,4.5312,4.5261,4.4562,4.3906,4.3638,0.0,0.0,0.0,0.0,0.0,0.0,0.0,0.0,0.0,0.0,0.0,0.0,0.0,0.0,0.0,0.0,0.0,0.0,0.0,0.0,0.0,0.0,0.0,0.0,0.0,0.0,0.0,0.0,0.0,0.0,0.0,0.0,0.0,0.0,0.0,0.0,0.0,0.0,0.0,0.0,0.0,0.0,0.0,0.0,0.0,0.0,0.0,0.0,0.0,0.0,0.0,0.0,0.0,3.0552,3.0485,3.1724,3.2115,3.1608,3.323,3.4008,3.3729,3.4112,3.4376,0.0,0.0,0.0,0.0,0.0,0.0,0.0,0.0,0.0,0.0,0.0,0.0,0.0,0.0,0.0,0.0,0.0,0.0,0.0,0.0,0.0,0.0,0.0,0.0,0.0,0.0,0.0,0.0,3.9675,4.0305,4.1427,0.0,0.0,0.0,0.0,0.0,0.0,0.0,0.0,0.0,0.0,4.6392,4.7039,4.703,0.0,0.0,4.7075,4.6596,4.5551,4.5568,4.5382,4.4342,4.4418,0.0,0.0,0.0,0.0,0.0,0.0,0.0,0.0,0.0,0.0,0.0,0.0,0.0,0.0,0.0,0.0,0.0,0.0,0.0,0.0,0.0,0.0,0.0,0.0,0.0,0.0,0.0,0.0,0.0,0.0,0.0,0.0,0.0,0.0,0.0,0.0,0.0,0.0,0.0,0.0,0.0,0.0,0.0,0.0,0.0,0.0,0.0,0.0,0.0,0.0,0.0,0.0,3.1327,3.1242,3.2551,3.305,3.2711,3.4316,3.4823,3.4128,3.4557,3.4849,0.0,0.0,0.0,0.0,0.0,0.0,0.0,0.0,0.0,0.0,0.0,0.0,0.0,0.0,0.0,0.0,0.0,0.0,0.0,0.0,0.0,0.0,0.0,0.0,0.0,0.0,0.0,0.0,4.1898,4.2455,4.3158,0.0,0.0,0.0,0.0,0.0,0.0,0.0,0.0,0.0,0.0,4.7843,4.9082,4.8819,4.8493,4.8494,4.8392,4.7897,4.6593,4.6973,4.6929,4.5535,0.0,0.0,0.0,0.0,0.0,0.0,0.0,0.0,0.0,0.0,0.0,0.0,0.0,0.0,0.0,0.0,0.0,0.0,0.0,0.0,0.0,0.0,0.0,0.0,0.0,0.0,0.0,2.9501,0.0,0.0,2.8319,0.0,0.0,0.0,0.0,0.0,0.0,0.0,0.0,0.0,0.0,0.0,0.0,0.0,0.0,0.0,0.0,0.0,0.0,0.0,0.0,0.0,0.0,3.3074,3.2952,3.3757,3.4511,3.5143,3.527,3.5207,3.4982,3.4936,3.4879,3.4817,0.0,0.0,0.0,0.0,0.0,0.0,0.0,0.0,0.0,0.0,0.0,0.0,0.0,0.0,0.0,0.0,0.0,0.0,0.0,0.0,0.0,0.0,0.0,0.0,0.0,0.0,4.3847,4.4121,4.4434,0.0,0.0,0.0,0.0,0.0,0.0,0.0,0.0,0.0,4.9267,4.9323,4.9459,5.0011,4.9965,5.0022,5.0465,4.9836,4.9163,4.8786,4.8729,4.8414,0.0,0.0,0.0,0.0,0.0,0.0,0.0,0.0,0.0,0.0,0.0,0.0,0.0,0.0,0.0,0.0,0.0,0.0,0.0,0.0,0.0,0.0,0.0,0.0,0.0,0.0,0.0,3.2537,3.1995,0.0,0.0,0.0,0.0,0.0,0.0,0.0,0.0,0.0,0.0,0.0,3.6618,3.7657,0.0,0.0,0.0,0.0,0.0,0.0,0.0,0.0,0.0,0.0,0.0,0.0,3.3919,3.3931,3.5181,3.5724,3.5446,3.5913,3.5863,3.5223,3.5101,3.5249,3.5721,0.0,0.0,0.0,0.0,0.0,0.0,0.0,0.0,0.0,0.0,0.0,0.0,0.0,0.0,0.0,0.0,0.0,0.0,0.0,0.0,0.0,0.0,0.0,0.0,0.0,4.5559,0.0,0.0,0.0,0.0,0.0,0.0,0.0,0.0,0.0,0.0,4.8608,4.9456,5.0732,5.0582,5.0701,5.1563,5.1336,5.1266,0.0,0.0,0.0,0.0,0.0,0.0,0.0,0.0,0.0,0.0,0.0,0.0,0.0,4.8498,4.8086,4.7026,4.7051,4.7009,4.6266,0.0,0.0,0.0,0.0,0.0,0.0,0.0,0.0,0.0,0.0,0.0,0.0,0.0,0.0,3.4273,3.3746,3.3482,0.0,0.0,0.0,0.0,0.0,0.0,0.0,0.0,3.8034,3.8894,3.8403,3.9431,3.9334,3.8325,3.8874,3.8626,0.0,0.0,0.0,0.0,0.0,0.0,0.0,0.0,3.567,3.5666,3.6357,3.6617,3.6385,3.6231,3.5902,3.5331,3.5412,3.5846,3.6604,3.6918,3.7365,0.0,0.0,0.0,0.0,0.0,0.0,0.0,0.0,0.0,0.0,0.0,0.0,0.0,0.0,0.0,0.0,0.0,0.0,0.0,0.0,0.0,0.0,0.0,4.7236,0.0,0.0,0.0,0.0,0.0,0.0,0.0,0.0,0.0,4.9612,5.008,5.0804,5.1825,5.167,5.1703,5.2268,0.0,0.0,0.0,0.0,0.0,0.0,0.0,5.1742,5.169,5.1102,5.0876,5.1662,5.1399,5.0851,5.0127,0.0,0.0,4.7967,4.7919,4.7905,4.7359,4.6982,4.6889,4.7167,4.7105,4.7005,0.0,0.0,0.0,0.0,3.3576,0.0,0.0,0.0,3.5991,3.6153,0.0,3.5563,0.0,0.0,0.0,0.0,3.3763,3.6851,0.0,0.0,3.97,4.0896,4.0849,4.0864,4.0849,4.0805,4.0747,4.081,4.0797,3.852,0.0,0.0,0.0,0.0,0.0,0.0,3.8304,3.8099,3.7366,3.7306,3.7964,3.644,3.551,3.5434,3.5955,3.6635,3.7431,3.8214,3.8738,3.886,3.8866,0.0,0.0,0.0,0.0,0.0,0.0,0.0,0.0,0.0,0.0,0.0,0.0,0.0,0.0,0.0,0.0,0.0,0.0,0.0,0.0,4.8176,0.0,0.0,0.0,0.0,0.0,0.0,0.0,0.0,0.0,5.2393,5.2169,5.1985,5.2057,5.2603,0.0,0.0,0.0,0.0,5.2261,5.2578,5.252,5.2661,5.319,5.3809,5.4002,5.3363,0.0,0.0,5.2403,5.2071,5.1854,5.1549,5.1257,5.0759,4.9385,4.9097,4.9001,4.892,4.8869,4.8984,4.8954,4.8695,4.8512,3.5278,0.0,0.0,0.0,0.0,3.7327,3.724,3.6808,3.7637,3.7735,3.73,3.6968,0.0,0.0,0.0,0.0,0.0,0.0,3.8263,3.8139,4.0003,4.0904,4.0896,4.0854,4.0815,4.0805,4.0869,4.0896,4.0917,4.0875,4.0094,3.8637,0.0,0.0,0.0,0.0,3.9735,3.922,3.9444,3.9419,3.9058,3.8588,3.797,3.7247,3.7356,3.7774,3.8518,3.9308,4.0001,4.0553,4.1159,0.0,0.0,0.0,0.0,0.0,0.0,0.0,0.0,0.0,0.0,0.0,0.0,0.0,0.0,0.0,0.0,0.0,0.0,0.0,4.8157,4.8176,4.8649,0.0,0.0,0.0,0.0,0.0,0.0,0.0,0.0,0.0,5.4992,5.416,5.3653,0.0,0.0,5.3963,5.3396,5.3008,5.2863,5.2952,5.3262,0.0,5.4526,5.4158,5.3987,5.4543,5.4166,5.3321,5.2079,5.1824,5.1738,5.1551,5.1457,5.1428,5.1553,5.0581,4.9673,4.9154,4.9018,4.9018,4.9018,4.897,4.8889,3.6059,3.6397,3.6884,3.7558,3.8325,3.8706,3.8641,3.8392,3.9126,3.928,3.8968,3.8805,3.8354,3.7667,3.6805,0.0,0.0,0.0,3.8961,3.9023,4.0351,4.0983,4.0972,4.0921,4.092,4.092,4.0968,4.1151,4.1459,4.2015,4.1941,4.1233,0.0,4.0893,4.0459,4.0994,4.1048,4.0591,4.0349,3.9971,3.9457,3.9134,3.8839,3.8525,3.8458,3.8764,3.9506,4.0558,4.1345,4.1749,4.2582,4.2784,0.0,0.0,0.0,0.0,0.0,0.0,0.0,0.0,0.0,0.0,0.0,4.7514,4.7127,0.0,0.0,0.0,4.8464,4.9387,5.0027,5.0163,0.0,0.0,0.0,0.0,0.0,0.0,0.0,5.5528,5.5657,5.5803,5.6227,5.5852,5.538,5.5027,5.4728,5.4311,5.361,0.0,5.2724,5.2977,5.358,5.4269,5.508,5.4946,5.4945,5.5571,5.4892,5.3946,5.3036,5.2572,5.226,5.1998,5.1703,5.165,5.2149,5.1114,5.0197,4.9962,4.9911,4.9782,4.9314,4.9138,4.9077,3.6463,3.7195,3.7194,3.7734,3.865,3.9399,3.9316,3.8822,4.034,4.0572,3.9954,4.0727,4.0145,3.8473,3.7593,0.0,3.7359,3.8968,3.9704,3.9841,4.0689,4.1108,4.1114,4.1097,4.1107,4.1107,4.1169,4.1584,4.2284,4.2443,4.287,4.3607,4.368,4.3593,4.3374,4.2636,4.2232,4.2096,4.0527,3.9685,3.9618,3.8826,3.873,3.9401,3.9331,3.9646,4.0403,4.1807,4.2585,4.2636,4.3376,4.3777,4.3682,0.0,0.0,0.0,0.0,0.0,0.0,0.0,0.0,0.0,0.0,0.0,0.0,0.0,0.0,4.8705,4.9965,0.0,5.2919,5.329,0.0,0.0,0.0,5.4955,5.5785,5.5603,5.5676,5.6402,0.0,0.0,5.6487,5.7138,5.7119,5.5801,5.496,5.4182,5.3385,5.2727,5.2334,5.2858,5.3599,5.4358,5.5071,5.5588,5.5892,5.5937,5.5544,5.4758,5.4348,5.3689,5.3117,5.2793,5.212,5.1695,5.1712,5.1294,5.0819,5.1286,5.1217,5.08,4.9774,4.9364,4.9178,3.648,3.7191,3.7199,3.8051,3.9414,3.9661,4.0018,4.0381,4.018,4.0333,4.074,4.0977,4.0165,3.8527,3.7661,3.7285,3.736,3.8388,3.9224,3.9845,4.0691,4.1108,4.1114,4.1117,4.1107,4.1149,4.1731,4.211,4.2362,4.3592,4.429,4.4501,4.5104,4.4433,4.2597,4.2913,4.2805,4.2184,4.1775,4.1546,4.1505,4.0632,4.0243,4.0364,4.0208,4.0452,4.1197,4.2062,4.2818,4.3472,4.4211,4.4326,4.3739,4.408,0.0,0.0,0.0,0.0,0.0,0.0,0.0,0.0,0.0,5.0274,5.01,0.0,5.1911,0.0,5.3308,5.3774,5.3551,5.4107,0.0,0.0,5.5969,5.6045,5.7245,5.7267,5.7207,5.7235,5.7751,5.8141,5.8141,5.8289,5.8201,5.7678,5.7134,5.6288,5.494,5.4554,5.4018,5.3276,5.4054,5.4973,5.5143,5.483,5.4634,5.4554,5.3956,5.3609,5.4047,5.3513,5.3149,5.3522,5.3052,5.2848,5.3202,5.3166,5.2722,5.2259,5.1238,5.0287,4.9872,4.9619,4.9257,3.6269,3.6738,3.75,3.8144,3.8671,3.9034,3.9698,4.0466,4.0034,4.0305,4.1008,4.0303,3.9465,3.8549,3.7683,3.7521,3.7926,3.8746,3.9579,4.0383,4.0881,4.1103,4.1103,4.1114,4.1286,4.1653,4.2094,4.2684,4.3444,4.4338,4.4977,4.5323,4.5774,4.5117,4.3417,4.3781,4.3592,4.2757,4.2731,4.2734,4.271,4.2199,4.1899,4.186,4.1735,4.1808,4.2202,4.2822,4.3387,4.3916,4.4604,4.4988,4.4992,4.5369,4.5605,0.0,0.0,0.0,0.0,0.0,0.0,0.0,0.0,0.0,0.0,0.0,5.3504,5.4743,5.5196,5.5511,5.5799,5.6292,5.7051,5.8227,5.7932,5.7895,5.8501,5.8446,5.8252,5.805,5.8438,5.8677,5.8677,5.8677,5.8656,5.8471,5.8119,5.7339,5.6113,5.5487,5.4903,5.4109,5.4661,5.517,5.5076,5.4691,5.4353,5.4146,5.3547,5.3171,5.3522,5.2927,5.2544,5.2977,5.2712,5.2475,5.286,5.2863,5.2572,5.2042,5.1218,5.0526,5.0183,4.9999,4.9677,3.5984,3.6123,3.7741,3.7931,3.7205,3.8103,3.9041,3.9895,3.9895,4.0289,4.0839,3.9295,3.8609,3.8549,3.7698,3.7848,3.8786,3.9486,4.0276,4.1074,4.1111,4.1117,4.111,4.1208,4.1614,4.2276,4.2528,4.3331,4.4634,4.4865,4.5269,4.5846,4.5963,4.5559,4.4749,4.4874,4.451,4.3596,4.3588,4.3552,4.3565,4.3388,4.3312,4.3305,4.3236,4.3196,4.3273,4.3838,4.4268,4.4432,4.5084,4.5862,4.6689,4.6696,4.7076,0.0,4.872,0.0,0.0,0.0,0.0,0.0,0.0,0.0,0.0,5.4286,5.4962,5.6318,5.6505,5.7103,5.8451,5.8767,5.9155,5.9779,5.9826,5.9694,5.9417,5.9159,5.8924,5.8737,5.8677,5.8677,5.8677,5.8677,5.8677,5.8656,5.8385,5.7866,5.7005,5.6159,5.5577,5.5391,5.5413,5.5552,5.5245,5.4985,5.4792,5.4557,5.3842,5.332,5.3482,5.2698,5.2068,5.2275,5.2142,5.1869,5.174,5.1668,5.1515,5.1369,5.1149,5.09,5.0554,5.0369,5.007,3.5972,3.6027,3.7102,3.7045,3.6375,3.7911,3.9066,3.9824,3.9873,3.9978,4.0039,3.906,3.8607,3.8542,3.7696,3.8141,3.9566,3.9735,4.027,4.1113,4.1103,4.1109,4.1149,4.177,4.214,4.2393,4.3739,4.4207,4.3856,4.5196,4.558,4.5064,4.5672,4.5559,4.4769,0.0,0.0,0.0,4.4491,4.4455,4.4428,4.3711,4.3311,4.3298,4.3188,0.0,4.4066,4.4756,4.5457,4.6117,4.6929,0.0,0.0,0.0,0.0,0.0,0.0,0.0,0.0,0.0,0.0,0.0,5.4793,5.4802,5.5134,5.7022,5.8054,5.7647,5.8778,5.9393,5.9035,5.9616,6.0059,6.0182,5.9912,5.9645,5.9417,5.9178,5.8924,5.8719,5.8698,5.8698,5.8677,5.8677,5.8677,5.8677,5.8635,5.8519,5.8307,5.7565,5.6901,5.6366,5.6502,5.6673,5.6055,5.5299,5.507,5.5322,5.443,5.3851,5.4213,5.3755,5.3219,5.3237,5.2743,5.2168,5.192,5.1687,5.1477,5.1176,5.1025,5.0918,5.0836,5.0599,5.0161,3.6304,3.6068,3.7792,3.7565,0.0,3.8743,3.9328,3.858,3.9519,3.9881,3.9882,3.9431,3.9018,3.86,3.8598,3.9023,3.9819,4.0241,4.0678,4.1093,4.11,4.132,4.1692,4.2101,4.2744,4.3604,4.4433,4.4861,4.4887,4.5653,4.5833,4.5454,4.5867,4.5828,4.5434,4.5837,4.5813,4.5357,4.5345,4.5329,4.5291,4.5221,4.5181,4.5181,4.5517,0.0,0.0,0.0,0.0,0.0,0.0,0.0,0.0,4.9058,0.0,5.0495,5.1659,5.2337,5.2431,5.3577,5.4575,5.5073,5.6203,5.6994,5.7264,5.8767,5.9474,5.9011,5.9578,5.9847,5.9591,5.9855,6.0087,6.0167,5.9994,5.9765,5.9524,5.9382,5.9177,5.8904,5.8843,5.8803,5.8698,5.8677,5.8677,5.8677,5.8677,5.8698,5.8656,5.8381,5.7737,5.6592,5.6908,5.6868,5.5756,5.5482,5.5304,5.5436,5.4916,5.4444,5.4407,5.3945,5.3518,5.3248,5.2744,5.228,5.2114,5.1804,5.1495,5.1324,5.1079,5.0918,5.0891,5.0782,5.041,3.6882,3.657,3.8833,3.8411,3.644,3.9531,3.9546,3.7527,3.9002,0.0,0.0,3.9648,3.9334,3.8858,3.9561,3.9947,4.0073,4.0783,4.1107,4.1103,4.1247,4.1685,4.2317,4.2632,4.3529,4.4871,4.5016,4.5328,4.5889,4.5983,4.5978,4.5916,4.6033,4.6115,4.6111,4.6266,4.6273,4.6143,4.6189,4.6274,4.6377,4.6989,4.7347,4.7328,4.8024,4.8399,4.8413,4.8398,4.8431,4.8528,4.8593,4.8981,4.9787,5.045,5.1187,5.202,5.3229,5.3697,5.3233,5.4764,5.5614,5.5314,5.7408,5.8873,5.9211,5.977,6.0053,5.9944,5.9643,5.9556,5.9828,5.9796,5.9809,6.0007,5.996,5.9834,5.9633,5.9562,5.9382,5.912,5.9043,5.8984,5.8843,5.8821,5.8782,5.8821,5.8842,5.8781,5.876,5.8698,5.8132,5.6885,5.717,5.6977,5.5673,5.5598,5.5816,5.5661,5.5414,5.503,5.4456,5.41,5.3727,5.3257,5.2799,5.2602,5.2335,5.1896,5.1556,5.1479,5.1185,5.0891,5.0891,5.0891,5.0697,3.7556,3.823,3.9285,3.8684,3.718,3.9069,3.927,3.828,3.8573,3.869,3.8705,3.8693,3.9057,3.9628,3.9764,4.0227,4.0912,4.1048,4.1111,4.1151,4.1862,4.2272,4.2458,4.3923,4.474,4.5026,4.5675,4.5687,4.5197,4.5813,4.582,4.5258,4.5809,4.6165,4.617,4.6851,4.7157,4.702,4.707,4.7442,4.8128,4.8196,4.8217,4.8217,4.8353,4.8428,4.849,4.9139,4.948,4.9523,5.0197,5.065,5.0697,5.0824,5.1269,5.2084,5.2333,5.2671,5.3342,5.4919,5.6493,5.7883,5.9449,6.0092,5.9458,5.9826,5.9969,5.9706,5.9396,5.927,5.9307,5.9398,5.954,5.973,5.9717,5.9631,5.9616,5.9473,5.9345,5.9272,5.9253,5.9234,5.9196,5.9178,5.9178,5.9197,5.9158,5.9158,5.8983,5.8803,5.8266,5.7513,5.7777,5.7725,5.6786,5.6599,5.6638,5.6575,5.6021,5.5617,5.5397,5.5298,5.4924,5.4129,5.3839,5.3404,5.2501,5.1988,5.1687,5.1436,5.1141,5.0918,5.0918,5.0891,5.0838,3.8011,3.8601,3.9813,3.9108,3.717,3.747,3.763,3.7705,3.7721,3.8038,3.8536,3.8992,3.9416,3.984,4.0293,4.0722,4.1111,4.1114,4.1367,4.181,4.2214,4.2894,4.3814,4.4634,4.5217,4.5657,4.6017,4.5989,4.567,4.602,4.5994,4.5652,4.603,4.6437,4.6872,4.7258,4.7864,4.8672,4.8253,4.8136,4.8449,4.8871,4.911,4.9173,4.956,4.9852,4.9912,5.0221,5.0414,5.0395,5.0782,5.0988,5.0966,5.1412,5.1823,5.2206,5.3011,5.3447,5.3436,5.4649,5.6267,5.8297,5.9037,5.9392,5.9376,5.9615,5.9605,5.9251,5.8911,5.8789,5.8949,5.9083,5.9289,5.9679,5.9715,5.977,5.977,5.9702,5.9597,5.9472,5.9455,5.9419,5.9309,5.929,5.929,5.929,5.929,5.9253,5.9177,5.9042,5.8583,5.7589,5.7861,5.784,5.7184,5.7275,5.7409,5.7446,5.7152,5.673,5.64,5.6253,5.5676,5.4503,5.4162,5.3658,5.2599,5.2173,5.1878,5.1589,5.1281,5.1088,5.0972,5.0891,5.0891,3.8675,3.9077,4.0339,3.951,3.731,3.6429,3.6452,3.7059,3.7085,3.7727,3.8778,3.9492,3.988,4.0153,4.0814,4.1111,4.1132,4.1306,4.1754,4.2383,4.2811,4.3727,4.4937,4.519,4.5636,4.6175,4.6227,4.6238,4.6228,4.6236,4.6211,4.6258,4.6468,4.6919,4.7494,4.7889,4.8714,4.9885,4.945,4.9112,4.903,4.9681,5.0058,5.0132,5.0687,5.1056,5.1114,5.1037,5.1049,5.1042,5.1037,5.1043,5.1082,5.1683,5.2109,5.2332,5.3414,5.4141,5.4165,5.4786,5.6133,5.8295,5.8557,5.8777,5.9179,5.9475,5.9432,5.9027,5.8626,5.8474,5.8686,5.8849,5.9103,5.9559,5.9784,5.9885,5.9904,5.9921,5.9853,5.9702,5.9668,5.9597,5.9491,5.9437,5.9455,5.9454,5.9437,5.9419,5.9364,5.929,5.8743,5.8103,5.8012,5.8002,5.7365,5.7624,5.7886,5.7978,5.7923,5.7611,5.7171,5.6928,5.6181,5.4802,5.4182,5.3627,5.2804,5.2322,5.2036,5.179,5.1513,5.1176,5.0954,5.0891,5.0891,3.9788,4.0553,4.0738,3.9768,3.8073,3.721,3.6925,3.7031,3.7083,3.8056,3.9501,3.9688,4.0166,4.083,4.1033,4.1116,4.1169,4.1914,4.2324,4.2593,4.404,4.4841,4.5114,4.5797,4.6209,4.6289,4.6289,4.6287,4.6284,4.6279,4.6311,4.6397,4.7079,4.7485,4.7706,4.9062,4.9887,4.9997,5.0636,5.0941,5.086,5.0932,5.099,5.0977,5.1049,5.112,5.1178,5.1126,5.112,5.1186,5.1183,5.119,5.121,5.1287,5.1637,5.2349,5.2576,5.3521,5.5668,5.6024,5.6765,5.8317,5.9067,5.9304,5.9158,5.9619,5.9779,5.9324,5.8809,5.8532,5.8553,5.8749,5.9026,5.9345,5.9683,5.9921,5.9958,5.9921,5.9885,5.9888,5.9909,5.9853,5.982,5.9803,5.9839,5.99,5.9921,5.9853,5.966,5.9514,5.9253,5.8809,5.8617,5.8323,5.7968,5.7946,5.7978,5.7978,5.7978,5.7886,5.7666,5.7102,5.6255,5.5208,5.4378,5.3608,5.2834,5.2293,5.2126,5.1963,5.1665,5.1228,5.0998,5.0918,5.0918,3.9908,4.0784,4.0745,4.0062,3.8886,3.7588,3.7308,3.7759,3.7849,3.8557,3.9688,4.0236,4.0676,4.1016,4.1074,4.1099,4.1166,4.2002,4.2667,4.3246,4.4441,4.5284,4.5794,4.6109,4.6288,4.6289,4.6289,4.6289,4.6304,4.6296,4.6541,4.7042,4.7451,4.8066,4.9006,4.9742,5.0303,5.0762,5.1101,5.1243,5.1201,5.1139,5.1122,5.115,5.1147,5.1153,5.1185,5.1153,5.1181,5.12,5.1208,5.1435,5.1882,5.1901,5.2271,5.3106,5.3669,5.4822,5.6827,5.6488,5.7071,5.9061,5.9021,5.9191,5.9983,6.0217,6.0223,5.9954,5.9196,5.8642,5.8603,5.8769,5.9006,5.929,5.9666,6.0091,6.0549,6.0205,6.0053,6.047,6.0205,5.9921,5.9921,5.9921,6.0129,6.0435,6.0605,6.0482,6.0368,6.0317,5.989,5.9213,5.8885,5.864,5.8253,5.8047,5.8001,5.7978,5.7978,5.7978,5.7863,5.7226,5.6287,5.5381,5.45,5.3598,5.2666,5.2446,5.2293,5.2108,5.184,5.1436,5.1193,5.1141,5.1088,4.0028,4.0687,4.0746,4.0243,3.9425,3.8484,3.8399,3.9015,3.9315,3.9809,4.0426,4.1081,4.1214,4.1027,4.1073,4.1213,4.1547,4.237,4.3237,4.4096,4.4941,4.5691,4.6262,4.6306,4.6288,4.6289,4.6289,4.6287,4.6319,4.6581,4.6983,4.7567,4.8053,4.8901,4.9993,5.0299,5.0709,5.1246,5.13,5.13,5.1288,5.1206,5.118,5.1235,5.1215,5.1215,5.124,5.1215,5.1316,5.1564,5.1583,5.1947,5.2727,5.2805,5.3163,5.4005,5.4867,5.5851,5.7084,5.6769,5.7348,5.9032,5.8934,5.9325,6.0427,6.0678,6.0578,6.0463,5.976,5.9232,5.8988,5.9084,5.9345,5.9771,6.0141,6.0662,6.1381,6.0785,6.0454,6.0928,6.0375,6.0015,6.0186,6.03,6.053,6.1269,6.1233,6.1031,6.0909,6.0671,6.0114,5.9309,5.925,5.9047,5.8462,5.8186,5.8092,5.802,5.7978,5.7978,5.7895,5.7143,5.6478,5.5676,5.4618,5.378,5.3119,5.2819,5.241,5.2156,5.1938,5.1715,5.1479,5.141,5.1281,4.0511,4.0609,4.0746,4.0345,3.9567,4.0234,4.0654,4.082,4.1567,4.1984,4.2029,4.2187,4.1793,4.1136,4.1237,4.158,4.2364,4.3229,4.4081,4.4894,4.5802,4.6257,4.6302,4.6306,4.6288,4.6289,4.6288,4.6323,4.6411,4.7104,4.7547,4.7723,4.912,4.9967,5.0266,5.0855,5.1245,5.1281,5.13,5.13,5.13,5.13,5.1306,5.1369,5.1244,5.124,5.1321,5.1244,5.1619,5.2524,5.2539,5.2912,5.3628,5.3774,5.4161,5.4905,5.5721,5.6192,5.6427,5.6982,5.7723,5.8491,5.9233,5.9952,6.0715,6.0808,6.0793,6.0652,6.0526,6.0182,6.0001,5.9972,6.0269,6.1004,6.1282,6.1755,6.2471,6.1549,6.1112,6.1001,6.047,6.0359,6.0928,6.1041,6.1439,6.1915,6.1601,6.1078,6.0972,6.028,5.9776,5.9647,5.9719,5.9739,5.865,5.8688,5.8504,5.8326,5.8395,5.8056,5.7582,5.7113,5.6598,5.5915,5.4807,5.4047,5.3608,5.3121,5.2544,5.2246,5.2156,5.1963,5.174,5.169,5.1564,4.0633,4.072,4.0784,4.0905,4.1149,4.0967,4.1479,4.2445,4.2267,4.2518,4.2985,4.3109,4.2953,4.2673,4.2692,4.2582,4.2539,4.3877,4.4708,4.509,4.5903,4.6301,4.6302,4.6288,4.6289,4.6289,4.6307,4.6576,4.7132,4.7455,4.8172,4.9126,4.9781,5.0335,5.0868,5.1184,5.1303,5.13,5.13,5.1331,5.1353,5.1319,5.1549,5.2071,5.1557,5.1548,5.2127,5.2091,5.2516,5.3389,5.3428,5.379,5.4556,5.5175,5.5575,5.592,5.6658,5.7081,5.7118,5.7754,5.8504,5.9282,5.9631,6.021,6.0848,6.1089,6.1263,6.1628,6.1223,6.1185,6.189,6.1499,6.1329,6.2075,6.2275,6.2387,6.2418,6.1771,6.1115,6.1058,6.0814,6.1003,6.1686,6.1951,6.2273,6.29,6.2396,6.1873,6.1671,6.128,6.0811,6.0417,6.0735,6.1029,6.0541,6.0218,5.9977,5.9492,5.9186,5.8825,5.8419,5.7596,5.701,5.6667,5.5459,5.4532,5.4199,5.3292,5.2752,5.2513,5.2425,5.218,5.1987,5.1963,5.1815,4.0752,4.0993,4.0783,4.119,4.1951,4.1773,4.2496,4.3776,4.3583,4.3635,4.3931,4.3997,4.3879,4.3704,4.3877,4.376,4.3361,4.4467,4.5141,4.546,4.6042,4.6301,4.6303,4.6288,4.6289,4.6289,4.6288,4.6751,4.7538,4.7883,4.8718,5.0,5.0343,5.0798,5.1268,5.1333,5.1296,5.1304,5.1331,5.133,5.1385,5.1596,5.1973,5.2509,5.2281,5.2407,5.2997,5.3006,5.3435,5.4187,5.4365,5.4729,5.5514,5.6355,5.6814,5.6898,5.7584,5.7981,5.8026,5.8641,5.9315,5.9885,6.025,6.0757,6.1531,6.1656,6.2121,6.2625,6.2555,6.2696,6.36,6.3303,6.2979,6.3397,6.3343,6.3231,6.3178,6.2465,6.1871,6.1629,6.1553,6.1913,6.2578,6.2749,6.3167,6.385,6.3212,6.265,6.2484,6.2109,6.177,6.1206,6.1712,6.2048,6.2021,6.1973,6.1255,6.0707,6.0212,5.9783,5.9091,5.824,5.7592,5.7199,5.6473,5.5487,5.452,5.3617,5.3162,5.2925,5.2602,5.2364,5.2269,5.2246,5.206,4.0891,4.1364,4.0765,4.1151,4.2065,4.286,4.3838,4.4777,4.5565,4.536,4.4845,4.4884,4.4529,4.4023,4.4607,4.4863,4.4865,4.5072,4.5514,4.6167,4.6337,4.6419,4.6419,4.6542,4.6582,4.6562,4.6422,4.6882,4.7824,4.8505,4.9319,5.0147,5.0935,5.1255,5.1294,5.1296,5.1304,5.1328,5.1356,5.1388,5.1414,5.2116,5.2635,5.2916,5.3471,5.3871,5.3972,5.3933,5.4354,5.5174,5.5316,5.5697,5.6465,5.7256,5.7711,5.7829,5.8475,5.8816,5.8912,5.9611,6.0075,6.0243,6.0852,6.1599,6.2274,6.2405,6.275,6.3617,6.3823,6.4257,6.4957,6.4967,6.4803,6.4821,6.4558,6.4416,6.4207,6.3877,6.3298,6.2673,6.2557,6.2768,6.3372,6.3751,6.4057,6.4289,6.3934,6.3295,6.3013,6.2466,6.1957,6.1975,6.2519,6.3044,6.3382,6.3588,6.2689,6.1861,6.1363,6.0853,5.9894,5.9048,5.8514,5.8069,5.7129,5.6161,5.5482,5.4615,5.3895,5.3567,5.308,5.263,5.2452,5.2364,5.2317,4.1484,4.087,4.1765,4.2313,4.2768,4.3714,4.4647,4.548,4.5944,4.5938,4.5747,4.5749,4.5631,4.5478,4.5685,4.578,4.5799,4.5878,4.6067,4.6387,4.6904,4.7183,4.7283,4.7793,4.8105,4.8104,4.8081,4.8504,4.9199,4.9561,5.0139,5.0908,5.1266,5.1369,5.133,5.1292,5.1312,5.1379,5.1388,5.1659,5.2208,5.252,5.3225,5.4365,5.4747,5.5114,5.5677,5.5189,5.5311,5.6138,5.6196,5.6563,5.7375,5.8206,5.864,5.8741,5.9371,5.9771,5.9857,6.0482,6.0953,6.101,6.1257,6.1816,6.2484,6.2235,6.2615,6.3774,6.3659,6.3783,6.4939,6.5129,6.5285,6.5888,6.5993,6.5714,6.5269,6.4772,6.4448,6.4225,6.4149,6.4263,6.4509,6.4813,6.5042,6.4706,6.4388,6.4049,6.3332,6.2973,6.2707,6.2763,6.3458,6.4021,6.4359,6.4378,6.3731,6.3117,6.2636,6.1763,6.0803,5.995,5.9455,5.8647,5.7706,5.7019,5.6341,5.5633,5.4916,5.4209,5.3758,5.323,5.2666,5.2648,5.2889,4.2216,4.1674,4.2402,4.3005,4.3413,4.4153,4.4979,4.579,4.6037,4.6117,4.6126,4.6162,4.6199,4.6206,4.6215,4.6206,4.6209,4.6273,4.6481,4.68,4.7295,4.7749,4.8064,4.8613,4.8886,4.8884,4.888,4.9323,5.0076,5.0147,5.0547,5.1274,5.1673,5.185,5.183,5.2122,5.2292,5.2311,5.2374,5.2626,5.3125,5.3499,5.4203,5.5179,5.5606,5.6052,5.654,5.6052,5.6028,5.6489,5.6577,5.7102,5.8165,5.8802,5.924,5.9677,6.0251,6.0692,6.0739,6.1128,6.1447,6.1493,6.1771,6.2182,6.2698,6.2463,6.3168,6.3851,6.4094,6.4255,6.5119,6.5407,6.5688,6.6202,6.6474,6.6536,6.6189,6.572,6.5361,6.5305,6.5324,6.5229,6.5154,6.5552,6.5668,6.4934,6.4879,6.469,6.3915,6.3592,6.3534,6.3571,6.3871,6.4491,6.5204,6.5092,6.4697,6.4333,6.3967,6.2851,6.1738,6.0898,6.0249,5.9075,5.8103,5.7919,5.7298,5.6621,5.5904,5.5212,5.4634,5.4364,5.4091,5.3977,5.4123,4.3016,4.3493,4.2936,4.3196,4.3953,4.4308,4.4997,4.5803,4.6042,4.6117,4.6126,4.6162,4.6199,4.6206,4.6215,4.6206,4.6211,4.6292,4.6851,4.7445,4.7823,4.8238,4.912,4.9297,4.9355,4.9271,4.9231,4.9556,5.0305,5.0321,5.0584,5.1386,5.2108,5.2575,5.2627,5.3416,5.3688,5.3662,5.3808,5.3876,5.4069,5.476,5.5288,5.5441,5.6121,5.6529,5.6571,5.6512,5.6566,5.6667,5.6821,5.7621,5.8822,5.9198,5.9794,6.0444,6.1182,6.1383,6.1484,6.1479,6.1542,6.1542,6.2148,6.2898,6.2898,6.3178,6.3617,6.4208,6.4728,6.5189,6.5353,6.5717,6.5992,6.6063,6.6327,6.6709,6.7292,6.6707,6.6196,6.6044,6.6044,6.5798,6.5097,6.5684,6.5651,6.5087,6.5275,6.5293,6.4497,6.4098,6.4248,6.4265,6.4248,6.4923,6.5598,6.4923,6.4678,6.5257,6.4704,6.3381,6.223,6.1356,6.0391,5.9292,5.86,5.8476,5.8203,5.7467,5.6915,5.6356,5.5981,5.5783,5.5427,5.5086,5.5009,4.3554,4.2808,4.3815,4.414,4.4079,4.4804,4.5382,4.5771,4.6002,4.6113,4.6106,4.6162,4.6192,4.6199,4.6192,4.6206,4.6231,4.631,4.7144,4.8323,4.8545,4.9431,5.0507,5.0723,5.0683,5.0661,5.058,5.0848,5.1054,5.099,5.1162,5.1419,5.2277,5.2708,5.2788,5.3553,5.3912,5.3954,5.4018,5.4391,5.4937,5.5172,5.564,5.6241,5.6421,5.6557,5.661,5.6612,5.6921,5.7498,5.8126,5.8902,5.9902,6.0539,6.0909,6.119,6.1381,6.1495,6.1464,6.1503,6.1515,6.1509,6.1967,6.2225,6.2838,6.2564,6.3051,6.3832,6.4437,6.4675,6.5051,6.5519,6.5846,6.607,6.6335,6.6888,6.7747,6.7579,6.684,6.6253,6.612,6.5722,6.5438,6.5988,6.6313,6.5294,6.5596,6.6066,6.4834,6.4284,6.4284,6.4284,6.4434,6.5262,6.5581,6.4849,6.4829,6.5822,6.5153,6.3563,6.2356,6.1204,6.0096,5.8918,5.8714,5.8556,5.8513,5.815,5.775,5.7294,5.6967,5.6573,5.5919,5.5486,5.56,4.4178,4.3464,4.4485,4.4702,4.45,4.5199,4.5588,4.5742,4.5961,4.6075,4.6071,4.6083,4.6106,4.6069,4.6123,4.6151,4.6203,4.6611,4.7547,4.8729,4.9599,5.0485,5.1211,5.1387,5.1386,5.1384,5.1404,5.1364,5.138,5.1398,5.14,5.1654,5.2629,5.3214,5.3331,5.4411,5.4998,5.5058,5.5078,5.5371,5.5801,5.5857,5.6068,5.6511,5.653,5.6523,5.6546,5.6566,5.6953,5.7692,5.8326,5.9097,6.0273,6.0818,6.124,6.1521,6.1544,6.1468,6.1415,6.1441,6.1635,6.1992,6.2293,6.2805,6.3331,6.323,6.3803,6.4028,6.4388,6.4666,6.4871,6.5315,6.6044,6.6739,6.6447,6.6687,6.7957,6.7636,6.7011,6.6404,6.6063,6.5798,6.5059,6.6404,6.6219,6.5483,6.6049,6.565,6.4776,6.4531,6.4361,6.4437,6.4682,6.5378,6.581,6.5303,6.5073,6.597,6.5207,6.3654,6.2385,6.1143,6.0152,5.9255,5.8939,5.8677,5.8614,5.8574,5.8365,5.7965,5.7691,5.7445,5.6943,5.6476,5.6513,4.477,4.4883,4.4895,4.4967,4.509,4.5371,4.5545,4.5712,4.6083,4.6215,4.6216,4.6235,4.6477,4.615,4.6596,4.6433,4.6505,4.7304,4.812,4.9251,5.0359,5.1324,5.1328,5.1387,5.1504,5.16,5.1543,5.1699,5.1894,5.1835,5.1737,5.2226,5.3418,5.4003,5.4316,5.5566,5.6367,5.6327,5.6268,5.6288,5.6406,5.6442,5.6494,5.6507,5.6547,5.6499,5.6493,5.6554,5.6905,5.7752,5.787,5.8883,6.019,6.0371,6.0822,6.1393,6.1507,6.1415,6.1362,6.1325,6.157,6.2164,6.3005,6.3774,6.3768,6.415,6.4544,6.4372,6.4895,6.5051,6.5122,6.5396,6.6057,6.6868,6.6217,6.6192,6.6847,6.7161,6.684,6.6139,6.5969,6.559,6.559,6.6083,6.6767,6.5596,6.6163,6.6027,6.5326,6.4949,6.4797,6.4741,6.5062,6.5496,6.5739,6.5813,6.5807,6.5987,6.4865,6.3555,6.2337,6.1209,6.0333,5.9627,5.9107,5.8809,5.8677,5.8638,5.8619,5.8561,5.8214,5.8389,5.845,5.7958,5.7786,4.4732,4.484,4.487,4.4967,4.5106,4.5272,4.5419,4.5614,4.6436,4.6732,4.6932,4.7501,4.7786,4.7785,4.7726,4.7941,4.7921,4.8319,4.8934,4.9884,5.0848,5.1363,5.1386,5.1386,5.1757,5.2127,5.2381,5.2729,5.3115,5.3153,5.3347,5.3455,5.4141,5.4921,5.5074,5.5856,5.6518,5.6588,5.6593,5.6561,5.6562,5.6635,5.6681,5.6669,5.6631,5.6548,5.6499,5.6493,5.6926,5.7723,5.8443,5.9214,6.0174,6.0909,6.129,6.1384,6.1336,6.1225,6.1169,6.1098,6.109,6.1486,6.2209,6.2629,6.2812,6.3694,6.4402,6.4714,6.5095,6.5342,6.5569,6.5603,6.5918,6.615,6.5935,6.5618,6.5798,6.5767,6.5576,6.5339,6.5229,6.5116,6.5021,6.6386,6.6634,6.5993,6.6049,6.6387,6.5951,6.5367,6.5254,6.5159,6.5879,6.6389,6.6785,6.6651,6.6134,6.5843,6.472,6.3795,6.2557,6.1558,6.0778,5.9961,5.9162,5.8939,5.8791,5.8677,5.8658,5.8677,5.8677,5.8677,5.8677,5.8677,5.8677,4.4751,4.4796,4.487,4.4967,4.5106,4.5231,4.539,4.5685,4.6553,4.6974,4.7164,4.7951,4.8326,4.828,4.8329,4.8387,4.8624,4.9094,4.9779,5.0579,5.1183,5.1355,5.1384,5.1462,5.181,5.2508,5.2632,5.3108,5.3689,5.394,5.3818,5.3983,5.4786,5.5109,5.5338,5.604,5.6502,5.6579,5.6574,5.6523,5.6523,5.6955,5.7428,5.759,5.7646,5.7619,5.7719,5.7668,5.7915,5.8334,5.8777,5.9411,6.0223,6.0994,6.1328,6.135,6.1139,6.1012,6.0942,6.0938,6.1048,6.1384,6.1863,6.2605,6.3245,6.4015,6.466,6.5383,6.5702,6.5807,6.6003,6.5844,6.5846,6.6231,6.5961,6.5811,6.5847,6.5496,6.5087,6.5008,6.4979,6.4963,6.5419,6.6423,6.6691,6.6144,6.6484,6.6727,6.6046,6.5556,6.5633,6.5842,6.6711,6.7372,6.7903,6.7562,6.6481,6.5795,6.4728,6.4009,6.317,6.2231,6.1332,6.0518,5.9664,5.9088,5.8921,5.8828,5.8828,5.8754,5.8754,5.8716,5.8714,5.8751,5.8733,4.4851,4.4802,4.4877,4.4986,4.5114,4.5218,4.5446,4.5822,4.6717,4.7315,4.7465,4.8249,4.8876,4.8622,4.8731,4.8732,4.9045,4.9646,5.0559,5.1099,5.1219,5.1325,5.1345,5.1418,5.1917,5.2669,5.2869,5.3387,5.418,5.4312,5.4608,5.4527,5.5025,5.5529,5.5661,5.6057,5.6519,5.6561,5.6539,5.6503,5.6636,5.7282,5.8028,5.8626,5.873,5.87,5.8704,5.8724,5.8856,5.8968,5.8905,5.9304,5.9921,6.0611,6.1089,6.11,6.0905,6.0806,6.0781,6.0788,6.0998,6.1752,6.1925,6.2714,6.3913,6.4558,6.518,6.577,6.6147,6.6167,6.6185,6.6039,6.6341,6.67,6.6372,6.6255,6.6251,6.5696,6.5264,6.504,6.4939,6.4907,6.5324,6.6063,6.6255,6.6503,6.6862,6.7012,6.6407,6.62,6.6503,6.6994,6.7953,6.8427,6.8921,6.8051,6.6995,6.6084,6.5001,6.4208,6.3665,6.3015,6.2116,6.1094,6.0274,5.9812,5.9552,5.9664,5.9515,5.9107,5.9181,5.9534,5.9348,5.8937,5.8826,4.5366,4.4719,4.4865,4.4943,4.5033,4.5114,4.5622,4.6432,4.7376,4.8212,4.8845,4.9817,5.0154,5.0183,5.026,5.0338,5.032,5.0648,5.0933,5.1195,5.1226,5.1245,5.1262,5.1303,5.208,5.3249,5.3591,5.4264,5.5497,5.5984,5.5699,5.5985,5.6106,5.6203,5.6209,5.6452,5.6519,5.6531,5.6523,5.65,5.6694,5.7437,5.8313,5.905,5.9216,5.9226,5.9137,5.905,5.8944,5.8851,5.8815,5.8894,5.9242,5.9827,6.034,6.0713,6.077,6.0704,6.0681,6.0578,6.055,6.0797,6.1349,6.2215,6.3371,6.4274,6.5151,6.5836,6.6177,6.6167,6.6185,6.6134,6.6129,6.6232,6.6272,6.6023,6.5841,6.566,6.5293,6.5095,6.4995,6.498,6.5412,6.5959,6.6492,6.6818,6.7181,6.7675,6.7732,6.7768,6.8122,6.8702,6.9394,6.9666,6.9938,6.859,6.7383,6.6579,6.5572,6.4428,6.3931,6.3676,6.2937,6.1986,6.1298,6.0853,6.0685,6.0537,6.0444,6.0202,6.0333,6.0481,5.9905,5.9327,5.9088,4.5776,4.5381,4.5054,4.4931,4.5067,4.5574,4.6032,4.6682,4.7941,4.8792,4.937,5.0191,5.0682,5.0702,5.0683,5.0757,5.0855,5.0947,5.105,5.1111,5.1155,5.1171,5.1202,5.121,5.2281,5.3332,5.3852,5.4654,5.6195,5.6334,5.6417,5.6431,5.6479,5.6488,5.6494,5.6465,5.6533,5.6529,5.6523,5.6497,5.6649,5.7684,5.8765,5.9488,6.0049,6.0278,6.0283,6.0238,6.0219,6.0093,5.971,5.9662,5.9736,5.9763,5.992,6.0296,6.0616,6.0781,6.0762,6.0688,6.0671,6.0718,6.1384,6.2247,6.3212,6.4174,6.5145,6.5805,6.5721,6.5729,6.6011,6.6134,6.6091,6.6055,6.6318,6.6317,6.5974,6.6049,6.5788,6.5365,6.5185,6.5223,6.5327,6.5972,6.6719,6.7182,6.7492,6.8082,6.871,6.8934,6.9114,6.9356,6.9804,7.009,7.0116,6.9127,6.7844,6.7012,6.6199,6.5038,6.4262,6.4022,6.3665,6.3026,6.245,6.197,6.128,6.0964,6.1113,6.1261,6.115,6.0908,6.0258,5.9775,5.9497,4.6318,4.6038,4.5439,4.5185,4.5359,4.605,4.6648,4.7213,4.8482,4.9231,4.9571,5.0237,5.0653,5.0692,5.0702,5.073,5.0821,5.0872,5.0948,5.103,5.105,5.1084,5.1137,5.1381,5.2055,5.3538,5.3761,5.4607,5.6003,5.6358,5.6403,5.6417,5.6455,5.6488,5.6498,5.6485,5.6525,5.6545,5.6542,5.6538,5.7084,5.8191,5.9419,6.0282,6.1081,6.1422,6.128,6.1229,6.1026,6.0747,6.0366,6.0115,6.0377,6.0063,5.9852,6.0094,6.075,6.1076,6.1229,6.1488,6.1511,6.1273,6.1932,6.2748,6.3638,6.4613,6.5434,6.5894,6.5708,6.5453,6.5874,6.6058,6.6005,6.6097,6.6653,6.7143,6.666,6.6515,6.6638,6.6196,6.5658,6.542,6.5505,6.568,6.6377,6.7387,6.7719,6.8541,6.9131,6.9379,6.9525,6.9599,6.9878,7.0233,7.0121,6.9644,6.8443,6.7439,6.6673,6.574,6.4982,6.4398,6.4179,6.4122,6.3628,6.3093,6.2253,6.167,6.206,6.2171,6.1837,6.1354,6.0778,6.0295,5.9961,4.7338,4.6113,4.6064,4.6045,4.6107,4.6368,4.7291,4.8526,4.8957,4.9584,5.0242,5.0476,5.0633,5.0721,5.076,5.0788,5.0852,5.0945,5.1024,5.113,5.1087,5.1124,5.1107,5.1101,5.2331,5.3669,5.3831,5.4704,5.5933,5.6356,5.6407,5.6407,5.6455,5.6488,5.6494,5.6482,5.6499,5.6515,5.6502,5.6814,5.7523,5.8398,5.9306,6.0133,6.0969,6.1427,6.1374,6.1367,6.1186,6.0441,6.0192,5.9677,5.9188,5.9647,6.0331,6.1025,6.166,6.205,6.2178,6.2556,6.2644,6.2334,6.2841,6.3659,6.4535,6.5225,6.5837,6.6117,6.5868,6.5759,6.5827,6.5936,6.5888,6.6259,6.6869,6.7205,6.7064,6.7628,6.7658,6.6918,6.6337,6.5847,6.5626,6.5769,6.6029,6.7079,6.8053,6.8855,6.951,6.978,6.9916,6.9955,6.999,7.0291,7.0345,6.9827,6.8991,6.7889,6.7221,6.6479,6.5718,6.5165,6.5491,6.5352,6.4789,6.4179,6.3427,6.3126,6.3249,6.3085,6.2754,6.2082,6.1336,6.089,6.0388,4.8517,4.7509,4.6569,4.6468,4.6948,4.7535,4.8205,4.8907,4.9534,5.0049,5.0442,5.0521,5.0584,5.075,5.1125,5.1434,5.148,5.1517,5.1561,5.16,5.1606,5.1684,5.1903,5.23,5.3293,5.3987,5.4524,5.5074,5.6012,5.6327,5.6361,5.6407,5.6437,5.6468,5.6487,5.6498,5.6486,5.6499,5.6517,5.6679,5.7172,5.7863,5.8521,5.895,6.0214,6.0761,6.0937,6.1301,6.1303,6.0864,6.0838,6.0655,6.0378,6.065,6.1174,6.2028,6.2807,6.3191,6.3288,6.358,6.3492,6.3538,6.3947,6.4789,6.5497,6.5634,6.5857,6.6185,6.5689,6.5592,6.5863,6.6005,6.5959,6.6298,6.7155,6.7398,6.7776,6.8653,6.8803,6.7904,6.6993,6.6425,6.592,6.5805,6.6322,6.7549,6.8344,6.895,6.9674,7.0203,7.0285,7.0291,7.0326,7.0383,7.0364,7.0116,6.9381,6.8484,6.7997,6.7231,6.6368,6.6045,6.637,6.604,6.5254,6.4756,6.4417,6.3978,6.3609,6.3624,6.3691,6.2832,6.1933,6.1206,6.0552,4.9055,4.885,4.7434,4.7169,4.7782,4.8561,4.9023,4.9302,4.9968,5.0352,5.0489,5.0542,5.0623,5.0846,5.1452,5.1847,5.1992,5.227,5.2401,5.2445,5.2487,5.2566,5.2733,5.3313,5.3931,5.4924,5.4815,5.5404,5.6006,5.6323,5.6353,5.6406,5.6403,5.6455,5.6469,5.6494,5.652,5.6541,5.6545,5.6561,5.6736,5.7418,5.7767,5.8363,5.9267,6.03,6.0422,6.1101,6.1505,6.144,6.139,6.1258,6.1234,6.1246,6.1712,6.2437,6.3111,6.3701,6.4128,6.4524,6.4478,6.4623,6.5032,6.5734,6.6068,6.5738,6.5532,6.6195,6.5726,6.563,6.5797,6.6047,6.5994,6.6553,6.7517,6.7744,6.8171,6.9173,6.9403,6.8397,6.7519,6.6853,6.6378,6.6006,6.6602,6.7948,6.8696,6.915,6.9666,7.0273,7.0004,6.9804,6.9377,6.9453,6.9739,6.9628,6.9146,6.8905,6.8412,6.7866,6.698,6.6843,6.7141,6.6565,6.5872,6.5531,6.5352,6.4576,6.3873,6.3802,6.368,6.3245,6.2513,6.1692,6.059,4.8337,4.9741,4.8856,4.8528,4.8623,4.8821,4.9346,4.9898,5.0186,5.0371,5.0511,5.0623,5.0692,5.0971,5.1625,5.2107,5.2146,5.2858,5.3193,5.3333,5.3376,5.342,5.3561,5.3786,5.4153,5.4876,5.5125,5.5585,5.6091,5.6298,5.636,5.6406,5.6388,5.6431,5.6469,5.6491,5.6536,5.6555,5.6573,5.6548,5.6735,5.7206,5.7656,5.808,5.9299,6.0356,6.0313,6.1017,6.1534,6.1486,6.1534,6.15,6.1445,6.1451,6.1874,6.2353,6.2798,6.3544,6.4425,6.5307,6.5743,6.5674,6.5867,6.6347,6.6414,6.6403,6.6318,6.6206,6.5882,6.5831,6.5909,6.5924,6.5982,6.6452,6.7357,6.8116,6.8715,6.9822,6.988,6.8868,6.8171,6.7673,6.7064,6.6744,6.6917,6.8173,6.902,6.9486,6.9456,6.981,6.9277,6.8851,6.8141,6.8144,6.862,6.8526,6.8318,6.8376,6.8215,6.7908,6.7472,6.7598,6.7781,6.7579,6.6998,6.6646,6.6082,6.5154,6.4385,6.3976,6.3609,6.3214,6.2423,6.1391,6.0277,4.9178,4.9811,4.9543,4.9438,4.9438,4.9588,4.981,5.0082,5.0243,5.0371,5.0511,5.0653,5.0971,5.1548,5.2337,5.304,5.3512,5.3861,5.4091,5.4176,5.4239,5.4282,5.4423,5.4796,5.5366,5.5598,5.5693,5.5792,5.6233,5.6291,5.6303,5.6339,5.6372,5.6403,5.644,5.6484,5.6514,5.6531,5.6582,5.6575,5.6637,5.6779,5.7058,5.72,5.8047,5.906,5.956,6.0399,6.1041,6.1488,6.1598,6.1556,6.1475,6.15,6.1659,6.1984,6.2332,6.3267,6.4357,6.5343,6.5816,6.6371,6.6525,6.6672,6.6555,6.6497,6.6423,6.6299,6.6175,6.6069,6.6091,6.6091,6.617,6.6441,6.7081,6.807,6.9026,7.0018,7.0309,6.9285,6.9051,6.8803,6.8187,6.7571,6.7859,6.8346,6.9121,6.9696,6.9546,6.918,6.8624,6.7952,6.7238,6.7675,6.8244,6.7979,6.7581,6.7821,6.8067,6.7776,6.7624,6.8073,6.8214,6.8142,6.7887,6.7199,6.6431,6.5542,6.4828,6.4198,6.3683,6.3205,6.2244,6.115,6.0128,4.9509,4.9788,4.9871,4.9893,4.9906,5.0044,5.0108,5.0133,5.0243,5.0371,5.053,5.0864,5.1337,5.2077,5.3126,5.3799,5.4349,5.4737,5.4911,5.5017,5.5091,5.5163,5.5363,5.562,5.5877,5.6164,5.6202,5.6238,5.6252,5.6285,5.6304,5.6309,5.6339,5.6358,5.6422,5.6465,5.6485,5.6506,5.6536,5.6602,5.6604,5.6626,5.6645,5.6866,5.7804,5.8592,5.9414,6.0305,6.1151,6.149,6.1637,6.1589,6.1549,6.152,6.1473,6.1635,6.2016,6.2821,6.3916,6.5142,6.6011,6.6572,6.6714,6.6732,6.6634,6.654,6.6456,6.6318,6.6225,6.6205,6.6205,6.6165,6.6165,6.6367,6.7024,6.7945,6.8766,6.9654,6.9876,6.9721,6.9603,6.9399,6.8886,6.8321,6.8706,6.9044,6.9644,6.9815,6.9225,6.8708,6.7858,6.7144,6.639,6.7184,6.8091,6.7352,6.6934,6.8165,6.8213,6.7763,6.7705,6.8198,6.8498,6.8426,6.8082,6.7509,6.6927,6.628,6.5305,6.4271,6.3808,6.3357,6.2073,6.102,6.0221,4.9018,4.9769,4.9871,4.9893,4.9906,5.0044,5.0108,5.012,5.0255,5.0371,5.0607,5.1344,5.1846,5.2346,5.3645,5.4395,5.4762,5.5353,5.5663,5.5673,5.5691,5.5852,5.5898,5.5982,5.6046,5.6098,5.6172,5.6209,5.6225,5.6259,5.6298,5.631,5.6321,5.6342,5.6393,5.6453,5.6494,5.65,5.6525,5.667,5.6619,5.6777,5.7009,5.7118,5.8119,5.8933,5.9568,6.0469,6.1245,6.157,6.1683,6.164,6.16,6.1573,6.1525,6.1467,6.1544,6.2439,6.3943,6.5732,6.6565,6.6755,6.6804,6.6743,6.6579,6.6497,6.645,6.6334,6.6235,6.6195,6.6205,6.6205,6.6205,6.6379,6.7017,6.7752,6.8554,6.9211,6.9474,7.017,6.9999,6.968,6.929,6.9071,6.9494,6.9896,7.0335,7.0015,6.9196,6.8474,6.7675,6.6938,6.6292,6.7158,6.7777,6.6527,6.6387,6.7776,6.8365,6.7845,6.7811,6.8278,6.8516,6.8609,6.8408,6.7991,6.757,6.7131,6.5849,6.4606,6.4065,6.3392,6.207,6.0983,6.024,4.9443,4.9717,4.9838,4.9893,4.9925,5.0044,5.0108,5.0133,5.0278,5.0424,5.0683,5.1448,5.2249,5.2981,5.3895,5.4799,5.5291,5.5477,5.5836,5.5895,5.5971,5.5979,5.5995,5.6012,5.6029,5.6098,5.6157,5.6214,5.6218,5.6252,5.6291,5.6304,5.6309,5.6336,5.6388,5.6453,5.6484,5.6611,5.6933,5.718,5.6784,5.7523,5.7952,5.7502,5.8575,5.9367,5.9852,6.0758,6.121,6.1601,6.1697,6.1676,6.1609,6.1591,6.15,6.16,6.1829,6.316,6.4696,6.6148,6.6729,6.6809,6.6804,6.6762,6.6705,6.6563,6.6478,6.638,6.6245,6.6215,6.6205,6.6205,6.6205,6.6205,6.6727,6.752,6.8264,6.8786,6.9306,7.0359,7.0679,7.0504,7.0188,6.984,7.011,7.02,7.0522,6.9906,6.9065,6.8544,6.7862,6.7157,6.6733,6.7462,6.7626,6.6931,6.7138,6.8575,6.8581,6.7878,6.8032,6.8352,6.8637,6.8828,6.8657,6.8469,6.7991,6.7337,6.6034,6.4994,6.4492,6.3426,6.1974,6.1076,6.0444,4.9711,4.9721,4.9843,4.9893,4.9925,5.0044,5.0101,5.0194,5.0344,5.0446,5.073,5.1696,5.2574,5.3404,5.4395,5.5088,5.5695,5.5745,5.5826,5.5895,5.5924,5.5969,5.5986,5.6012,5.602,5.6082,5.6122,5.616,5.6216,5.6232,5.6259,5.6298,5.6329,5.6572,5.666,5.6714,5.648,5.6706,5.7134,5.7515,5.7545,5.8055,5.876,5.8655,5.9109,5.9837,6.0321,6.0723,6.1084,6.156,6.1699,6.1687,6.1635,6.1572,6.1514,6.1719,6.2712,6.3795,6.4866,6.6238,6.6711,6.6802,6.68,6.6784,6.6736,6.6588,6.649,6.64,6.6282,6.6235,6.6205,6.6205,6.6185,6.6185,6.6437,6.721,6.8197,6.8758,6.9413,7.0498,7.1104,7.1011,7.0945,7.0835,7.0706,7.0671,7.0631,6.9824,6.9095,6.866,6.818,6.7471,6.7234,6.7908,6.8208,6.7945,6.8415,6.9444,6.8966,6.8169,6.8069,6.8354,6.8698,6.9005,6.8881,6.8703,6.8278,6.7509,6.658,6.5708,6.5002,6.3693,6.1974,6.1243,6.076,4.9711,4.974,4.9862,4.9893,4.9925,5.0044,5.0151,5.029,5.0348,5.0473,5.0702,5.2348,5.3151,5.3596,5.4953,5.5607,5.5665,5.5695,5.5776,5.5846,5.5905,5.5951,5.5977,5.6003,5.6012,5.6029,5.6062,5.6149,5.6199,5.6238,5.6252,5.6291,5.6303,5.6613,5.6798,5.6888,5.666,5.6998,5.733,5.7654,5.7804,5.8663,5.9173,5.9378,5.9934,6.0411,6.0815,6.1163,6.1486,6.171,6.1697,6.1716,6.1678,6.1649,6.1621,6.2086,6.3313,6.4006,6.4757,6.6158,6.668,6.6809,6.6798,6.6732,6.6654,6.6571,6.6484,6.6376,6.6264,6.6225,6.6205,6.6185,6.6195,6.6195,6.6195,6.7105,6.8256,6.899,6.9626,7.0343,7.0911,7.1037,7.0939,7.0898,7.0885,7.0829,7.0642,7.0193,6.9508,6.9057,6.8523,6.7868,6.784,6.838,6.8565,6.8753,6.9297,7.0236,6.9419,6.8697,6.8559,6.8447,6.8806,6.9072,6.9138,6.8975,6.8637,6.8165,6.7503,6.6627,6.5659,6.4047,6.2383,6.1763,6.1206,4.9711,4.9707,4.9824,4.9893,4.9925,5.0057,5.0182,5.0302,5.0344,5.0688,5.1489,5.2535,5.3426,5.4222,5.5222,5.5607,5.5684,5.5714,5.5756,5.5816,5.5885,5.5943,5.5989,5.6005,5.6003,5.602,5.6065,5.6098,5.618,5.6211,5.6252,5.6298,5.631,5.6537,5.6807,5.7058,5.718,5.7357,5.7652,5.7771,5.825,5.9147,5.9603,6.0125,6.0701,6.1082,6.1351,6.1488,6.1717,6.1702,6.1718,6.1715,6.1713,6.1688,6.1735,6.2579,6.3609,6.4456,6.5224,6.624,6.686,6.6809,6.6807,6.6778,6.6707,6.661,6.647,6.6378,6.6283,6.6235,6.6205,6.6205,6.6216,6.6235,6.6293,6.6903,6.7987,6.8761,6.9426,7.0324,7.0872,7.1037,7.0939,7.0898,7.0885,7.0857,7.0681,7.0314,6.9921,6.9454,6.9036,6.8383,6.8422,6.894,6.956,6.9838,7.0348,7.0683,6.9816,6.916,6.9013,6.8956,6.9085,6.9147,6.916,6.9174,6.9106,6.8471,6.7576,6.7123,6.6188,6.4501,6.3022,6.243,6.2007,4.9711,4.9721,4.9843,4.9939,4.9992,5.007,5.0335,5.0718,5.0818,5.1232,5.19,5.3023,5.3884,5.4519,5.528,5.5684,5.5684,5.5695,5.5745,5.5816,5.5865,5.5953,5.598,5.5987,5.5977,5.5986,5.5996,5.6005,5.6082,5.6141,5.6192,5.6311,5.6311,5.6537,5.6886,5.7332,5.7531,5.7745,5.7936,5.7959,5.8479,5.9337,6.0071,6.0516,6.1148,6.1517,6.167,6.1676,6.1707,6.1717,6.1717,6.1699,6.1717,6.1701,6.1727,6.2503,6.3585,6.4312,6.5017,6.6186,6.6667,6.6807,6.6756,6.6756,6.6683,6.6581,6.6514,6.6445,6.6321,6.6215,6.6225,6.6235,6.6244,6.6271,6.6493,6.6706,6.7512,6.8365,6.9301,7.0277,7.0725,7.0928,7.0965,7.0925,7.0898,7.0871,7.0815,7.0593,7.0214,6.9811,6.9493,6.9066,6.92,6.9541,7.0142,7.0577,7.0674,7.0643,7.0046,6.952,6.9388,6.9378,6.944,6.931,6.9121,6.908,6.8965,6.8232,6.7442,6.7015,6.6683,6.5645,6.4208,6.3094,6.2764,4.9711,4.9707,4.9843,4.9978,5.0095,5.0127,5.064,5.1551,5.1639,5.1844,5.2349,5.3598,5.4364,5.4846,5.5434,5.5684,5.5684,5.5695,5.5724,5.5776,5.5806,5.5865,5.5895,5.5941,5.5847,5.5847,5.5876,5.5866,5.5875,5.5973,5.6144,5.6285,5.6311,5.6531,5.7023,5.7658,5.7838,5.7717,5.8198,5.8501,5.8271,5.9098,6.0185,6.0428,6.0952,6.1456,6.1576,6.1654,6.171,6.1711,6.1707,6.1716,6.1699,6.1714,6.175,6.2162,6.324,6.3787,6.447,6.5443,6.6231,6.6505,6.6655,6.6594,6.6513,6.6536,6.65,6.6437,6.6331,6.6245,6.6215,6.6301,6.6345,6.6351,6.6484,6.6678,6.7135,6.817,6.9407,7.0305,7.0891,7.1043,7.0965,7.0925,7.0898,7.0898,7.0857,7.0724,7.0477,7.0107,6.9797,6.9563,6.957,6.9799,7.0629,7.0933,7.0686,7.0465,7.01,6.9765,6.9559,6.9622,6.9778,6.9511,6.9207,6.8849,6.8546,6.7903,6.7335,6.6881,6.6613,6.6594,6.5628,6.4455,6.3985,4.9711,4.9726,4.9843,4.9978,5.0095,5.0108,5.0665,5.1646,5.227,5.2915,5.3671,5.4135,5.4721,5.5346,5.5549,5.5684,5.5684,5.5703,5.5714,5.5703,5.5714,5.5703,5.5673,5.5695,5.5621,5.5618,5.5651,5.5747,5.5866,5.5954,5.606,5.6225,5.6278,5.6531,5.6803,5.7548,5.8072,5.7694,5.8346,5.8481,5.8013,5.8139,5.8767,5.9765,6.0636,6.1097,6.1331,6.1664,6.1696,6.1713,6.1713,6.1709,6.1698,6.1699,6.1698,6.1914,6.2753,6.324,6.3684,6.4456,6.5192,6.5636,6.5801,6.6135,6.6315,6.6432,6.6465,6.64,6.636,6.6293,6.6264,6.6338,6.6414,6.6419,6.6481,6.6664,6.6878,6.816,6.9503,7.0285,7.0968,7.1068,7.0992,7.0939,7.0912,7.0898,7.0898,7.0815,7.0639,7.035,6.9928,6.9701,6.9562,6.9892,7.0854,7.1084,7.0746,7.0734,7.0532,7.0155,6.9758,6.9834,6.9909,6.9588,6.9266,6.8772,6.8259,6.775,6.7221,6.6652,6.6862,6.6938,6.726,6.6484,6.5955,4.9721,4.9745,4.9857,4.9973,5.007,5.0005,5.0728,5.1935,5.2488,5.343,5.4574,5.4805,5.517,5.5654,5.5684,5.5703,5.5703,5.5684,5.566,5.5626,5.5596,5.5562,5.5527,5.548,5.5468,5.5456,5.5504,5.5629,5.5847,5.5975,5.6067,5.6185,5.6272,5.633,5.6505,5.7535,5.8092,5.7657,5.8498,5.844,5.7848,5.7916,5.8334,5.9415,6.0159,6.0675,6.13,6.1654,6.167,6.1705,6.1707,6.1707,6.1716,6.1698,6.1699,6.1914,6.242,6.2922,6.3103,6.355,6.4239,6.4622,6.525,6.5678,6.5835,6.5987,6.6443,6.6403,6.6396,6.6331,6.6274,6.632,6.6373,6.6378,6.6602,6.6827,6.7482,6.852,6.9744,7.0768,7.1123,7.1068,7.0992,7.0925,7.0912,7.0898,7.0898,7.0787,7.0639,7.0547,7.0161,6.9872,6.9739,7.0361,7.1533,7.1326,7.0628,7.0706,7.0896,7.0458,7.0019,7.0073,7.0016,6.9752,6.9239,6.8434,6.7922,6.736,6.6711,6.6036,6.6659,6.7408,6.7749,6.8015,6.7447,4.975,4.9821,4.9885,4.9946,5.0031,4.989,5.0804,5.2233,5.2451,5.3418,5.4851,5.5212,5.5497,5.564,5.5651,5.5692,5.5682,5.5618,5.5562,5.5551,5.5539,5.5425,5.5395,5.5371,5.5333,5.5371,5.5432,5.5607,5.5837,5.5931,5.6043,5.6178,5.6246,5.6285,5.6544,5.7114,5.7651,5.8014,5.846,5.8568,5.8198,5.777,5.8213,5.8899,5.9663,6.0525,6.1108,6.1541,6.1579,6.166,6.1681,6.1707,6.1716,6.1699,6.1699,6.1872,6.2177,6.2535,6.2733,6.3075,6.3505,6.3973,6.4716,6.5161,6.5307,6.5794,6.6248,6.6428,6.6422,6.6378,6.6331,6.6312,6.6338,6.6373,6.6644,6.7095,6.7956,6.8781,6.9841,7.0942,7.1135,7.1062,7.1018,7.0952,7.0912,7.0898,7.0829,7.0699,7.0578,7.0547,7.0367,7.0144,7.0019,7.0896,7.1902,7.1485,7.0629,7.0894,7.1059,7.0631,7.0317,7.0266,7.019,7.0031,6.9437,6.8354,6.7436,6.6774,6.6131,6.565,6.6641,6.7535,6.7839,6.8086,6.8217,4.9778,4.9885,4.9898,4.9885,4.9843,4.9807,5.0704,5.2035,5.2205,5.3153,5.4473,5.4895,5.514,5.5588,5.5485,5.5516,5.5638,5.5539,5.5497,5.5485,5.5376,5.5262,5.5183,5.5189,5.5195,5.5307,5.5492,5.5673,5.5837,5.5913,5.602,5.6187,5.6192,5.6265,5.6447,5.7075,5.7755,5.8234,5.8713,5.8933,5.9184,5.8684,5.7824,5.8266,5.8806,5.9635,6.0395,6.1212,6.1474,6.158,6.1632,6.1687,6.1698,6.1699,6.1695,6.1704,6.202,6.1975,6.218,6.2266,6.2527,6.3009,6.3755,6.4538,6.4993,6.5829,6.6186,6.6406,6.6392,6.6367,6.634,6.6348,6.6364,6.6364,6.6523,6.7316,6.8171,6.877,6.9521,7.0451,7.1089,7.1079,7.1081,7.0992,7.0898,7.0898,7.0898,7.0772,7.0688,7.0613,7.055,7.0402,7.0249,7.0695,7.1404,7.1246,7.0745,7.1065,7.114,7.0639,7.0367,7.0402,7.0288,7.0173,6.9273,6.811,6.7228,6.6541,6.6055,6.5853,6.6823,6.7621,6.7962,6.8363,6.8666]}]]